<?xml version='1.0' encoding='UTF-8'?><gpx version="1.1" creator="JPX - https://github.com/jenetics/jpx" xmlns="http://www.topografix.com/GPX/1/1"><trk><trkseg><trkpt lat="43.11698116726027" lon="12.16933527757412"><ele>261.0</ele><time>2026-05-02T09:23:02.297Z</time></trkpt><trkpt lat="43.11704564761716" lon="12.169345778398398"><ele>261.0</ele><time>2026-05-02T09:23:13Z</time></trkpt><trkpt lat="43.11696357849671" lon="12.169447600592383"><ele>261.0</ele><time>2026-05-02T09:24:09Z</time></trkpt><trkpt lat="43.11689317773259" lon="12.169546371251045"><ele>261.0</ele><time>2026-05-02T09:24:11Z</time></trkpt><trkpt lat="43.11681421024836" lon="12.169691403457623"><ele>261.0</ele><time>2026-05-02T09:24:13Z</time></trkpt><trkpt lat="43.11677233057325" lon="12.169778953937561"><ele>261.0</ele><time>2026-05-02T09:24:14Z</time></trkpt><trkpt lat="43.11676376854387" lon="12.16990529586252"><ele>261.0</ele><time>2026-05-02T09:24:16Z</time></trkpt><trkpt lat="43.11678988672184" lon="12.16999429662023"><ele>261.0</ele><time>2026-05-02T09:24:17.999Z</time></trkpt><trkpt lat="43.11693517870831" lon="12.16993992325404"><ele>261.0</ele><time>2026-05-02T09:24:19.999Z</time></trkpt><trkpt lat="43.11699571337498" lon="12.169882370003624"><ele>261.0</ele><time>2026-05-02T09:24:20.999Z</time></trkpt><trkpt lat="43.1170782968142" lon="12.169831286085238"><ele>261.0</ele><time>2026-05-02T09:24:21.999Z</time></trkpt><trkpt lat="43.11715581955528" lon="12.169775887051308"><ele>261.0</ele><time>2026-05-02T09:24:22.999Z</time></trkpt><trkpt lat="43.117240248267805" lon="12.169727562063095"><ele>261.0</ele><time>2026-05-02T09:24:23.999Z</time></trkpt><trkpt lat="43.1173281094766" lon="12.169676572724455"><ele>261.0</ele><time>2026-05-02T09:24:24.999Z</time></trkpt><trkpt lat="43.11741170564699" lon="12.16961362831797"><ele>261.0</ele><time>2026-05-02T09:24:25.999Z</time></trkpt><trkpt lat="43.11750224406888" lon="12.169550212019905"><ele>261.6666666666667</ele><time>2026-05-02T09:24:26.999Z</time></trkpt><trkpt lat="43.117588080872345" lon="12.169483736769315"><ele>262.3333333333333</ele><time>2026-05-02T09:24:27.999Z</time></trkpt><trkpt lat="43.117669253672624" lon="12.16943005911174"><ele>263.0</ele><time>2026-05-02T09:24:28.999Z</time></trkpt><trkpt lat="43.11773118468847" lon="12.169383112438164"><ele>263.66666666666663</ele><time>2026-05-02T09:24:29.999Z</time></trkpt><trkpt lat="43.11779415479263" lon="12.169338283169912"><ele>264.3333333333333</ele><time>2026-05-02T09:24:31.999Z</time></trkpt><trkpt lat="43.11788026413768" lon="12.169344980369965"><ele>265.0</ele><time>2026-05-02T09:24:34.999Z</time></trkpt><trkpt lat="43.11790384076556" lon="12.16943581917053"><ele>265.0</ele><time>2026-05-02T09:24:36.999Z</time></trkpt><trkpt lat="43.117881764533244" lon="12.169536708034945"><ele>265.0</ele><time>2026-05-02T09:24:37.999Z</time></trkpt><trkpt lat="43.117874846631366" lon="12.169628831217883"><ele>265.0</ele><time>2026-05-02T09:24:38.999Z</time></trkpt><trkpt lat="43.11786051333602" lon="12.169757255002326"><ele>265.0</ele><time>2026-05-02T09:24:39.999Z</time></trkpt><trkpt lat="43.11783816190119" lon="12.169887509496357"><ele>265.0</ele><time>2026-05-02T09:24:40.999Z</time></trkpt><trkpt lat="43.11781952441518" lon="12.170023214867966"><ele>265.0</ele><time>2026-05-02T09:24:41.999Z</time></trkpt><trkpt lat="43.11780711813969" lon="12.170132009838618"><ele>265.4</ele><time>2026-05-02T09:24:42.999Z</time></trkpt><trkpt lat="43.11777702677453" lon="12.170245682369915"><ele>265.8</ele><time>2026-05-02T09:24:43.999Z</time></trkpt><trkpt lat="43.117761850600935" lon="12.170374435321852"><ele>266.2</ele><time>2026-05-02T09:24:44.999Z</time></trkpt><trkpt lat="43.11773655806838" lon="12.170543294679662"><ele>266.6</ele><time>2026-05-02T09:24:45.999Z</time></trkpt><trkpt lat="43.11771057515323" lon="12.170673663054984"><ele>267.0</ele><time>2026-05-02T09:24:46.999Z</time></trkpt><trkpt lat="43.11768187448896" lon="12.170777718670786"><ele>267.2</ele><time>2026-05-02T09:24:47.999Z</time></trkpt><trkpt lat="43.11763570770015" lon="12.170874612459277"><ele>267.4</ele><time>2026-05-02T09:24:48.999Z</time></trkpt><trkpt lat="43.1175957188295" lon="12.170947706382485"><ele>267.6</ele><time>2026-05-02T09:24:49.999Z</time></trkpt><trkpt lat="43.117537837309364" lon="12.17105509508617"><ele>267.8</ele><time>2026-05-02T09:24:51.999Z</time></trkpt><trkpt lat="43.117495514311365" lon="12.171171972852665"><ele>268.0</ele><time>2026-05-02T09:24:53.999Z</time></trkpt><trkpt lat="43.11756951228477" lon="12.171368968335962"><ele>268.0</ele><time>2026-05-02T09:24:55.999Z</time></trkpt><trkpt lat="43.11759380080617" lon="12.171459649110902"><ele>268.0</ele><time>2026-05-02T09:24:56.999Z</time></trkpt><trkpt lat="43.11758441817585" lon="12.171569871412418"><ele>268.0</ele><time>2026-05-02T09:24:57.999Z</time></trkpt><trkpt lat="43.117563989121756" lon="12.171690479340137"><ele>268.0</ele><time>2026-05-02T09:24:59.999Z</time></trkpt><trkpt lat="43.11752503322051" lon="12.171761108847928"><ele>268.0</ele><time>2026-05-02T09:25:01.999Z</time></trkpt><trkpt lat="43.11748728500082" lon="12.1718530425615"><ele>268.0</ele><time>2026-05-02T09:25:10Z</time></trkpt><trkpt lat="43.11746319286041" lon="12.171933791888707"><ele>268.0</ele><time>2026-05-02T09:25:11Z</time></trkpt><trkpt lat="43.117444778771855" lon="12.172031157059806"><ele>268.2</ele><time>2026-05-02T09:25:12Z</time></trkpt><trkpt lat="43.1174217248619" lon="12.17216103087148"><ele>268.4</ele><time>2026-05-02T09:25:13Z</time></trkpt><trkpt lat="43.1173625500698" lon="12.17229655729301"><ele>268.59999999999997</ele><time>2026-05-02T09:25:14Z</time></trkpt><trkpt lat="43.11730381876727" lon="12.172407722962564"><ele>268.8</ele><time>2026-05-02T09:25:15Z</time></trkpt><trkpt lat="43.11726484956023" lon="12.172502707516088"><ele>269.0</ele><time>2026-05-02T09:25:16Z</time></trkpt><trkpt lat="43.117224742106885" lon="12.172616844358634"><ele>271.0</ele><time>2026-05-02T09:25:17Z</time></trkpt><trkpt lat="43.11712947771532" lon="12.172741473102636"><ele>273.0</ele><time>2026-05-02T09:25:18Z</time></trkpt><trkpt lat="43.117029502127245" lon="12.172852787709514"><ele>275.0</ele><time>2026-05-02T09:25:19Z</time></trkpt><trkpt lat="43.116954246446674" lon="12.172901643288556"><ele>277.0</ele><time>2026-05-02T09:25:20Z</time></trkpt><trkpt lat="43.11691264656315" lon="12.17303610817531"><ele>277.0</ele><time>2026-05-02T09:25:22Z</time></trkpt><trkpt lat="43.11691696390714" lon="12.173153620793567"><ele>277.0</ele><time>2026-05-02T09:25:25Z</time></trkpt><trkpt lat="43.116977686906814" lon="12.173208174296182"><ele>277.0</ele><time>2026-05-02T09:25:43Z</time></trkpt><trkpt lat="43.117081928976006" lon="12.173264615992501"><ele>277.0</ele><time>2026-05-02T09:25:45Z</time></trkpt><trkpt lat="43.11719770486868" lon="12.173335120531494"><ele>277.0</ele><time>2026-05-02T09:25:47Z</time></trkpt><trkpt lat="43.11726471721827" lon="12.173363752689514"><ele>279.16666666666663</ele><time>2026-05-02T09:25:48Z</time></trkpt><trkpt lat="43.117337382151625" lon="12.173394800009078"><ele>281.3333333333333</ele><time>2026-05-02T09:25:49Z</time></trkpt><trkpt lat="43.117420999069004" lon="12.173412391649682"><ele>283.5</ele><time>2026-05-02T09:25:50Z</time></trkpt><trkpt lat="43.11750217586112" lon="12.173448657100012"><ele>285.6666666666667</ele><time>2026-05-02T09:25:51Z</time></trkpt><trkpt lat="43.11758639751109" lon="12.17348261269271"><ele>287.83333333333337</ele><time>2026-05-02T09:25:52Z</time></trkpt><trkpt lat="43.11767696413845" lon="12.173525912586575"><ele>290.0</ele><time>2026-05-02T09:25:53Z</time></trkpt><trkpt lat="43.11775747268014" lon="12.173563604546505"><ele>290.83333333333337</ele><time>2026-05-02T09:25:54Z</time></trkpt><trkpt lat="43.117840267529346" lon="12.173601515362861"><ele>291.6666666666667</ele><time>2026-05-02T09:25:55Z</time></trkpt><trkpt lat="43.11791581311953" lon="12.173637831292345"><ele>292.5</ele><time>2026-05-02T09:25:56Z</time></trkpt><trkpt lat="43.11798882104299" lon="12.173674079573026"><ele>293.3333333333333</ele><time>2026-05-02T09:25:57Z</time></trkpt><trkpt lat="43.11806254629047" lon="12.173707888425497"><ele>294.16666666666663</ele><time>2026-05-02T09:25:58Z</time></trkpt><trkpt lat="43.1181304346425" lon="12.173762075688485"><ele>295.0</ele><time>2026-05-02T09:25:59Z</time></trkpt><trkpt lat="43.1182036736388" lon="12.173774685152008"><ele>295.16666666666663</ele><time>2026-05-02T09:26:00Z</time></trkpt><trkpt lat="43.11827012952172" lon="12.173808969134509"><ele>295.3333333333333</ele><time>2026-05-02T09:26:01Z</time></trkpt><trkpt lat="43.118326398668785" lon="12.173859306422674"><ele>295.5</ele><time>2026-05-02T09:26:02Z</time></trkpt><trkpt lat="43.11839533862442" lon="12.173891962188927"><ele>295.6666666666667</ele><time>2026-05-02T09:26:03Z</time></trkpt><trkpt lat="43.11846682519398" lon="12.173925674009658"><ele>295.83333333333337</ele><time>2026-05-02T09:26:04Z</time></trkpt><trkpt lat="43.11855577266107" lon="12.17394447529232"><ele>296.0</ele><time>2026-05-02T09:26:05Z</time></trkpt><trkpt lat="43.118644830411775" lon="12.173985854190393"><ele>298.83333333333337</ele><time>2026-05-02T09:26:06Z</time></trkpt><trkpt lat="43.11872269816545" lon="12.174046183859902"><ele>301.6666666666667</ele><time>2026-05-02T09:26:07Z</time></trkpt><trkpt lat="43.11879286197473" lon="12.174081309449551"><ele>304.5</ele><time>2026-05-02T09:26:08Z</time></trkpt><trkpt lat="43.11888513646216" lon="12.174127504147465"><ele>307.3333333333333</ele><time>2026-05-02T09:26:10Z</time></trkpt><trkpt lat="43.11894916965432" lon="12.174090278319486"><ele>310.16666666666663</ele><time>2026-05-02T09:26:58.999Z</time></trkpt><trkpt lat="43.11898870592973" lon="12.174161403096077"><ele>313.0</ele><time>2026-05-02T09:27:00.999Z</time></trkpt><trkpt lat="43.118934914297604" lon="12.1740850250419"><ele>313.0</ele><time>2026-05-02T09:28:19Z</time></trkpt><trkpt lat="43.11897862322247" lon="12.174164101191485"><ele>313.0</ele><time>2026-05-02T09:28:24Z</time></trkpt><trkpt lat="43.11900141089113" lon="12.174258485631784"><ele>313.0</ele><time>2026-05-02T09:29:23Z</time></trkpt><trkpt lat="43.118972792065875" lon="12.174362949460507"><ele>313.0</ele><time>2026-05-02T09:29:25Z</time></trkpt><trkpt lat="43.11893466344015" lon="12.17444655461932"><ele>313.0</ele><time>2026-05-02T09:29:27Z</time></trkpt><trkpt lat="43.11890645263846" lon="12.174527866885978"><ele>313.0</ele><time>2026-05-02T09:29:30Z</time></trkpt><trkpt lat="43.11886498619324" lon="12.174604640112808"><ele>313.0</ele><time>2026-05-02T09:29:39Z</time></trkpt><trkpt lat="43.118837245106235" lon="12.174695030743601"><ele>313.0</ele><time>2026-05-02T09:29:41Z</time></trkpt><trkpt lat="43.11878285802115" lon="12.174757030879986"><ele>313.0</ele><time>2026-05-02T09:29:43Z</time></trkpt><trkpt lat="43.11871513767598" lon="12.174811284787856"><ele>313.0</ele><time>2026-05-02T09:29:45Z</time></trkpt><trkpt lat="43.11865400796389" lon="12.174833539963736"><ele>313.0</ele><time>2026-05-02T09:29:48Z</time></trkpt><trkpt lat="43.11861382430628" lon="12.174905603463836"><ele>313.0</ele><time>2026-05-02T09:29:51Z</time></trkpt><trkpt lat="43.11860016353354" lon="12.174997290551364"><ele>313.0</ele><time>2026-05-02T09:30:07Z</time></trkpt><trkpt lat="43.1186366544369" lon="12.175073698537942"><ele>313.0</ele><time>2026-05-02T09:30:09Z</time></trkpt><trkpt lat="43.11869980572994" lon="12.175124672924502"><ele>314.8333333333333</ele><time>2026-05-02T09:30:11Z</time></trkpt><trkpt lat="43.11875849761156" lon="12.175164404134515"><ele>316.66666666666663</ele><time>2026-05-02T09:30:13Z</time></trkpt><trkpt lat="43.11882206631304" lon="12.175233834265656"><ele>318.5</ele><time>2026-05-02T09:30:16Z</time></trkpt><trkpt lat="43.11889590418196" lon="12.175319545761676"><ele>320.3333333333333</ele><time>2026-05-02T09:30:19Z</time></trkpt><trkpt lat="43.11897007970412" lon="12.175324463021552"><ele>322.1666666666667</ele><time>2026-05-02T09:30:21Z</time></trkpt><trkpt lat="43.11903480461743" lon="12.175341778702263"><ele>324.0</ele><time>2026-05-02T09:30:24Z</time></trkpt><trkpt lat="43.11913808052429" lon="12.17538196710353"><ele>326.1666666666667</ele><time>2026-05-02T09:30:26Z</time></trkpt><trkpt lat="43.11920758496316" lon="12.175406975193118"><ele>328.3333333333333</ele><time>2026-05-02T09:30:28Z</time></trkpt><trkpt lat="43.11929093306022" lon="12.17544002239809"><ele>330.5</ele><time>2026-05-02T09:30:30Z</time></trkpt><trkpt lat="43.11935412303179" lon="12.175464209027849"><ele>332.66666666666663</ele><time>2026-05-02T09:30:45.999Z</time></trkpt><trkpt lat="43.11941824244636" lon="12.175473552242265"><ele>334.8333333333333</ele><time>2026-05-02T09:30:47.999Z</time></trkpt><trkpt lat="43.11950911065964" lon="12.175495724693066"><ele>337.0</ele><time>2026-05-02T09:30:49.999Z</time></trkpt><trkpt lat="43.119583083502214" lon="12.17551321243224"><ele>337.00000000000006</ele><time>2026-05-02T09:30:51.999Z</time></trkpt><trkpt lat="43.1196534063813" lon="12.175537909475464"><ele>337.0</ele><time>2026-05-02T09:30:53.999Z</time></trkpt><trkpt lat="43.119733014063826" lon="12.175554903882299"><ele>337.0</ele><time>2026-05-02T09:30:55.999Z</time></trkpt><trkpt lat="43.11980719218586" lon="12.175555005746094"><ele>337.0</ele><time>2026-05-02T09:30:57.999Z</time></trkpt><trkpt lat="43.11987820626854" lon="12.175545868423802"><ele>337.0</ele><time>2026-05-02T09:31:00.999Z</time></trkpt><trkpt lat="43.11994607179584" lon="12.175584218991222"><ele>337.00000000000006</ele><time>2026-05-02T09:31:13.999Z</time></trkpt><trkpt lat="43.120019867193264" lon="12.175593939390188"><ele>337.0</ele><time>2026-05-02T09:31:15.999Z</time></trkpt><trkpt lat="43.12009916623518" lon="12.1756215730431"><ele>338.3333333333333</ele><time>2026-05-02T09:31:18.999Z</time></trkpt><trkpt lat="43.120188728765164" lon="12.175656715718539"><ele>339.66666666666663</ele><time>2026-05-02T09:31:20.999Z</time></trkpt><trkpt lat="43.1202543654911" lon="12.175693473440912"><ele>341.0</ele><time>2026-05-02T09:31:29Z</time></trkpt><trkpt lat="43.12031937738354" lon="12.175703180581072"><ele>342.3333333333333</ele><time>2026-05-02T09:31:36Z</time></trkpt><trkpt lat="43.120392249859265" lon="12.175718666610566"><ele>343.6666666666667</ele><time>2026-05-02T09:31:53Z</time></trkpt><trkpt lat="43.12047073115316" lon="12.175734824797418"><ele>345.0</ele><time>2026-05-02T09:31:55Z</time></trkpt><trkpt lat="43.12057123782119" lon="12.175757104422193"><ele>346.1666666666667</ele><time>2026-05-02T09:31:58Z</time></trkpt><trkpt lat="43.12066187999922" lon="12.175789835393958"><ele>347.3333333333333</ele><time>2026-05-02T09:32:00Z</time></trkpt><trkpt lat="43.12073633498567" lon="12.175838245403641"><ele>348.5</ele><time>2026-05-02T09:32:02Z</time></trkpt><trkpt lat="43.12080502142185" lon="12.175866173025456"><ele>349.66666666666663</ele><time>2026-05-02T09:32:04Z</time></trkpt><trkpt lat="43.120873947078714" lon="12.175868680962788"><ele>350.8333333333333</ele><time>2026-05-02T09:32:06Z</time></trkpt><trkpt lat="43.120941900680066" lon="12.17589596048464"><ele>352.0</ele><time>2026-05-02T09:32:08Z</time></trkpt><trkpt lat="43.12101740438831" lon="12.17591133310408"><ele>354.66666666666663</ele><time>2026-05-02T09:32:10Z</time></trkpt><trkpt lat="43.12109083292597" lon="12.175956875772734"><ele>357.3333333333333</ele><time>2026-05-02T09:32:26Z</time></trkpt><trkpt lat="43.12117137023616" lon="12.175962996236164"><ele>360.0</ele><time>2026-05-02T09:32:28Z</time></trkpt><trkpt lat="43.121264242441804" lon="12.176000506711668"><ele>362.6666666666667</ele><time>2026-05-02T09:32:31Z</time></trkpt><trkpt lat="43.1213331543822" lon="12.176036605443185"><ele>365.33333333333337</ele><time>2026-05-02T09:32:33Z</time></trkpt><trkpt lat="43.121397180173965" lon="12.176059017022839"><ele>368.0</ele><time>2026-05-02T09:32:35Z</time></trkpt><trkpt lat="43.12147426364537" lon="12.176127264836417"><ele>368.0</ele><time>2026-05-02T09:32:38Z</time></trkpt><trkpt lat="43.12156398210926" lon="12.176169938075907"><ele>368.0</ele><time>2026-05-02T09:32:55.999Z</time></trkpt><trkpt lat="43.12163863524603" lon="12.176204834220663"><ele>368.0</ele><time>2026-05-02T09:32:57.999Z</time></trkpt><trkpt lat="43.12172006206128" lon="12.176280492895705"><ele>368.0</ele><time>2026-05-02T09:32:59.999Z</time></trkpt><trkpt lat="43.121830001762206" lon="12.176352559106181"><ele>368.0</ele><time>2026-05-02T09:33:01.999Z</time></trkpt><trkpt lat="43.121936635296656" lon="12.176367058717451"><ele>370.33333333333337</ele><time>2026-05-02T09:33:03.999Z</time></trkpt><trkpt lat="43.12202407302126" lon="12.176377467633053"><ele>372.6666666666667</ele><time>2026-05-02T09:33:05.999Z</time></trkpt><trkpt lat="43.12211727528976" lon="12.17635207272462"><ele>375.0</ele><time>2026-05-02T09:33:08.999Z</time></trkpt><trkpt lat="43.12219164808888" lon="12.176364551864115"><ele>377.3333333333333</ele><time>2026-05-02T09:33:17.999Z</time></trkpt><trkpt lat="43.12228689568095" lon="12.1763834926271"><ele>379.66666666666663</ele><time>2026-05-02T09:33:19.999Z</time></trkpt><trkpt lat="43.12236227349101" lon="12.176392869875935"><ele>382.0</ele><time>2026-05-02T09:33:21.999Z</time></trkpt><trkpt lat="43.1224334435595" lon="12.17637923098884"><ele>383.8333333333333</ele><time>2026-05-02T09:33:23.999Z</time></trkpt><trkpt lat="43.12251608882645" lon="12.176386122819592"><ele>385.66666666666663</ele><time>2026-05-02T09:33:25.999Z</time></trkpt><trkpt lat="43.122611585326325" lon="12.176440724303072"><ele>387.5</ele><time>2026-05-02T09:33:27.999Z</time></trkpt><trkpt lat="43.12268397745275" lon="12.176513017429277"><ele>389.3333333333333</ele><time>2026-05-02T09:33:29.999Z</time></trkpt><trkpt lat="43.12278060471019" lon="12.176529985200606"><ele>391.1666666666667</ele><time>2026-05-02T09:33:33Z</time></trkpt><trkpt lat="43.12284835411471" lon="12.1765340550654"><ele>393.0</ele><time>2026-05-02T09:33:35Z</time></trkpt><trkpt lat="43.12291830573461" lon="12.176539177544875"><ele>393.1666666666667</ele><time>2026-05-02T09:33:42Z</time></trkpt><trkpt lat="43.12302778816924" lon="12.1765658190802"><ele>393.33333333333337</ele><time>2026-05-02T09:33:45Z</time></trkpt><trkpt lat="43.123106802014505" lon="12.176562473213169"><ele>393.5</ele><time>2026-05-02T09:33:47Z</time></trkpt><trkpt lat="43.123179300408026" lon="12.176533622823865"><ele>393.6666666666667</ele><time>2026-05-02T09:33:49Z</time></trkpt><trkpt lat="43.12324980842296" lon="12.176509320999441"><ele>393.83333333333337</ele><time>2026-05-02T09:33:51Z</time></trkpt><trkpt lat="43.12333027516586" lon="12.176510992606245"><ele>394.0</ele><time>2026-05-02T09:33:53Z</time></trkpt><trkpt lat="43.12339854644248" lon="12.176467394489457"><ele>395.83333333333337</ele><time>2026-05-02T09:33:55Z</time></trkpt><trkpt lat="43.12347125528933" lon="12.17648030658566"><ele>397.6666666666667</ele><time>2026-05-02T09:33:58Z</time></trkpt><trkpt lat="43.12354824295411" lon="12.17656587054588"><ele>399.5</ele><time>2026-05-02T09:34:08Z</time></trkpt><trkpt lat="43.123617808333165" lon="12.17661322830547"><ele>401.33333333333337</ele><time>2026-05-02T09:34:10Z</time></trkpt><trkpt lat="43.12369173942771" lon="12.176643476672503"><ele>403.1666666666667</ele><time>2026-05-02T09:34:12Z</time></trkpt><trkpt lat="43.123784639744486" lon="12.176664588333972"><ele>405.0</ele><time>2026-05-02T09:34:14Z</time></trkpt><trkpt lat="43.123875154553325" lon="12.17670143067436"><ele>405.6</ele><time>2026-05-02T09:34:16Z</time></trkpt><trkpt lat="43.1239679369952" lon="12.176726383922263"><ele>406.2</ele><time>2026-05-02T09:34:18Z</time></trkpt><trkpt lat="43.124047045087615" lon="12.176765126612079"><ele>406.79999999999995</ele><time>2026-05-02T09:34:20Z</time></trkpt><trkpt lat="43.12414683738346" lon="12.176766535750557"><ele>407.4</ele><time>2026-05-02T09:34:22Z</time></trkpt><trkpt lat="43.12421119830429" lon="12.176691251841758"><ele>408.0</ele><time>2026-05-02T09:34:24Z</time></trkpt><trkpt lat="43.12424678414592" lon="12.17654800202669"><ele>408.1666666666667</ele><time>2026-05-02T09:34:26Z</time></trkpt><trkpt lat="43.124262369714884" lon="12.176435120454961"><ele>408.33333333333337</ele><time>2026-05-02T09:34:28Z</time></trkpt><trkpt lat="43.12432827450963" lon="12.176424004212425"><ele>408.5</ele><time>2026-05-02T09:34:30Z</time></trkpt><trkpt lat="43.12438966703826" lon="12.1764865707363"><ele>408.6666666666667</ele><time>2026-05-02T09:34:32Z</time></trkpt><trkpt lat="43.124474504993714" lon="12.176525851039571"><ele>408.83333333333337</ele><time>2026-05-02T09:34:35Z</time></trkpt><trkpt lat="43.12453297759992" lon="12.176563516997106"><ele>409.0</ele><time>2026-05-02T09:34:37Z</time></trkpt><trkpt lat="43.12459834126675" lon="12.17660055012178"><ele>409.6</ele><time>2026-05-02T09:34:39Z</time></trkpt><trkpt lat="43.124676060304076" lon="12.176638107259777"><ele>410.2</ele><time>2026-05-02T09:34:41Z</time></trkpt><trkpt lat="43.12476538764119" lon="12.176685506185576"><ele>410.8</ele><time>2026-05-02T09:34:43Z</time></trkpt><trkpt lat="43.124878122625496" lon="12.176741315146366"><ele>411.40000000000003</ele><time>2026-05-02T09:34:45Z</time></trkpt><trkpt lat="43.12499344614807" lon="12.176808465628207"><ele>412.0</ele><time>2026-05-02T09:34:46.999Z</time></trkpt><trkpt lat="43.125053716811834" lon="12.176842101656007"><ele>410.6666666666667</ele><time>2026-05-02T09:34:47.999Z</time></trkpt><trkpt lat="43.125119939637145" lon="12.176874401516741"><ele>409.33333333333337</ele><time>2026-05-02T09:34:48.999Z</time></trkpt><trkpt lat="43.12519321228612" lon="12.17690020446774"><ele>408.0</ele><time>2026-05-02T09:34:49.999Z</time></trkpt><trkpt lat="43.12526707070805" lon="12.176931719639464"><ele>406.66666666666663</ele><time>2026-05-02T09:34:50.999Z</time></trkpt><trkpt lat="43.12534450040799" lon="12.17696823813808"><ele>405.3333333333333</ele><time>2026-05-02T09:34:51.999Z</time></trkpt><trkpt lat="43.12542008086181" lon="12.17700280173086"><ele>404.0</ele><time>2026-05-02T09:34:52.999Z</time></trkpt><trkpt lat="43.125497939120734" lon="12.177036046001527"><ele>404.0</ele><time>2026-05-02T09:34:53.999Z</time></trkpt><trkpt lat="43.125571330310564" lon="12.177078968136405"><ele>404.0</ele><time>2026-05-02T09:34:54.999Z</time></trkpt><trkpt lat="43.12564676432847" lon="12.17712330615067"><ele>404.0</ele><time>2026-05-02T09:34:55.999Z</time></trkpt><trkpt lat="43.12571778565617" lon="12.177163027458956"><ele>404.0</ele><time>2026-05-02T09:34:56.999Z</time></trkpt><trkpt lat="43.12582719418585" lon="12.17722233194732"><ele>404.0</ele><time>2026-05-02T09:34:58.999Z</time></trkpt><trkpt lat="43.12594986529073" lon="12.177248124995037"><ele>399.75</ele><time>2026-05-02T09:35:00.999Z</time></trkpt><trkpt lat="43.12606859634122" lon="12.177282123658864"><ele>395.5</ele><time>2026-05-02T09:35:02.999Z</time></trkpt><trkpt lat="43.126185791513464" lon="12.17730735542715"><ele>391.25</ele><time>2026-05-02T09:35:04.999Z</time></trkpt><trkpt lat="43.12629637671398" lon="12.177356390968527"><ele>387.0</ele><time>2026-05-02T09:35:06.999Z</time></trkpt><trkpt lat="43.126406896192734" lon="12.17738124094137"><ele>386.6</ele><time>2026-05-02T09:35:08.999Z</time></trkpt><trkpt lat="43.126524874213736" lon="12.177384637582824"><ele>386.20000000000005</ele><time>2026-05-02T09:35:10.999Z</time></trkpt><trkpt lat="43.12663496658777" lon="12.177371413754294"><ele>385.8</ele><time>2026-05-02T09:35:12.999Z</time></trkpt><trkpt lat="43.12672896370056" lon="12.177375392276671"><ele>385.4</ele><time>2026-05-02T09:35:14.999Z</time></trkpt><trkpt lat="43.126831695849425" lon="12.177375336984698"><ele>385.0</ele><time>2026-05-02T09:35:16.999Z</time></trkpt><trkpt lat="43.12691430001577" lon="12.177390181367517"><ele>383.33333333333337</ele><time>2026-05-02T09:35:18.999Z</time></trkpt><trkpt lat="43.126986636636325" lon="12.17737273385354"><ele>381.6666666666667</ele><time>2026-05-02T09:36:03Z</time></trkpt><trkpt lat="43.127045492935785" lon="12.177429611762403"><ele>380.0</ele><time>2026-05-02T09:36:08Z</time></trkpt><trkpt lat="43.127011087457475" lon="12.177512889705424"><ele>378.33333333333337</ele><time>2026-05-02T09:36:11Z</time></trkpt><trkpt lat="43.12697839000379" lon="12.177599459289087"><ele>376.6666666666667</ele><time>2026-05-02T09:36:15Z</time></trkpt><trkpt lat="43.12689807756249" lon="12.177681925248889"><ele>375.0</ele><time>2026-05-02T09:36:17Z</time></trkpt><trkpt lat="43.126848385107486" lon="12.177746946923257"><ele>375.0</ele><time>2026-05-02T09:36:18Z</time></trkpt><trkpt lat="43.12678389716691" lon="12.177805469248394"><ele>375.0</ele><time>2026-05-02T09:36:19Z</time></trkpt><trkpt lat="43.126706851729594" lon="12.177853421028145"><ele>375.0</ele><time>2026-05-02T09:36:20Z</time></trkpt><trkpt lat="43.12662427484347" lon="12.177877331001303"><ele>375.0</ele><time>2026-05-02T09:36:21Z</time></trkpt><trkpt lat="43.12653341433069" lon="12.177894878737172"><ele>375.0</ele><time>2026-05-02T09:36:22Z</time></trkpt><trkpt lat="43.12644403128313" lon="12.177898797428513"><ele>375.0</ele><time>2026-05-02T09:36:23Z</time></trkpt><trkpt lat="43.12636043207851" lon="12.177896417357571"><ele>377.0</ele><time>2026-05-02T09:36:24Z</time></trkpt><trkpt lat="43.126278978786246" lon="12.177889035566189"><ele>379.0</ele><time>2026-05-02T09:36:25Z</time></trkpt><trkpt lat="43.12619040581005" lon="12.177893938530124"><ele>381.0</ele><time>2026-05-02T09:36:26Z</time></trkpt><trkpt lat="43.126097603998744" lon="12.177906370519006"><ele>383.0</ele><time>2026-05-02T09:36:27Z</time></trkpt><trkpt lat="43.125998149692094" lon="12.177917792712677"><ele>385.0</ele><time>2026-05-02T09:36:28Z</time></trkpt><trkpt lat="43.12589587439171" lon="12.17792631610419"><ele>385.0</ele><time>2026-05-02T09:36:29Z</time></trkpt><trkpt lat="43.12579452818564" lon="12.177939539568275"><ele>385.0</ele><time>2026-05-02T09:36:30Z</time></trkpt><trkpt lat="43.12569749024733" lon="12.177954134019028"><ele>385.0</ele><time>2026-05-02T09:36:31Z</time></trkpt><trkpt lat="43.12561091820061" lon="12.177973605530239"><ele>385.0</ele><time>2026-05-02T09:36:32Z</time></trkpt><trkpt lat="43.12552350811155" lon="12.178001111636142"><ele>385.0</ele><time>2026-05-02T09:36:33Z</time></trkpt><trkpt lat="43.12545129611916" lon="12.178044000814626"><ele>384.50000000000006</ele><time>2026-05-02T09:36:34Z</time></trkpt><trkpt lat="43.12539672735311" lon="12.178099299999943"><ele>384.0</ele><time>2026-05-02T09:36:35Z</time></trkpt><trkpt lat="43.12534564444302" lon="12.178156451613276"><ele>383.5</ele><time>2026-05-02T09:36:36Z</time></trkpt><trkpt lat="43.125300034285296" lon="12.178235862642095"><ele>383.0</ele><time>2026-05-02T09:36:37Z</time></trkpt><trkpt lat="43.125247193393406" lon="12.178326578049019"><ele>382.5</ele><time>2026-05-02T09:36:38Z</time></trkpt><trkpt lat="43.12517371875622" lon="12.178388052398438"><ele>382.0</ele><time>2026-05-02T09:36:39Z</time></trkpt><trkpt lat="43.12510613586065" lon="12.178490845855526"><ele>382.0</ele><time>2026-05-02T09:36:40Z</time></trkpt><trkpt lat="43.1250338049885" lon="12.178632092335267"><ele>382.0</ele><time>2026-05-02T09:36:42Z</time></trkpt><trkpt lat="43.1249811296139" lon="12.178693405516839"><ele>382.0</ele><time>2026-05-02T09:36:43Z</time></trkpt><trkpt lat="43.1249289883154" lon="12.178748242481095"><ele>382.0</ele><time>2026-05-02T09:36:44Z</time></trkpt><trkpt lat="43.12481236497111" lon="12.178825191932079"><ele>382.0</ele><time>2026-05-02T09:36:45.999Z</time></trkpt><trkpt lat="43.12479303499111" lon="12.17899612095573"><ele>381.0</ele><time>2026-05-02T09:36:46.999Z</time></trkpt><trkpt lat="43.12477886015007" lon="12.179106979609054"><ele>380.0</ele><time>2026-05-02T09:36:47.999Z</time></trkpt><trkpt lat="43.12476962061716" lon="12.179200929784074"><ele>379.0</ele><time>2026-05-02T09:36:48.999Z</time></trkpt><trkpt lat="43.12475475602105" lon="12.179297377778614"><ele>378.0</ele><time>2026-05-02T09:36:49.999Z</time></trkpt><trkpt lat="43.12474169677691" lon="12.179403643067838"><ele>377.0</ele><time>2026-05-02T09:36:50.999Z</time></trkpt><trkpt lat="43.12473435897723" lon="12.179516684628716"><ele>376.0</ele><time>2026-05-02T09:36:51.999Z</time></trkpt><trkpt lat="43.12472705153847" lon="12.179638215534476"><ele>376.0</ele><time>2026-05-02T09:36:52.999Z</time></trkpt><trkpt lat="43.12471758022682" lon="12.17976186196568"><ele>376.0</ele><time>2026-05-02T09:36:53.999Z</time></trkpt><trkpt lat="43.124708354211464" lon="12.179889127223195"><ele>376.0</ele><time>2026-05-02T09:36:54.999Z</time></trkpt><trkpt lat="43.12470436907683" lon="12.180013605464241"><ele>376.0</ele><time>2026-05-02T09:36:55.999Z</time></trkpt><trkpt lat="43.1246972125474" lon="12.180140679488813"><ele>376.0</ele><time>2026-05-02T09:36:56.999Z</time></trkpt><trkpt lat="43.12468348089172" lon="12.180269403418746"><ele>377.6</ele><time>2026-05-02T09:36:57.999Z</time></trkpt><trkpt lat="43.12466422471676" lon="12.180408454667798"><ele>379.20000000000005</ele><time>2026-05-02T09:36:58.999Z</time></trkpt><trkpt lat="43.124649932894165" lon="12.180538242863987"><ele>380.79999999999995</ele><time>2026-05-02T09:36:59.999Z</time></trkpt><trkpt lat="43.124624241916514" lon="12.180647332888254"><ele>382.4</ele><time>2026-05-02T09:37:00.999Z</time></trkpt><trkpt lat="43.124632498251565" lon="12.180741438542247"><ele>384.0</ele><time>2026-05-02T09:37:01.999Z</time></trkpt><trkpt lat="43.12463185830772" lon="12.180929657186889"><ele>384.0</ele><time>2026-05-02T09:37:03.999Z</time></trkpt><trkpt lat="43.1246430752577" lon="12.18104742338157"><ele>384.0</ele><time>2026-05-02T09:37:04.999Z</time></trkpt><trkpt lat="43.124658039290615" lon="12.181159311449179"><ele>384.0</ele><time>2026-05-02T09:37:05.999Z</time></trkpt><trkpt lat="43.1246808588587" lon="12.18127363584719"><ele>384.0</ele><time>2026-05-02T09:37:06.999Z</time></trkpt><trkpt lat="43.12470165799483" lon="12.181393301800961"><ele>384.0</ele><time>2026-05-02T09:37:07.999Z</time></trkpt><trkpt lat="43.12471394086347" lon="12.181517050179648"><ele>384.0</ele><time>2026-05-02T09:37:08.999Z</time></trkpt><trkpt lat="43.12470487116059" lon="12.181640387059716"><ele>383.1666666666667</ele><time>2026-05-02T09:37:09.999Z</time></trkpt><trkpt lat="43.12470282362784" lon="12.18175590864771"><ele>382.3333333333333</ele><time>2026-05-02T09:37:10.999Z</time></trkpt><trkpt lat="43.12470033559045" lon="12.18186882750466"><ele>381.5</ele><time>2026-05-02T09:37:11.999Z</time></trkpt><trkpt lat="43.12469809084853" lon="12.181970706596461"><ele>380.66666666666663</ele><time>2026-05-02T09:37:12.999Z</time></trkpt><trkpt lat="43.124696086509374" lon="12.182061674875225"><ele>379.8333333333333</ele><time>2026-05-02T09:37:13.999Z</time></trkpt><trkpt lat="43.1246939728547" lon="12.182157604502702"><ele>379.0</ele><time>2026-05-02T09:37:14.999Z</time></trkpt><trkpt lat="43.124770361861145" lon="12.182256392366199"><ele>380.5</ele><time>2026-05-02T09:37:15.999Z</time></trkpt><trkpt lat="43.12477159674672" lon="12.182349795320487"><ele>382.0</ele><time>2026-05-02T09:37:16.999Z</time></trkpt><trkpt lat="43.124752715749345" lon="12.182442323632745"><ele>383.5</ele><time>2026-05-02T09:37:17.999Z</time></trkpt><trkpt lat="43.124709180158355" lon="12.182539035791674"><ele>385.0</ele><time>2026-05-02T09:37:18.999Z</time></trkpt><trkpt lat="43.12465235124664" lon="12.182620754724207"><ele>386.50000000000006</ele><time>2026-05-02T09:37:19.999Z</time></trkpt><trkpt lat="43.12459450213407" lon="12.182697912255984"><ele>388.0</ele><time>2026-05-02T09:37:20.999Z</time></trkpt><trkpt lat="43.124533131579675" lon="12.182753885863237"><ele>388.0</ele><time>2026-05-02T09:37:21.999Z</time></trkpt><trkpt lat="43.12446054944466" lon="12.182790319074446"><ele>388.0</ele><time>2026-05-02T09:37:22.999Z</time></trkpt><trkpt lat="43.12438490772025" lon="12.182818532664385"><ele>388.0</ele><time>2026-05-02T09:37:23.999Z</time></trkpt><trkpt lat="43.124315935762866" lon="12.182843775826692"><ele>388.0</ele><time>2026-05-02T09:37:24.999Z</time></trkpt><trkpt lat="43.124248040258585" lon="12.182863088712413"><ele>388.0</ele><time>2026-05-02T09:37:25.999Z</time></trkpt><trkpt lat="43.12418641167764" lon="12.182886522221498"><ele>388.0</ele><time>2026-05-02T09:37:26.999Z</time></trkpt><trkpt lat="43.12412246342439" lon="12.18292341416906"><ele>388.0</ele><time>2026-05-02T09:37:27.999Z</time></trkpt><trkpt lat="43.124069437264936" lon="12.182974793762709"><ele>388.00000000000006</ele><time>2026-05-02T09:37:28.999Z</time></trkpt><trkpt lat="43.12399414463486" lon="12.183056187680407"><ele>388.0</ele><time>2026-05-02T09:37:30.999Z</time></trkpt><trkpt lat="43.123910579353314" lon="12.183037932159438"><ele>388.0</ele><time>2026-05-02T09:37:33.999Z</time></trkpt><trkpt lat="43.12384681346913" lon="12.183025403322453"><ele>388.0</ele><time>2026-05-02T09:37:36.999Z</time></trkpt><trkpt lat="43.12372205296779" lon="12.183025305101157"><ele>388.00000000000006</ele><time>2026-05-02T09:37:54Z</time></trkpt><trkpt lat="43.123658743024116" lon="12.183041251896393"><ele>388.0</ele><time>2026-05-02T09:37:55Z</time></trkpt><trkpt lat="43.123595664543565" lon="12.183092189255028"><ele>388.0</ele><time>2026-05-02T09:37:56Z</time></trkpt><trkpt lat="43.12355394747348" lon="12.183167092329931"><ele>388.0</ele><time>2026-05-02T09:37:57Z</time></trkpt><trkpt lat="43.123527286910715" lon="12.183264947980375"><ele>388.0</ele><time>2026-05-02T09:37:58Z</time></trkpt><trkpt lat="43.123459816560704" lon="12.18338692215721"><ele>388.0</ele><time>2026-05-02T09:38:00Z</time></trkpt><trkpt lat="43.12337679473415" lon="12.183467879200723"><ele>388.0</ele><time>2026-05-02T09:38:02Z</time></trkpt><trkpt lat="43.123368210044625" lon="12.183606390310228"><ele>388.6666666666667</ele><time>2026-05-02T09:38:04Z</time></trkpt><trkpt lat="43.12332162248351" lon="12.183687970807167"><ele>389.33333333333337</ele><time>2026-05-02T09:38:06Z</time></trkpt><trkpt lat="43.1232506630725" lon="12.183697000292529"><ele>390.0</ele><time>2026-05-02T09:38:07Z</time></trkpt><trkpt lat="43.12315520037115" lon="12.183702592809793"><ele>390.66666666666663</ele><time>2026-05-02T09:38:08Z</time></trkpt><trkpt lat="43.12308201238348" lon="12.183756621499526"><ele>391.3333333333333</ele><time>2026-05-02T09:38:09Z</time></trkpt><trkpt lat="43.12302604244375" lon="12.183804396105307"><ele>392.0</ele><time>2026-05-02T09:38:10Z</time></trkpt><trkpt lat="43.122917116673264" lon="12.183831140404942"><ele>391.99999999999994</ele><time>2026-05-02T09:38:12Z</time></trkpt><trkpt lat="43.1228259117657" lon="12.18384406969766"><ele>392.0</ele><time>2026-05-02T09:38:14Z</time></trkpt><trkpt lat="43.12275517493588" lon="12.183864353783258"><ele>392.0</ele><time>2026-05-02T09:38:16Z</time></trkpt><trkpt lat="43.122690374578994" lon="12.183888135502517"><ele>392.0</ele><time>2026-05-02T09:38:18Z</time></trkpt><trkpt lat="43.12262478096633" lon="12.183905565677444"><ele>391.99999999999994</ele><time>2026-05-02T09:38:21Z</time></trkpt><trkpt lat="43.12252761185603" lon="12.183934260640298"><ele>392.0</ele><time>2026-05-02T09:38:23Z</time></trkpt><trkpt lat="43.12243651501142" lon="12.183972300105726"><ele>394.6</ele><time>2026-05-02T09:38:25Z</time></trkpt><trkpt lat="43.122344571409805" lon="12.184065416503255"><ele>397.20000000000005</ele><time>2026-05-02T09:38:27Z</time></trkpt><trkpt lat="43.12225050356123" lon="12.18418340736132"><ele>399.8</ele><time>2026-05-02T09:38:29Z</time></trkpt><trkpt lat="43.12220046178032" lon="12.184245101493435"><ele>402.4</ele><time>2026-05-02T09:38:30Z</time></trkpt><trkpt lat="43.1221524521793" lon="12.184312906429273"><ele>405.0</ele><time>2026-05-02T09:38:31Z</time></trkpt><trkpt lat="43.12210996609684" lon="12.184391703993485"><ele>405.0</ele><time>2026-05-02T09:38:32Z</time></trkpt><trkpt lat="43.122067479936035" lon="12.184487181464087"><ele>405.0</ele><time>2026-05-02T09:38:33Z</time></trkpt><trkpt lat="43.12203532409396" lon="12.184575842160614"><ele>405.0</ele><time>2026-05-02T09:38:34Z</time></trkpt><trkpt lat="43.12202341509228" lon="12.1846806087137"><ele>405.0</ele><time>2026-05-02T09:38:35Z</time></trkpt><trkpt lat="43.121993227163856" lon="12.184812149131435"><ele>405.0</ele><time>2026-05-02T09:38:36Z</time></trkpt><trkpt lat="43.12197323017682" lon="12.184896782560324"><ele>405.0</ele><time>2026-05-02T09:38:37Z</time></trkpt><trkpt lat="43.12192021319113" lon="12.185031599961773"><ele>405.0</ele><time>2026-05-02T09:38:39Z</time></trkpt><trkpt lat="43.121839467512736" lon="12.185132338949696"><ele>405.0</ele><time>2026-05-02T09:38:41Z</time></trkpt><trkpt lat="43.12178404550749" lon="12.185177883265233"><ele>405.0</ele><time>2026-05-02T09:38:42Z</time></trkpt><trkpt lat="43.12168900125379" lon="12.185271991044498"><ele>405.0</ele><time>2026-05-02T09:38:44Z</time></trkpt><trkpt lat="43.12159005478024" lon="12.185346101625592"><ele>405.0</ele><time>2026-05-02T09:38:46Z</time></trkpt><trkpt lat="43.1215013423816" lon="12.185432773174727"><ele>404.2</ele><time>2026-05-02T09:38:48Z</time></trkpt><trkpt lat="43.121429032695325" lon="12.185521802102894"><ele>403.4</ele><time>2026-05-02T09:38:50Z</time></trkpt><trkpt lat="43.12134303793525" lon="12.185596334482884"><ele>402.6</ele><time>2026-05-02T09:38:52Z</time></trkpt><trkpt lat="43.12125217380259" lon="12.185668142908382"><ele>401.8</ele><time>2026-05-02T09:38:53.999Z</time></trkpt><trkpt lat="43.12120218823124" lon="12.185736105626276"><ele>401.0</ele><time>2026-05-02T09:38:56.999Z</time></trkpt><trkpt lat="43.12112457696342" lon="12.185829441557148"><ele>400.99999999999994</ele><time>2026-05-02T09:38:57.999Z</time></trkpt><trkpt lat="43.121081078204696" lon="12.185900884113128"><ele>401.0</ele><time>2026-05-02T09:39:01.999Z</time></trkpt><trkpt lat="43.12108845902126" lon="12.186014534817703"><ele>401.0</ele><time>2026-05-02T09:39:19.999Z</time></trkpt><trkpt lat="43.12107575594876" lon="12.18611903932549"><ele>401.0</ele><time>2026-05-02T09:39:22.999Z</time></trkpt><trkpt lat="43.121049990029995" lon="12.186226044355534"><ele>400.99999999999994</ele><time>2026-05-02T09:39:25.999Z</time></trkpt><trkpt lat="43.12104033719382" lon="12.186329558429984"><ele>401.0</ele><time>2026-05-02T09:39:29.999Z</time></trkpt><trkpt lat="43.120992643859445" lon="12.18639806085488"><ele>401.0</ele><time>2026-05-02T09:39:33.999Z</time></trkpt><trkpt lat="43.12093987958065" lon="12.186471582916093"><ele>401.0</ele><time>2026-05-02T09:39:36.999Z</time></trkpt><trkpt lat="43.120903479848096" lon="12.186564722942553"><ele>401.0</ele><time>2026-05-02T09:40:08Z</time></trkpt><trkpt lat="43.12089986457154" lon="12.186651297390242"><ele>401.0</ele><time>2026-05-02T09:40:11Z</time></trkpt><trkpt lat="43.12083028927905" lon="12.186703661426638"><ele>401.0</ele><time>2026-05-02T09:40:20Z</time></trkpt><trkpt lat="43.12078324467897" lon="12.186795114985651"><ele>401.0</ele><time>2026-05-02T09:40:25Z</time></trkpt><trkpt lat="43.12073028647528" lon="12.186857668025013"><ele>401.0</ele><time>2026-05-02T09:40:29Z</time></trkpt><trkpt lat="43.12066424294476" lon="12.186931916919635"><ele>399.6</ele><time>2026-05-02T09:40:41Z</time></trkpt><trkpt lat="43.120613251293825" lon="12.187016481064862"><ele>398.20000000000005</ele><time>2026-05-02T09:40:44Z</time></trkpt><trkpt lat="43.12054455298078" lon="12.1870410536916"><ele>396.79999999999995</ele><time>2026-05-02T09:40:46Z</time></trkpt><trkpt lat="43.120446811797144" lon="12.187112709895342"><ele>395.4</ele><time>2026-05-02T09:40:48Z</time></trkpt><trkpt lat="43.120344663885916" lon="12.187169409026257"><ele>394.0</ele><time>2026-05-02T09:40:50Z</time></trkpt><trkpt lat="43.120268483545296" lon="12.187199248400406"><ele>394.00000000000006</ele><time>2026-05-02T09:40:52Z</time></trkpt><trkpt lat="43.12018108466454" lon="12.18725999330181"><ele>394.0</ele><time>2026-05-02T09:40:54Z</time></trkpt><trkpt lat="43.12011887872122" lon="12.187338036606633"><ele>394.0</ele><time>2026-05-02T09:40:56Z</time></trkpt><trkpt lat="43.12003702629649" lon="12.187426146493602"><ele>394.0</ele><time>2026-05-02T09:40:58Z</time></trkpt><trkpt lat="43.11997093654827" lon="12.187482698860729"><ele>394.00000000000006</ele><time>2026-05-02T09:41:00Z</time></trkpt><trkpt lat="43.1199201435627" lon="12.187544569395158"><ele>394.0</ele><time>2026-05-02T09:41:07.999Z</time></trkpt><trkpt lat="43.11986016681568" lon="12.187593400212416"><ele>391.33333333333337</ele><time>2026-05-02T09:41:20.999Z</time></trkpt><trkpt lat="43.11977480296599" lon="12.187600587836878"><ele>388.6666666666667</ele><time>2026-05-02T09:41:23.999Z</time></trkpt><trkpt lat="43.119706084510284" lon="12.18765069086829"><ele>386.0</ele><time>2026-05-02T09:41:25.999Z</time></trkpt><trkpt lat="43.11964745363209" lon="12.187698831038086"><ele>383.33333333333337</ele><time>2026-05-02T09:41:27.999Z</time></trkpt><trkpt lat="43.11956293864026" lon="12.18771105836315"><ele>380.6666666666667</ele><time>2026-05-02T09:41:29.999Z</time></trkpt><trkpt lat="43.11949788491739" lon="12.187731198089411"><ele>378.0</ele><time>2026-05-02T09:41:32.999Z</time></trkpt><trkpt lat="43.11941805212188" lon="12.187808275929443"><ele>378.0</ele><time>2026-05-02T09:41:49.999Z</time></trkpt><trkpt lat="43.119328162807356" lon="12.1879102706018"><ele>378.0</ele><time>2026-05-02T09:41:51.999Z</time></trkpt><trkpt lat="43.11925010439008" lon="12.187969696708349"><ele>378.0</ele><time>2026-05-02T09:41:53.999Z</time></trkpt><trkpt lat="43.11918568391892" lon="12.188003937143208"><ele>378.0</ele><time>2026-05-02T09:41:56Z</time></trkpt><trkpt lat="43.119106175813265" lon="12.188057907635459"><ele>378.0</ele><time>2026-05-02T09:41:59Z</time></trkpt><trkpt lat="43.11906173506312" lon="12.188127031060914"><ele>378.0</ele><time>2026-05-02T09:42:01Z</time></trkpt><trkpt lat="43.11902181744758" lon="12.18821132455215"><ele>377.0</ele><time>2026-05-02T09:42:13Z</time></trkpt><trkpt lat="43.11899732930173" lon="12.188291645000117"><ele>376.0</ele><time>2026-05-02T09:42:24Z</time></trkpt><trkpt lat="43.11893234616378" lon="12.188375433331228"><ele>375.0</ele><time>2026-05-02T09:42:27Z</time></trkpt><trkpt lat="43.11886987018815" lon="12.188449222359202"><ele>374.0</ele><time>2026-05-02T09:42:29Z</time></trkpt><trkpt lat="43.11881554580955" lon="12.188534108164903"><ele>373.0</ele><time>2026-05-02T09:42:31Z</time></trkpt><trkpt lat="43.11876703602272" lon="12.188590350537188"><ele>372.0</ele><time>2026-05-02T09:42:33Z</time></trkpt><trkpt lat="43.11870550196065" lon="12.188642240901759"><ele>372.0</ele><time>2026-05-02T09:42:35Z</time></trkpt><trkpt lat="43.118642519907425" lon="12.188692876069021"><ele>372.0</ele><time>2026-05-02T09:42:37Z</time></trkpt><trkpt lat="43.11859106108928" lon="12.188751290600427"><ele>372.0</ele><time>2026-05-02T09:42:39Z</time></trkpt><trkpt lat="43.11853528474553" lon="12.188819088002896"><ele>372.0</ele><time>2026-05-02T09:42:41Z</time></trkpt><trkpt lat="43.118472218599834" lon="12.188890590753998"><ele>372.0</ele><time>2026-05-02T09:43:11.999Z</time></trkpt><trkpt lat="43.11838725092064" lon="12.188911960076409"><ele>372.0</ele><time>2026-05-02T09:43:13.999Z</time></trkpt><trkpt lat="43.118331716343974" lon="12.188986150775326"><ele>374.0</ele><time>2026-05-02T09:43:16.999Z</time></trkpt><trkpt lat="43.118369392875465" lon="12.189116713918096"><ele>376.0</ele><time>2026-05-02T09:43:19.999Z</time></trkpt><trkpt lat="43.118389157634205" lon="12.189221996170605"><ele>378.0</ele><time>2026-05-02T09:43:21.999Z</time></trkpt><trkpt lat="43.118398941308286" lon="12.189344385539496"><ele>380.0</ele><time>2026-05-02T09:43:25.999Z</time></trkpt><trkpt lat="43.118436484714465" lon="12.18942120323266"><ele>382.0</ele><time>2026-05-02T09:43:27.999Z</time></trkpt><trkpt lat="43.118425229935774" lon="12.189530104292626"><ele>384.0</ele><time>2026-05-02T09:43:30.999Z</time></trkpt><trkpt lat="43.11835151931421" lon="12.189588772632677"><ele>384.0</ele><time>2026-05-02T09:43:52.999Z</time></trkpt><trkpt lat="43.11828609353667" lon="12.189589120067849"><ele>384.0</ele><time>2026-05-02T09:43:53.999Z</time></trkpt><trkpt lat="43.11820561713112" lon="12.189577758471787"><ele>384.0</ele><time>2026-05-02T09:43:54.999Z</time></trkpt><trkpt lat="43.118113799416" lon="12.18964421324537"><ele>384.0</ele><time>2026-05-02T09:43:56.999Z</time></trkpt><trkpt lat="43.118078075223224" lon="12.189736433186667"><ele>384.0</ele><time>2026-05-02T09:43:57.999Z</time></trkpt><trkpt lat="43.118042464888774" lon="12.189836695351449"><ele>384.0</ele><time>2026-05-02T09:43:58.999Z</time></trkpt><trkpt lat="43.11796267377039" lon="12.189941705399423"><ele>382.2</ele><time>2026-05-02T09:44:01Z</time></trkpt><trkpt lat="43.11785213039363" lon="12.18997966589273"><ele>380.4</ele><time>2026-05-02T09:44:03Z</time></trkpt><trkpt lat="43.117742638527965" lon="12.189979723678578"><ele>378.6</ele><time>2026-05-02T09:44:05Z</time></trkpt><trkpt lat="43.11763278698659" lon="12.190013717319077"><ele>376.8</ele><time>2026-05-02T09:44:07Z</time></trkpt><trkpt lat="43.1175707512339" lon="12.190031308589163"><ele>375.0</ele><time>2026-05-02T09:44:08Z</time></trkpt><trkpt lat="43.11750493215465" lon="12.190031296946996"><ele>375.0</ele><time>2026-05-02T09:44:09Z</time></trkpt><trkpt lat="43.117440420900124" lon="12.190015141634115"><ele>375.0</ele><time>2026-05-02T09:44:10Z</time></trkpt><trkpt lat="43.117379154086095" lon="12.189991615576945"><ele>375.0</ele><time>2026-05-02T09:44:11Z</time></trkpt><trkpt lat="43.1173183933257" lon="12.189965484514444"><ele>375.0</ele><time>2026-05-02T09:44:12Z</time></trkpt><trkpt lat="43.11725721917218" lon="12.189942839819654"><ele>375.0</ele><time>2026-05-02T09:44:13Z</time></trkpt><trkpt lat="43.117192083617624" lon="12.189926994604347"><ele>375.0</ele><time>2026-05-02T09:44:14Z</time></trkpt><trkpt lat="43.11712496508912" lon="12.189908483643942"><ele>375.0</ele><time>2026-05-02T09:44:15Z</time></trkpt><trkpt lat="43.11705984032036" lon="12.18989396878795"><ele>372.8</ele><time>2026-05-02T09:44:16Z</time></trkpt><trkpt lat="43.116946215301425" lon="12.18994338090061"><ele>370.6</ele><time>2026-05-02T09:44:18Z</time></trkpt><trkpt lat="43.1169023159832" lon="12.190006874221833"><ele>368.4</ele><time>2026-05-02T09:44:19Z</time></trkpt><trkpt lat="43.11684074406933" lon="12.190152904031784"><ele>366.2</ele><time>2026-05-02T09:44:21Z</time></trkpt><trkpt lat="43.11675788991848" lon="12.190268176811438"><ele>364.0</ele><time>2026-05-02T09:44:23Z</time></trkpt><trkpt lat="43.1166547753731" lon="12.190352880718304"><ele>364.0</ele><time>2026-05-02T09:44:25Z</time></trkpt><trkpt lat="43.116575606036" lon="12.190427514003714"><ele>364.0</ele><time>2026-05-02T09:44:27Z</time></trkpt><trkpt lat="43.11653677524341" lon="12.190530332191319"><ele>364.0</ele><time>2026-05-02T09:44:44Z</time></trkpt><trkpt lat="43.11647886031528" lon="12.190607111645093"><ele>364.0</ele><time>2026-05-02T09:44:46Z</time></trkpt><trkpt lat="43.11641727218003" lon="12.190686744677096"><ele>364.0</ele><time>2026-05-02T09:44:48Z</time></trkpt><trkpt lat="43.11636771303213" lon="12.190820784135704"><ele>364.16666666666663</ele><time>2026-05-02T09:44:50Z</time></trkpt><trkpt lat="43.116335222839645" lon="12.190910523942613"><ele>364.3333333333333</ele><time>2026-05-02T09:44:51Z</time></trkpt><trkpt lat="43.116305873780036" lon="12.191021068123977"><ele>364.5</ele><time>2026-05-02T09:44:53Z</time></trkpt><trkpt lat="43.11624276628402" lon="12.191134636271006"><ele>364.6666666666667</ele><time>2026-05-02T09:45:02Z</time></trkpt><trkpt lat="43.116142977123204" lon="12.19121072553437"><ele>364.83333333333337</ele><time>2026-05-02T09:45:04Z</time></trkpt><trkpt lat="43.11609925898386" lon="12.19127478101852"><ele>365.0</ele><time>2026-05-02T09:45:05Z</time></trkpt><trkpt lat="43.11605868114427" lon="12.191341358725383"><ele>365.0</ele><time>2026-05-02T09:45:06Z</time></trkpt><trkpt lat="43.116026785694004" lon="12.191416901769035"><ele>365.0</ele><time>2026-05-02T09:45:07Z</time></trkpt><trkpt lat="43.11595842214597" lon="12.19155635850801"><ele>365.0</ele><time>2026-05-02T09:45:09Z</time></trkpt><trkpt lat="43.115903793409856" lon="12.191686298944035"><ele>365.0</ele><time>2026-05-02T09:45:11Z</time></trkpt><trkpt lat="43.11587827312074" lon="12.191825610394496"><ele>365.0</ele><time>2026-05-02T09:45:13Z</time></trkpt><trkpt lat="43.11586625806405" lon="12.191927146237171"><ele>363.6</ele><time>2026-05-02T09:45:14.999Z</time></trkpt><trkpt lat="43.11586395728432" lon="12.192047402566786"><ele>362.2</ele><time>2026-05-02T09:45:16.999Z</time></trkpt><trkpt lat="43.11574316350805" lon="12.192151151548243"><ele>360.79999999999995</ele><time>2026-05-02T09:45:18.999Z</time></trkpt><trkpt lat="43.115808804098606" lon="12.19226686993449"><ele>359.4</ele><time>2026-05-02T09:45:20.999Z</time></trkpt><trkpt lat="43.11575524470642" lon="12.192326275097018"><ele>358.0</ele><time>2026-05-02T09:45:23.999Z</time></trkpt><trkpt lat="43.11569191430878" lon="12.192396563208211"><ele>357.16666666666663</ele><time>2026-05-02T09:45:26.999Z</time></trkpt><trkpt lat="43.11563059895532" lon="12.192449852373185"><ele>356.3333333333333</ele><time>2026-05-02T09:46:26Z</time></trkpt><trkpt lat="43.11554872104046" lon="12.19249823268406"><ele>355.5</ele><time>2026-05-02T09:46:41Z</time></trkpt><trkpt lat="43.11547156310602" lon="12.1925436260392"><ele>354.6666666666667</ele><time>2026-05-02T09:46:42Z</time></trkpt><trkpt lat="43.1153988985672" lon="12.192586261742058"><ele>353.83333333333337</ele><time>2026-05-02T09:46:43Z</time></trkpt><trkpt lat="43.11533630313894" lon="12.19261025085087"><ele>353.0</ele><time>2026-05-02T09:46:44Z</time></trkpt><trkpt lat="43.11526760099507" lon="12.192618998207152"><ele>353.0</ele><time>2026-05-02T09:46:45Z</time></trkpt><trkpt lat="43.11520199518857" lon="12.192624672501493"><ele>353.0</ele><time>2026-05-02T09:46:46Z</time></trkpt><trkpt lat="43.11511289713571" lon="12.192729081448286"><ele>353.0</ele><time>2026-05-02T09:46:48Z</time></trkpt><trkpt lat="43.115082025476866" lon="12.19281634291234"><ele>353.0</ele><time>2026-05-02T09:46:49Z</time></trkpt><trkpt lat="43.11504742350806" lon="12.192908929473328"><ele>353.0</ele><time>2026-05-02T09:46:50Z</time></trkpt><trkpt lat="43.11499984959624" lon="12.192987712143971"><ele>353.0</ele><time>2026-05-02T09:46:52Z</time></trkpt><trkpt lat="43.114956330910054" lon="12.193095216918845"><ele>353.0</ele><time>2026-05-02T09:46:59Z</time></trkpt><trkpt lat="43.115010230764916" lon="12.192958862534194"><ele>353.0</ele><time>2026-05-02T09:47:06Z</time></trkpt><trkpt lat="43.11505176458526" lon="12.192867717934137"><ele>353.0</ele><time>2026-05-02T09:47:08Z</time></trkpt><trkpt lat="43.1150008318468" lon="12.192942782856468"><ele>353.0</ele><time>2026-05-02T09:47:11Z</time></trkpt><trkpt lat="43.114797924463254" lon="12.192801864720025"><ele>355.2</ele><time>2026-05-02T09:47:13Z</time></trkpt><trkpt lat="43.11467421571859" lon="12.192761878307959"><ele>357.4</ele><time>2026-05-02T09:47:15Z</time></trkpt><trkpt lat="43.114610854365665" lon="12.19278387888341"><ele>359.59999999999997</ele><time>2026-05-02T09:47:16Z</time></trkpt><trkpt lat="43.11454754125137" lon="12.192777319130457"><ele>361.79999999999995</ele><time>2026-05-02T09:47:17Z</time></trkpt><trkpt lat="43.1144253251202" lon="12.192760490326181"><ele>364.0</ele><time>2026-05-02T09:47:19Z</time></trkpt><trkpt lat="43.11435038923495" lon="12.192757330867954"><ele>364.0</ele><time>2026-05-02T09:47:20Z</time></trkpt><trkpt lat="43.11427227881701" lon="12.192753987032765"><ele>364.0</ele><time>2026-05-02T09:47:21Z</time></trkpt><trkpt lat="43.11418916180777" lon="12.192753527353744"><ele>364.0</ele><time>2026-05-02T09:47:22Z</time></trkpt><trkpt lat="43.11408557475497" lon="12.192739624024256"><ele>364.0</ele><time>2026-05-02T09:47:23.999Z</time></trkpt><trkpt lat="43.11401533654383" lon="12.192675234926602"><ele>364.0</ele><time>2026-05-02T09:47:25.999Z</time></trkpt><trkpt lat="43.11399001063461" lon="12.192590593423965"><ele>364.0</ele><time>2026-05-02T09:47:28.999Z</time></trkpt><trkpt lat="43.114031890809486" lon="12.192670851065161"><ele>364.0</ele><time>2026-05-02T09:47:57.999Z</time></trkpt><trkpt lat="43.114091171802706" lon="12.192713128368835"><ele>364.0</ele><time>2026-05-02T09:47:59.999Z</time></trkpt><trkpt lat="43.11417880697545" lon="12.192744141362232"><ele>364.0</ele><time>2026-05-02T09:48:01.999Z</time></trkpt><trkpt lat="43.11427591979969" lon="12.192748792643641"><ele>364.0</ele><time>2026-05-02T09:48:03.999Z</time></trkpt><trkpt lat="43.114376537151" lon="12.19274446114433"><ele>364.0</ele><time>2026-05-02T09:48:05.999Z</time></trkpt><trkpt lat="43.11448440218907" lon="12.192765366175673"><ele>364.0</ele><time>2026-05-02T09:48:07.999Z</time></trkpt><trkpt lat="43.114583079907675" lon="12.192773072391459"><ele>364.0</ele><time>2026-05-02T09:48:09.999Z</time></trkpt><trkpt lat="43.11469699920351" lon="12.192764667714664"><ele>364.0</ele><time>2026-05-02T09:48:12Z</time></trkpt><trkpt lat="43.11480598319973" lon="12.192773762811678"><ele>364.0</ele><time>2026-05-02T09:48:14Z</time></trkpt><trkpt lat="43.11488010977775" lon="12.192838539656492"><ele>364.0</ele><time>2026-05-02T09:48:16Z</time></trkpt><trkpt lat="43.114972397546516" lon="12.192874936957471"><ele>362.16666666666663</ele><time>2026-05-02T09:48:18Z</time></trkpt><trkpt lat="43.11504330515436" lon="12.19286955940098"><ele>360.3333333333333</ele><time>2026-05-02T09:48:20Z</time></trkpt><trkpt lat="43.11504325247062" lon="12.192969065719385"><ele>358.5</ele><time>2026-05-02T09:48:22Z</time></trkpt><trkpt lat="43.11499241857443" lon="12.193065016862324"><ele>356.6666666666667</ele><time>2026-05-02T09:48:24Z</time></trkpt><trkpt lat="43.11496221983675" lon="12.193149908841177"><ele>354.83333333333337</ele><time>2026-05-02T09:48:27Z</time></trkpt><trkpt lat="43.11503272667276" lon="12.19321270029458"><ele>353.0</ele><time>2026-05-02T09:48:37Z</time></trkpt><trkpt lat="43.11514643385949" lon="12.1932371746484"><ele>350.2</ele><time>2026-05-02T09:48:39Z</time></trkpt><trkpt lat="43.1152096780016" lon="12.193267741442508"><ele>347.4</ele><time>2026-05-02T09:48:40Z</time></trkpt><trkpt lat="43.115296857457764" lon="12.193343568145638"><ele>344.59999999999997</ele><time>2026-05-02T09:48:42Z</time></trkpt><trkpt lat="43.11538729131767" lon="12.193381572343728"><ele>341.79999999999995</ele><time>2026-05-02T09:48:44Z</time></trkpt><trkpt lat="43.115480835609006" lon="12.193455435997759"><ele>339.0</ele><time>2026-05-02T09:48:46Z</time></trkpt><trkpt lat="43.11558658127756" lon="12.193492317068795"><ele>339.0</ele><time>2026-05-02T09:48:48Z</time></trkpt><trkpt lat="43.115638387473346" lon="12.193542592271754"><ele>339.0</ele><time>2026-05-02T09:48:51Z</time></trkpt><trkpt lat="43.11569565633077" lon="12.193582977230724"><ele>339.0</ele><time>2026-05-02T09:48:55Z</time></trkpt><trkpt lat="43.115799690309565" lon="12.19369457786604"><ele>339.0</ele><time>2026-05-02T09:48:57Z</time></trkpt><trkpt lat="43.115889335126425" lon="12.193827492785067"><ele>339.0</ele><time>2026-05-02T09:48:59Z</time></trkpt><trkpt lat="43.1159263848012" lon="12.193899305808571"><ele>336.6666666666667</ele><time>2026-05-02T09:49:00Z</time></trkpt><trkpt lat="43.116017682708524" lon="12.19400554163973"><ele>334.3333333333333</ele><time>2026-05-02T09:49:02Z</time></trkpt><trkpt lat="43.116091809118636" lon="12.193974091188904"><ele>332.0</ele><time>2026-05-02T09:49:03Z</time></trkpt><trkpt lat="43.116194980454" lon="12.193974915191095"><ele>329.66666666666663</ele><time>2026-05-02T09:49:05Z</time></trkpt><trkpt lat="43.11626586902783" lon="12.193974374378834"><ele>327.3333333333333</ele><time>2026-05-02T09:49:07Z</time></trkpt><trkpt lat="43.116337869696636" lon="12.193989901367784"><ele>325.0</ele><time>2026-05-02T09:49:20.999Z</time></trkpt><trkpt lat="43.11637624781737" lon="12.194058692313355"><ele>323.0</ele><time>2026-05-02T09:49:21.999Z</time></trkpt><trkpt lat="43.116429943114284" lon="12.194174279771364"><ele>321.0</ele><time>2026-05-02T09:49:23.999Z</time></trkpt><trkpt lat="43.11649428814448" lon="12.194310197743714"><ele>319.0</ele><time>2026-05-02T09:49:25.999Z</time></trkpt><trkpt lat="43.11657528038746" lon="12.194432225947853"><ele>317.0</ele><time>2026-05-02T09:49:27.999Z</time></trkpt><trkpt lat="43.116648504802306" lon="12.194526068469127"><ele>315.0</ele><time>2026-05-02T09:49:29.999Z</time></trkpt><trkpt lat="43.11675413862553" lon="12.194574266385656"><ele>312.8</ele><time>2026-05-02T09:49:31.999Z</time></trkpt><trkpt lat="43.11682634277205" lon="12.19466371949814"><ele>310.6</ele><time>2026-05-02T09:49:33.999Z</time></trkpt><trkpt lat="43.11688379367866" lon="12.194786921042464"><ele>308.4</ele><time>2026-05-02T09:49:35.999Z</time></trkpt><trkpt lat="43.116942005244425" lon="12.194913806983163"><ele>306.2</ele><time>2026-05-02T09:49:37.999Z</time></trkpt><trkpt lat="43.11704699016502" lon="12.195010431931001"><ele>304.0</ele><time>2026-05-02T09:49:39.999Z</time></trkpt><trkpt lat="43.1170909543915" lon="12.19507448409177"><ele>303.2</ele><time>2026-05-02T09:49:40.999Z</time></trkpt><trkpt lat="43.11711282577999" lon="12.195164869517816"><ele>302.4</ele><time>2026-05-02T09:49:41.999Z</time></trkpt><trkpt lat="43.11715174360465" lon="12.195238535325798"><ele>301.6</ele><time>2026-05-02T09:49:42.999Z</time></trkpt><trkpt lat="43.11721752112238" lon="12.195367957053719"><ele>300.8</ele><time>2026-05-02T09:49:44.999Z</time></trkpt><trkpt lat="43.11729063699391" lon="12.195512860388044"><ele>300.0</ele><time>2026-05-02T09:49:46.999Z</time></trkpt><trkpt lat="43.11735984628246" lon="12.195610785951843"><ele>297.0</ele><time>2026-05-02T09:49:47.999Z</time></trkpt><trkpt lat="43.11743051079911" lon="12.195769442431686"><ele>294.0</ele><time>2026-05-02T09:49:48.999Z</time></trkpt><trkpt lat="43.117490534679575" lon="12.195876490717673"><ele>291.0</ele><time>2026-05-02T09:49:49.999Z</time></trkpt><trkpt lat="43.117532325424" lon="12.19595171132906"><ele>288.0</ele><time>2026-05-02T09:49:50.999Z</time></trkpt><trkpt lat="43.117597435447635" lon="12.196014719905257"><ele>285.0</ele><time>2026-05-02T09:49:52.999Z</time></trkpt><trkpt lat="43.117694670088085" lon="12.195988910260052"><ele>285.0</ele><time>2026-05-02T09:49:54.999Z</time></trkpt><trkpt lat="43.117810241365156" lon="12.19603127761584"><ele>285.0</ele><time>2026-05-02T09:49:56.999Z</time></trkpt><trkpt lat="43.11787325730908" lon="12.19606317050393"><ele>285.0</ele><time>2026-05-02T09:49:57.999Z</time></trkpt><trkpt lat="43.11793891443267" lon="12.196098880498713"><ele>285.0</ele><time>2026-05-02T09:49:58.999Z</time></trkpt><trkpt lat="43.117985249236234" lon="12.196168464444835"><ele>285.0</ele><time>2026-05-02T09:49:59.999Z</time></trkpt><trkpt lat="43.11802896175516" lon="12.196242143201587"><ele>285.0</ele><time>2026-05-02T09:50:00.999Z</time></trkpt><trkpt lat="43.11806419159071" lon="12.196323406555827"><ele>285.0</ele><time>2026-05-02T09:50:01.999Z</time></trkpt><trkpt lat="43.118095542755285" lon="12.196407436575727"><ele>285.0</ele><time>2026-05-02T09:50:02.999Z</time></trkpt><trkpt lat="43.118122862029715" lon="12.196489230232961"><ele>285.0</ele><time>2026-05-02T09:50:03.999Z</time></trkpt><trkpt lat="43.11811797806846" lon="12.196579604245041"><ele>285.0</ele><time>2026-05-02T09:50:04.999Z</time></trkpt><trkpt lat="43.11813802905778" lon="12.196737886808013"><ele>285.0</ele><time>2026-05-02T09:50:06.999Z</time></trkpt><trkpt lat="43.1181268051904" lon="12.196896494139846"><ele>285.0</ele><time>2026-05-02T09:50:08.999Z</time></trkpt><trkpt lat="43.11809322401636" lon="12.197059108675127"><ele>284.2</ele><time>2026-05-02T09:50:10.999Z</time></trkpt><trkpt lat="43.11804749018361" lon="12.197119029043828"><ele>283.4</ele><time>2026-05-02T09:50:11.999Z</time></trkpt><trkpt lat="43.11796956850695" lon="12.197244664155955"><ele>282.6</ele><time>2026-05-02T09:50:13.999Z</time></trkpt><trkpt lat="43.117912962819865" lon="12.197377536349364"><ele>281.8</ele><time>2026-05-02T09:50:15.999Z</time></trkpt><trkpt lat="43.11788961925145" lon="12.197538769653585"><ele>281.0</ele><time>2026-05-02T09:50:18Z</time></trkpt><trkpt lat="43.11791326079475" lon="12.197700291640553"><ele>279.1666666666667</ele><time>2026-05-02T09:50:20Z</time></trkpt><trkpt lat="43.11792974358271" lon="12.19787962018881"><ele>277.33333333333337</ele><time>2026-05-02T09:50:22Z</time></trkpt><trkpt lat="43.11793040168363" lon="12.197981988616185"><ele>275.5</ele><time>2026-05-02T09:50:23Z</time></trkpt><trkpt lat="43.117932178529315" lon="12.19808210620341"><ele>273.6666666666667</ele><time>2026-05-02T09:50:24Z</time></trkpt><trkpt lat="43.11793778360162" lon="12.198188841152458"><ele>271.8333333333333</ele><time>2026-05-02T09:50:25Z</time></trkpt><trkpt lat="43.11794166468371" lon="12.198296148396096"><ele>270.0</ele><time>2026-05-02T09:50:26Z</time></trkpt><trkpt lat="43.11794269531099" lon="12.198400896598967"><ele>268.0</ele><time>2026-05-02T09:50:27Z</time></trkpt><trkpt lat="43.117946512148734" lon="12.198508884365069"><ele>266.0</ele><time>2026-05-02T09:50:28Z</time></trkpt><trkpt lat="43.117954082784856" lon="12.198618755696096"><ele>264.0</ele><time>2026-05-02T09:50:29Z</time></trkpt><trkpt lat="43.11796151135622" lon="12.198724042375707"><ele>262.0</ele><time>2026-05-02T09:50:30Z</time></trkpt><trkpt lat="43.117966331111504" lon="12.198829228153295"><ele>260.0</ele><time>2026-05-02T09:50:31Z</time></trkpt><trkpt lat="43.11797486233596" lon="12.198938691708474"><ele>258.0</ele><time>2026-05-02T09:50:32Z</time></trkpt><trkpt lat="43.117988377195346" lon="12.199038472259147"><ele>257.1428571428571</ele><time>2026-05-02T09:50:33Z</time></trkpt><trkpt lat="43.1180177341537" lon="12.199133765047925"><ele>256.2857142857143</ele><time>2026-05-02T09:50:34Z</time></trkpt><trkpt lat="43.11803789102017" lon="12.199225995611956"><ele>255.42857142857142</ele><time>2026-05-02T09:50:35Z</time></trkpt><trkpt lat="43.118030413604" lon="12.199328878671457"><ele>254.57142857142856</ele><time>2026-05-02T09:50:36Z</time></trkpt><trkpt lat="43.11803731831912" lon="12.199421489054437"><ele>253.71428571428572</ele><time>2026-05-02T09:50:37Z</time></trkpt><trkpt lat="43.11804433167628" lon="12.199515409839167"><ele>252.85714285714286</ele><time>2026-05-02T09:50:38Z</time></trkpt><trkpt lat="43.11805193073799" lon="12.199616745314708"><ele>252.0</ele><time>2026-05-02T09:50:39Z</time></trkpt><trkpt lat="43.118061986661175" lon="12.199750843735847"><ele>250.75</ele><time>2026-05-02T09:50:40Z</time></trkpt><trkpt lat="43.11807616791997" lon="12.19993995451523"><ele>249.5</ele><time>2026-05-02T09:50:41Z</time></trkpt><trkpt lat="43.11810066605123" lon="12.20011240127347"><ele>248.25</ele><time>2026-05-02T09:50:42Z</time></trkpt><trkpt lat="43.11810998088116" lon="12.200251859740726"><ele>247.0</ele><time>2026-05-02T09:50:43Z</time></trkpt><trkpt lat="43.11811882887239" lon="12.200372731753196"><ele>247.0</ele><time>2026-05-02T09:50:44Z</time></trkpt><trkpt lat="43.11811936899545" lon="12.200478207148167"><ele>247.0</ele><time>2026-05-02T09:50:45Z</time></trkpt><trkpt lat="43.11815839966836" lon="12.200578817137286"><ele>247.0</ele><time>2026-05-02T09:50:47Z</time></trkpt><trkpt lat="43.11820308329376" lon="12.200685959581858"><ele>247.0</ele><time>2026-05-02T09:51:09Z</time></trkpt><trkpt lat="43.11831076608724" lon="12.200736136391184"><ele>247.0</ele><time>2026-05-02T09:51:11Z</time></trkpt><trkpt lat="43.118359540012584" lon="12.20083387402786"><ele>246.2</ele><time>2026-05-02T09:51:13Z</time></trkpt><trkpt lat="43.11834843413573" lon="12.200966590805425"><ele>245.39999999999998</ele><time>2026-05-02T09:51:14Z</time></trkpt><trkpt lat="43.11834701848219" lon="12.201071451277647"><ele>244.60000000000002</ele><time>2026-05-02T09:51:15Z</time></trkpt><trkpt lat="43.118348248956785" lon="12.201203309108704"><ele>243.8</ele><time>2026-05-02T09:51:16Z</time></trkpt><trkpt lat="43.11835006192119" lon="12.201331712148162"><ele>243.0</ele><time>2026-05-02T09:51:17Z</time></trkpt><trkpt lat="43.118349960845315" lon="12.201472281969941"><ele>242.75</ele><time>2026-05-02T09:51:18Z</time></trkpt><trkpt lat="43.118351410660146" lon="12.201639347042478"><ele>242.5</ele><time>2026-05-02T09:51:19Z</time></trkpt><trkpt lat="43.118353456129846" lon="12.2018095774915"><ele>242.25</ele><time>2026-05-02T09:51:19.999Z</time></trkpt><trkpt lat="43.118355832595505" lon="12.201996265879083"><ele>242.0</ele><time>2026-05-02T09:51:20.999Z</time></trkpt><trkpt lat="43.1183571268575" lon="12.20220444652387"><ele>242.0</ele><time>2026-05-02T09:51:21.999Z</time></trkpt><trkpt lat="43.11834527028664" lon="12.202425450264524"><ele>242.0</ele><time>2026-05-02T09:51:22.999Z</time></trkpt><trkpt lat="43.11834964960277" lon="12.202633214667099"><ele>242.0</ele><time>2026-05-02T09:51:23.999Z</time></trkpt><trkpt lat="43.11836753225195" lon="12.20284484063281"><ele>242.0</ele><time>2026-05-02T09:51:24.999Z</time></trkpt><trkpt lat="43.1183577863486" lon="12.203019239574308"><ele>242.0</ele><time>2026-05-02T09:51:25.999Z</time></trkpt><trkpt lat="43.11836066341695" lon="12.203155730141573"><ele>242.0</ele><time>2026-05-02T09:51:26.999Z</time></trkpt><trkpt lat="43.11833710291681" lon="12.203255220324962"><ele>242.0</ele><time>2026-05-02T09:51:27.999Z</time></trkpt><trkpt lat="43.11830172599855" lon="12.203333472155023"><ele>242.0</ele><time>2026-05-02T09:51:28.999Z</time></trkpt><trkpt lat="43.118213943635325" lon="12.203303262578476"><ele>242.28571428571428</ele><time>2026-05-02T09:51:29.999Z</time></trkpt><trkpt lat="43.11814736596536" lon="12.203325694286438"><ele>242.57142857142856</ele><time>2026-05-02T09:51:30.999Z</time></trkpt><trkpt lat="43.11807537100121" lon="12.203352740646713"><ele>242.85714285714283</ele><time>2026-05-02T09:51:31.999Z</time></trkpt><trkpt lat="43.11800259789792" lon="12.203383697915202"><ele>243.1428571428571</ele><time>2026-05-02T09:51:32.999Z</time></trkpt><trkpt lat="43.11793532880476" lon="12.203436511312402"><ele>243.42857142857142</ele><time>2026-05-02T09:51:33.999Z</time></trkpt><trkpt lat="43.117865235670955" lon="12.20346378281176"><ele>243.71428571428567</ele><time>2026-05-02T09:51:34.999Z</time></trkpt><trkpt lat="43.11779503886431" lon="12.203505379161202"><ele>243.99999999999997</ele><time>2026-05-02T09:51:35.999Z</time></trkpt><trkpt lat="43.117742497416735" lon="12.203565162452911"><ele>243.99999999999997</ele><time>2026-05-02T09:51:36.999Z</time></trkpt><trkpt lat="43.117666594334516" lon="12.203704602252731"><ele>244.0</ele><time>2026-05-02T09:51:38.999Z</time></trkpt><trkpt lat="43.1176398730992" lon="12.203797331480672"><ele>244.0</ele><time>2026-05-02T09:51:39.999Z</time></trkpt><trkpt lat="43.11761179875996" lon="12.203895003762545"><ele>244.0</ele><time>2026-05-02T09:51:40.999Z</time></trkpt><trkpt lat="43.11757381753197" lon="12.204008711351534"><ele>243.99999999999997</ele><time>2026-05-02T09:51:41.999Z</time></trkpt><trkpt lat="43.11755929852181" lon="12.204112079031129"><ele>244.0</ele><time>2026-05-02T09:51:42.999Z</time></trkpt><trkpt lat="43.117535184963366" lon="12.20420485471906"><ele>243.99999999999997</ele><time>2026-05-02T09:51:43.999Z</time></trkpt><trkpt lat="43.11749713428773" lon="12.204293983787373"><ele>244.0</ele><time>2026-05-02T09:51:44.999Z</time></trkpt><trkpt lat="43.11745401897578" lon="12.204375948017177"><ele>244.0</ele><time>2026-05-02T09:51:45.999Z</time></trkpt><trkpt lat="43.117393844780885" lon="12.20442528000578"><ele>244.0</ele><time>2026-05-02T09:51:46.999Z</time></trkpt><trkpt lat="43.11732285609492" lon="12.204497825311334"><ele>243.99999999999997</ele><time>2026-05-02T09:51:47.999Z</time></trkpt><trkpt lat="43.11723812316302" lon="12.204572900445484"><ele>244.0</ele><time>2026-05-02T09:51:48.999Z</time></trkpt><trkpt lat="43.11716622704413" lon="12.204627538558215"><ele>244.33333333333331</ele><time>2026-05-02T09:51:49.999Z</time></trkpt><trkpt lat="43.11710970748741" lon="12.20469436055543"><ele>244.66666666666666</ele><time>2026-05-02T09:51:50.999Z</time></trkpt><trkpt lat="43.11701052602037" lon="12.204771978476668"><ele>245.0</ele><time>2026-05-02T09:51:52.999Z</time></trkpt><trkpt lat="43.11697767427069" lon="12.204849575086268"><ele>245.33333333333331</ele><time>2026-05-02T09:51:53.999Z</time></trkpt><trkpt lat="43.11693796230652" lon="12.204994375293943"><ele>245.66666666666666</ele><time>2026-05-02T09:51:55.999Z</time></trkpt><trkpt lat="43.11691884174172" lon="12.205088891678677"><ele>246.0</ele><time>2026-05-02T09:51:56.999Z</time></trkpt><trkpt lat="43.11685186876707" lon="12.205168675594326"><ele>246.25</ele><time>2026-05-02T09:51:57.999Z</time></trkpt><trkpt lat="43.11676991275849" lon="12.20525697827723"><ele>246.5</ele><time>2026-05-02T09:51:58.999Z</time></trkpt><trkpt lat="43.11667146344539" lon="12.205363702413948"><ele>246.75</ele><time>2026-05-02T09:51:59.999Z</time></trkpt><trkpt lat="43.11655145280066" lon="12.205492571022402"><ele>247.0</ele><time>2026-05-02T09:52:00.999Z</time></trkpt><trkpt lat="43.11643765672235" lon="12.205595241569084"><ele>247.39999999999998</ele><time>2026-05-02T09:52:01.999Z</time></trkpt><trkpt lat="43.116356993066944" lon="12.205712437926127"><ele>247.79999999999998</ele><time>2026-05-02T09:52:02.999Z</time></trkpt><trkpt lat="43.11627567830736" lon="12.205799557019844"><ele>248.2</ele><time>2026-05-02T09:52:03.999Z</time></trkpt><trkpt lat="43.116199112446466" lon="12.205879732783954"><ele>248.6</ele><time>2026-05-02T09:52:04.999Z</time></trkpt><trkpt lat="43.11613604985418" lon="12.205947854081467"><ele>249.0</ele><time>2026-05-02T09:52:05.999Z</time></trkpt><trkpt lat="43.11607702793208" lon="12.206010342568963"><ele>249.0</ele><time>2026-05-02T09:52:06.999Z</time></trkpt><trkpt lat="43.1159977715565" lon="12.206092300808866"><ele>249.0</ele><time>2026-05-02T09:52:08.999Z</time></trkpt><trkpt lat="43.115927267601556" lon="12.206149484662697"><ele>249.0</ele><time>2026-05-02T09:52:17.999Z</time></trkpt><trkpt lat="43.11585884210118" lon="12.206160969495834"><ele>249.0</ele><time>2026-05-02T09:52:18.999Z</time></trkpt><trkpt lat="43.11578421959875" lon="12.206198405045722"><ele>249.0</ele><time>2026-05-02T09:52:19.999Z</time></trkpt><trkpt lat="43.115704066055244" lon="12.206233355613048"><ele>249.0</ele><time>2026-05-02T09:52:20.999Z</time></trkpt><trkpt lat="43.115617613784316" lon="12.206269141306985"><ele>250.0</ele><time>2026-05-02T09:52:21.999Z</time></trkpt><trkpt lat="43.11551911014135" lon="12.20630991547799"><ele>251.0</ele><time>2026-05-02T09:52:22.999Z</time></trkpt><trkpt lat="43.1154135868143" lon="12.206353713197863"><ele>252.0</ele><time>2026-05-02T09:52:24Z</time></trkpt><trkpt lat="43.115302478318355" lon="12.206425429076607"><ele>253.0</ele><time>2026-05-02T09:52:25Z</time></trkpt><trkpt lat="43.11514890114375" lon="12.206484553284767"><ele>254.0</ele><time>2026-05-02T09:52:26Z</time></trkpt><trkpt lat="43.11498446935418" lon="12.206560059354977"><ele>255.0</ele><time>2026-05-02T09:52:27Z</time></trkpt><trkpt lat="43.11480072965353" lon="12.206618035246201"><ele>256.0</ele><time>2026-05-02T09:52:28Z</time></trkpt><trkpt lat="43.11457924957976" lon="12.206712272805355"><ele>259.0</ele><time>2026-05-02T09:52:29Z</time></trkpt><trkpt lat="43.11433733251311" lon="12.2068143551539"><ele>262.0</ele><time>2026-05-02T09:52:30Z</time></trkpt><trkpt lat="43.11408091613633" lon="12.20692366125567"><ele>265.0</ele><time>2026-05-02T09:52:31Z</time></trkpt><trkpt lat="43.113819904927446" lon="12.207039170089507"><ele>268.0</ele><time>2026-05-02T09:52:32Z</time></trkpt><trkpt lat="43.113604725284794" lon="12.207135479344416"><ele>268.0</ele><time>2026-05-02T09:52:33Z</time></trkpt><trkpt lat="43.11342236594048" lon="12.207211377895046"><ele>268.0</ele><time>2026-05-02T09:52:34Z</time></trkpt><trkpt lat="43.11326140236566" lon="12.207277376545724"><ele>268.0</ele><time>2026-05-02T09:52:35Z</time></trkpt><trkpt lat="43.11311614837277" lon="12.207341875961003"><ele>270.8</ele><time>2026-05-02T09:52:36Z</time></trkpt><trkpt lat="43.112986834949545" lon="12.207412324443203"><ele>273.6</ele><time>2026-05-02T09:52:37Z</time></trkpt><trkpt lat="43.112884519945446" lon="12.207485448036763"><ele>276.4</ele><time>2026-05-02T09:52:38Z</time></trkpt><trkpt lat="43.112790386714636" lon="12.20752699604727"><ele>279.2</ele><time>2026-05-02T09:52:39Z</time></trkpt><trkpt lat="43.11271893237872" lon="12.20757023355015"><ele>282.0</ele><time>2026-05-02T09:52:40Z</time></trkpt><trkpt lat="43.11262036847968" lon="12.207629842772153"><ele>282.0</ele><time>2026-05-02T09:52:42Z</time></trkpt><trkpt lat="43.1126998062169" lon="12.207603494319322"><ele>282.0</ele><time>2026-05-02T09:53:04Z</time></trkpt><trkpt lat="43.11276115408701" lon="12.20756846087163"><ele>282.0</ele><time>2026-05-02T09:53:05Z</time></trkpt><trkpt lat="43.112836741932696" lon="12.207518425239684"><ele>282.0</ele><time>2026-05-02T09:53:06Z</time></trkpt><trkpt lat="43.112913785926146" lon="12.207464802997668"><ele>282.0</ele><time>2026-05-02T09:53:07Z</time></trkpt><trkpt lat="43.112987651812226" lon="12.207420307258538"><ele>282.0</ele><time>2026-05-02T09:53:08Z</time></trkpt><trkpt lat="43.11307060124331" lon="12.207386804063088"><ele>282.0</ele><time>2026-05-02T09:53:09Z</time></trkpt><trkpt lat="43.11313865889833" lon="12.207359147597733"><ele>282.0</ele><time>2026-05-02T09:53:10Z</time></trkpt><trkpt lat="43.113249055570485" lon="12.207311023041347"><ele>282.0</ele><time>2026-05-02T09:53:12Z</time></trkpt><trkpt lat="43.1133150639426" lon="12.20728300762668"><ele>282.0</ele><time>2026-05-02T09:53:14Z</time></trkpt><trkpt lat="43.1133765869801" lon="12.207256504935105"><ele>282.0</ele><time>2026-05-02T09:53:16Z</time></trkpt><trkpt lat="43.11349722372335" lon="12.207198207202884"><ele>282.0</ele><time>2026-05-02T09:53:18Z</time></trkpt><trkpt lat="43.11356470498213" lon="12.207165450356033"><ele>280.0</ele><time>2026-05-02T09:53:19Z</time></trkpt><trkpt lat="43.11363846304619" lon="12.207137142214949"><ele>278.0</ele><time>2026-05-02T09:53:20Z</time></trkpt><trkpt lat="43.1137063447166" lon="12.20711281813715"><ele>276.0</ele><time>2026-05-02T09:53:21Z</time></trkpt><trkpt lat="43.113778187840644" lon="12.20708267718325"><ele>274.0</ele><time>2026-05-02T09:53:22Z</time></trkpt><trkpt lat="43.11384986070185" lon="12.207049482935021"><ele>272.0</ele><time>2026-05-02T09:53:23Z</time></trkpt><trkpt lat="43.11391356991207" lon="12.207021419626939"><ele>270.0</ele><time>2026-05-02T09:53:24Z</time></trkpt><trkpt lat="43.113978958798334" lon="12.206990946753216"><ele>268.0</ele><time>2026-05-02T09:53:25Z</time></trkpt><trkpt lat="43.11405300657304" lon="12.206958184022294"><ele>267.0</ele><time>2026-05-02T09:53:26Z</time></trkpt><trkpt lat="43.11413485914313" lon="12.206926526731174"><ele>266.0</ele><time>2026-05-02T09:53:27Z</time></trkpt><trkpt lat="43.11422089908091" lon="12.206883861663377"><ele>265.0</ele><time>2026-05-02T09:53:28Z</time></trkpt><trkpt lat="43.114312273660985" lon="12.206872578198748"><ele>264.0</ele><time>2026-05-02T09:53:29Z</time></trkpt><trkpt lat="43.11439191091536" lon="12.206838905684437"><ele>263.0</ele><time>2026-05-02T09:53:30Z</time></trkpt><trkpt lat="43.11446470458276" lon="12.206790008225482"><ele>262.0</ele><time>2026-05-02T09:53:31Z</time></trkpt><trkpt lat="43.11454359141846" lon="12.206759179995798"><ele>262.0</ele><time>2026-05-02T09:53:32Z</time></trkpt><trkpt lat="43.11463704331426" lon="12.20671287042529"><ele>262.0</ele><time>2026-05-02T09:53:33Z</time></trkpt><trkpt lat="43.114733114551996" lon="12.206674392136408"><ele>262.0</ele><time>2026-05-02T09:53:34Z</time></trkpt><trkpt lat="43.114824798878665" lon="12.206655329687909"><ele>262.0</ele><time>2026-05-02T09:53:35Z</time></trkpt><trkpt lat="43.11490133812492" lon="12.206598980299963"><ele>262.0</ele><time>2026-05-02T09:53:36Z</time></trkpt><trkpt lat="43.114984977828875" lon="12.206565225804999"><ele>261.0</ele><time>2026-05-02T09:53:37Z</time></trkpt><trkpt lat="43.11507713796222" lon="12.20654649724462"><ele>260.0</ele><time>2026-05-02T09:53:37.999Z</time></trkpt><trkpt lat="43.115156869664666" lon="12.206512109385262"><ele>259.0</ele><time>2026-05-02T09:53:38.999Z</time></trkpt><trkpt lat="43.115233910361475" lon="12.20647888218464"><ele>258.0</ele><time>2026-05-02T09:53:39.999Z</time></trkpt><trkpt lat="43.11530738684248" lon="12.206447192189183"><ele>257.0</ele><time>2026-05-02T09:53:40.999Z</time></trkpt><trkpt lat="43.11537755130812" lon="12.206416930645645"><ele>256.0</ele><time>2026-05-02T09:53:41.999Z</time></trkpt><trkpt lat="43.11545247656771" lon="12.206385002051677"><ele>255.57142857142856</ele><time>2026-05-02T09:53:42.999Z</time></trkpt><trkpt lat="43.11552375426293" lon="12.206355497669048"><ele>255.1428571428571</ele><time>2026-05-02T09:53:43.999Z</time></trkpt><trkpt lat="43.11558840863551" lon="12.206328734912967"><ele>254.71428571428572</ele><time>2026-05-02T09:53:44.999Z</time></trkpt><trkpt lat="43.11565562496483" lon="12.206300911692983"><ele>254.28571428571428</ele><time>2026-05-02T09:53:45.999Z</time></trkpt><trkpt lat="43.115712265941774" lon="12.206253722102003"><ele>253.85714285714286</ele><time>2026-05-02T09:53:46.999Z</time></trkpt><trkpt lat="43.11577656792439" lon="12.206234782897168"><ele>253.42857142857144</ele><time>2026-05-02T09:53:47.999Z</time></trkpt><trkpt lat="43.11583613867853" lon="12.206199223475188"><ele>253.00000000000003</ele><time>2026-05-02T09:53:48.999Z</time></trkpt><trkpt lat="43.11592836233726" lon="12.20616516944097"><ele>252.8</ele><time>2026-05-02T09:53:50.999Z</time></trkpt><trkpt lat="43.115995306394865" lon="12.206336289032924"><ele>252.60000000000002</ele><time>2026-05-02T09:53:56.999Z</time></trkpt><trkpt lat="43.11589647023278" lon="12.206392994093157"><ele>252.39999999999998</ele><time>2026-05-02T09:53:57.999Z</time></trkpt><trkpt lat="43.11586308380616" lon="12.206473278903125"><ele>252.2</ele><time>2026-05-02T09:53:58.999Z</time></trkpt><trkpt lat="43.11582625193734" lon="12.206561849054637"><ele>252.0</ele><time>2026-05-02T09:53:59.999Z</time></trkpt><trkpt lat="43.11577509510149" lon="12.206684600235004"><ele>252.0</ele><time>2026-05-02T09:54:01.999Z</time></trkpt><trkpt lat="43.11573760902747" lon="12.206773813514422"><ele>252.0</ele><time>2026-05-02T09:54:03.999Z</time></trkpt><trkpt lat="43.1156711105456" lon="12.206908372998054"><ele>252.0</ele><time>2026-05-02T09:54:11.999Z</time></trkpt><trkpt lat="43.11561783784109" lon="12.206993993105527"><ele>252.0</ele><time>2026-05-02T09:54:12.999Z</time></trkpt><trkpt lat="43.11556899065916" lon="12.207051393118194"><ele>252.0</ele><time>2026-05-02T09:54:13.999Z</time></trkpt><trkpt lat="43.11546960852317" lon="12.207171281307147"><ele>252.8</ele><time>2026-05-02T09:54:15.999Z</time></trkpt><trkpt lat="43.115379730595556" lon="12.207255097530398"><ele>253.6</ele><time>2026-05-02T09:54:17.999Z</time></trkpt><trkpt lat="43.115294351568004" lon="12.207358366437687"><ele>254.40000000000003</ele><time>2026-05-02T09:54:19.999Z</time></trkpt><trkpt lat="43.11526439719514" lon="12.207502436654336"><ele>255.20000000000002</ele><time>2026-05-02T09:54:21.999Z</time></trkpt><trkpt lat="43.11526049483768" lon="12.207652566256776"><ele>256.0</ele><time>2026-05-02T09:54:23.999Z</time></trkpt><trkpt lat="43.115269903471265" lon="12.207812884123642"><ele>256.2</ele><time>2026-05-02T09:54:25.999Z</time></trkpt><trkpt lat="43.115262009805186" lon="12.207912059129727"><ele>256.40000000000003</ele><time>2026-05-02T09:54:26.999Z</time></trkpt><trkpt lat="43.1152842283797" lon="12.20800076641323"><ele>256.6</ele><time>2026-05-02T09:54:27.999Z</time></trkpt><trkpt lat="43.115304024048804" lon="12.208124491442728"><ele>256.8</ele><time>2026-05-02T09:54:30Z</time></trkpt><trkpt lat="43.11531894206782" lon="12.208252172252017"><ele>257.0</ele><time>2026-05-02T09:54:32Z</time></trkpt><trkpt lat="43.115329210365296" lon="12.208426851849259"><ele>257.0</ele><time>2026-05-02T09:54:34Z</time></trkpt><trkpt lat="43.115322273876124" lon="12.208562932162547"><ele>257.0</ele><time>2026-05-02T09:54:35Z</time></trkpt><trkpt lat="43.115325292352125" lon="12.208714419408244"><ele>257.0</ele><time>2026-05-02T09:54:36Z</time></trkpt><trkpt lat="43.11532150053571" lon="12.20885073712479"><ele>257.0</ele><time>2026-05-02T09:54:37Z</time></trkpt><trkpt lat="43.11532155336985" lon="12.208970773021473"><ele>257.0</ele><time>2026-05-02T09:54:38Z</time></trkpt><trkpt lat="43.115336614356565" lon="12.209122179716449"><ele>258.5</ele><time>2026-05-02T09:54:40Z</time></trkpt><trkpt lat="43.11535611498583" lon="12.20921902584283"><ele>260.0</ele><time>2026-05-02T09:54:41Z</time></trkpt><trkpt lat="43.11538937075818" lon="12.20932929714571"><ele>261.5</ele><time>2026-05-02T09:54:42Z</time></trkpt><trkpt lat="43.11543670690156" lon="12.209416280716162"><ele>263.0</ele><time>2026-05-02T09:54:43Z</time></trkpt><trkpt lat="43.11546697358898" lon="12.20949557774269"><ele>264.5</ele><time>2026-05-02T09:54:44Z</time></trkpt><trkpt lat="43.11549871092673" lon="12.209643762857727"><ele>266.0</ele><time>2026-05-02T09:54:46Z</time></trkpt><trkpt lat="43.115536935367636" lon="12.209727806037664"><ele>266.0</ele><time>2026-05-02T09:54:47Z</time></trkpt><trkpt lat="43.11554414371064" lon="12.209819356389122"><ele>266.0</ele><time>2026-05-02T09:54:48Z</time></trkpt><trkpt lat="43.115581007821255" lon="12.209916866118913"><ele>266.0</ele><time>2026-05-02T09:54:50Z</time></trkpt><trkpt lat="43.11562082071963" lon="12.210056637396594"><ele>266.0</ele><time>2026-05-02T09:55:19Z</time></trkpt><trkpt lat="43.11564806857996" lon="12.21019404421183"><ele>266.0</ele><time>2026-05-02T09:55:20Z</time></trkpt><trkpt lat="43.1156858304712" lon="12.210361022936201"><ele>266.1666666666667</ele><time>2026-05-02T09:55:21Z</time></trkpt><trkpt lat="43.11571917478891" lon="12.210513857276387"><ele>266.33333333333337</ele><time>2026-05-02T09:55:22Z</time></trkpt><trkpt lat="43.115755509023835" lon="12.210620604769515"><ele>266.5</ele><time>2026-05-02T09:55:23Z</time></trkpt><trkpt lat="43.115773694655566" lon="12.210720217644855"><ele>266.6666666666667</ele><time>2026-05-02T09:55:24Z</time></trkpt><trkpt lat="43.1157948949543" lon="12.210833763511193"><ele>266.8333333333333</ele><time>2026-05-02T09:55:25Z</time></trkpt><trkpt lat="43.11579826260897" lon="12.210936043622365"><ele>267.0</ele><time>2026-05-02T09:55:26Z</time></trkpt><trkpt lat="43.11582069436877" lon="12.211059165331335"><ele>267.4</ele><time>2026-05-02T09:55:27Z</time></trkpt><trkpt lat="43.115858749880395" lon="12.211190963532445"><ele>267.79999999999995</ele><time>2026-05-02T09:55:28Z</time></trkpt><trkpt lat="43.11588289635342" lon="12.211324467660553"><ele>268.2</ele><time>2026-05-02T09:55:29Z</time></trkpt><trkpt lat="43.11588746564548" lon="12.211449571779658"><ele>268.59999999999997</ele><time>2026-05-02T09:55:30Z</time></trkpt><trkpt lat="43.115907424363684" lon="12.211575292402632"><ele>269.0</ele><time>2026-05-02T09:55:31Z</time></trkpt><trkpt lat="43.11592324186555" lon="12.211690045627167"><ele>269.6666666666667</ele><time>2026-05-02T09:55:32Z</time></trkpt><trkpt lat="43.11593373578749" lon="12.21179908592979"><ele>270.33333333333337</ele><time>2026-05-02T09:55:33Z</time></trkpt><trkpt lat="43.115941686238855" lon="12.211887347963522"><ele>271.0</ele><time>2026-05-02T09:55:34Z</time></trkpt><trkpt lat="43.11594524537538" lon="12.211979016001072"><ele>271.6666666666667</ele><time>2026-05-02T09:55:35Z</time></trkpt><trkpt lat="43.11594740380024" lon="12.212087902965175"><ele>272.3333333333333</ele><time>2026-05-02T09:55:36Z</time></trkpt><trkpt lat="43.11594052835692" lon="12.212202939797189"><ele>273.0</ele><time>2026-05-02T09:55:37Z</time></trkpt><trkpt lat="43.11592320581902" lon="12.212323714695474"><ele>273.6666666666667</ele><time>2026-05-02T09:55:38Z</time></trkpt><trkpt lat="43.11591816615055" lon="12.212437872928215"><ele>274.3333333333333</ele><time>2026-05-02T09:55:39Z</time></trkpt><trkpt lat="43.11590424156015" lon="12.212537566428097"><ele>275.0</ele><time>2026-05-02T09:55:40Z</time></trkpt><trkpt lat="43.11587484225678" lon="12.212615941103504"><ele>275.66666666666663</ele><time>2026-05-02T09:55:41Z</time></trkpt><trkpt lat="43.11586641440891" lon="12.212719763624108"><ele>276.3333333333333</ele><time>2026-05-02T09:55:43Z</time></trkpt><trkpt lat="43.11585132463836" lon="12.212836269101887"><ele>277.0</ele><time>2026-05-02T09:55:46Z</time></trkpt><trkpt lat="43.11585131966491" lon="12.212948462172465"><ele>277.0</ele><time>2026-05-02T09:55:51Z</time></trkpt><trkpt lat="43.115879931381635" lon="12.213034337020497"><ele>277.0</ele><time>2026-05-02T09:55:53Z</time></trkpt><trkpt lat="43.1159584810183" lon="12.213161399695249"><ele>277.0</ele><time>2026-05-02T09:55:55Z</time></trkpt><trkpt lat="43.115997385169784" lon="12.213255709682356"><ele>277.0</ele><time>2026-05-02T09:55:56Z</time></trkpt><trkpt lat="43.11606951496509" lon="12.213333573303355"><ele>277.0</ele><time>2026-05-02T09:55:57Z</time></trkpt><trkpt lat="43.11611617683676" lon="12.21340563958336"><ele>277.0</ele><time>2026-05-02T09:55:58Z</time></trkpt><trkpt lat="43.11619386704048" lon="12.21351901962817"><ele>276.2</ele><time>2026-05-02T09:56:00Z</time></trkpt><trkpt lat="43.11623965949317" lon="12.213649726512179"><ele>275.4</ele><time>2026-05-02T09:56:01.999Z</time></trkpt><trkpt lat="43.11625423131844" lon="12.213745471423248"><ele>274.6</ele><time>2026-05-02T09:56:03.999Z</time></trkpt><trkpt lat="43.11609926226411" lon="12.213840847081634"><ele>273.8</ele><time>2026-05-02T09:56:09.999Z</time></trkpt><trkpt lat="43.11601706603055" lon="12.213868804389689"><ele>273.0</ele><time>2026-05-02T09:56:12.999Z</time></trkpt><trkpt lat="43.115911895852335" lon="12.213891864945086"><ele>273.0</ele><time>2026-05-02T09:56:15.999Z</time></trkpt><trkpt lat="43.115820435311946" lon="12.21390537025169"><ele>273.0</ele><time>2026-05-02T09:56:17.999Z</time></trkpt><trkpt lat="43.115707857090726" lon="12.213924294123082"><ele>273.0</ele><time>2026-05-02T09:56:19.999Z</time></trkpt><trkpt lat="43.1156168227753" lon="12.213958780524141"><ele>273.0</ele><time>2026-05-02T09:56:21.999Z</time></trkpt><trkpt lat="43.115552563940795" lon="12.214060496072415"><ele>273.0</ele><time>2026-05-02T09:56:23.999Z</time></trkpt><trkpt lat="43.115502419808" lon="12.214163547098481"><ele>276.0</ele><time>2026-05-02T09:56:25.999Z</time></trkpt><trkpt lat="43.11548621186048" lon="12.2142596099575"><ele>279.0</ele><time>2026-05-02T09:56:51Z</time></trkpt><trkpt lat="43.115516777298055" lon="12.214398495219372"><ele>282.0</ele><time>2026-05-02T09:56:53Z</time></trkpt><trkpt lat="43.11551363758884" lon="12.214563355293599"><ele>285.0</ele><time>2026-05-02T09:56:55Z</time></trkpt><trkpt lat="43.115537855979724" lon="12.214673803135843"><ele>288.0</ele><time>2026-05-02T09:56:57Z</time></trkpt><trkpt lat="43.11562729642781" lon="12.214762939861213"><ele>287.2</ele><time>2026-05-02T09:56:59Z</time></trkpt><trkpt lat="43.11571166332629" lon="12.214849208400194"><ele>286.4</ele><time>2026-05-02T09:57:01Z</time></trkpt><trkpt lat="43.11578289964969" lon="12.21493403576046"><ele>285.59999999999997</ele><time>2026-05-02T09:57:03Z</time></trkpt><trkpt lat="43.11585361324164" lon="12.215009374605971"><ele>284.8</ele><time>2026-05-02T09:57:05Z</time></trkpt><trkpt lat="43.11594092537963" lon="12.215084599261248"><ele>284.0</ele><time>2026-05-02T09:57:07Z</time></trkpt><trkpt lat="43.116050771222284" lon="12.215179350825714"><ele>284.0</ele><time>2026-05-02T09:57:09Z</time></trkpt><trkpt lat="43.11611020380871" lon="12.215237447338515"><ele>284.0</ele><time>2026-05-02T09:57:10Z</time></trkpt><trkpt lat="43.116201820827285" lon="12.215340163427047"><ele>284.0</ele><time>2026-05-02T09:57:12Z</time></trkpt><trkpt lat="43.116272501080154" lon="12.215419781540875"><ele>284.0</ele><time>2026-05-02T09:57:14Z</time></trkpt><trkpt lat="43.116357647533036" lon="12.215522051073174"><ele>284.0</ele><time>2026-05-02T09:57:16Z</time></trkpt><trkpt lat="43.11643618693402" lon="12.215584732021991"><ele>286.0</ele><time>2026-05-02T09:57:18Z</time></trkpt><trkpt lat="43.11643364946064" lon="12.215686985039447"><ele>288.0</ele><time>2026-05-02T09:57:45Z</time></trkpt><trkpt lat="43.11636358403834" lon="12.215687756426089"><ele>290.0</ele><time>2026-05-02T09:57:47Z</time></trkpt><trkpt lat="43.11629443311043" lon="12.2157239513003"><ele>292.0</ele><time>2026-05-02T09:57:49Z</time></trkpt><trkpt lat="43.116188864285235" lon="12.215709927614887"><ele>294.0</ele><time>2026-05-02T09:57:51Z</time></trkpt><trkpt lat="43.116078816717135" lon="12.215726520458276"><ele>296.0</ele><time>2026-05-02T09:57:53Z</time></trkpt><trkpt lat="43.11597791705704" lon="12.215746172741804"><ele>296.0</ele><time>2026-05-02T09:57:55Z</time></trkpt><trkpt lat="43.11591267059084" lon="12.215764738720505"><ele>296.0</ele><time>2026-05-02T09:57:57Z</time></trkpt><trkpt lat="43.11584393726868" lon="12.215788946126509"><ele>296.0</ele><time>2026-05-02T09:58:04Z</time></trkpt><trkpt lat="43.11578150974732" lon="12.215825855827587"><ele>296.0</ele><time>2026-05-02T09:58:06Z</time></trkpt><trkpt lat="43.115859051442804" lon="12.215796159342329"><ele>296.0</ele><time>2026-05-02T09:58:34.999Z</time></trkpt><trkpt lat="43.11594535505283" lon="12.215775656965931"><ele>296.0</ele><time>2026-05-02T09:58:36.999Z</time></trkpt><trkpt lat="43.11604074114598" lon="12.215754325972382"><ele>296.0</ele><time>2026-05-02T09:58:38.999Z</time></trkpt><trkpt lat="43.116110581088705" lon="12.215759819946783"><ele>296.0</ele><time>2026-05-02T09:58:40.999Z</time></trkpt><trkpt lat="43.11617666583209" lon="12.215745565461178"><ele>296.0</ele><time>2026-05-02T09:58:43Z</time></trkpt><trkpt lat="43.11624876598638" lon="12.215723563777365"><ele>296.0</ele><time>2026-05-02T09:58:46Z</time></trkpt><trkpt lat="43.116320090636094" lon="12.215707879906871"><ele>296.0</ele><time>2026-05-02T09:58:49Z</time></trkpt><trkpt lat="43.11640699149352" lon="12.215689596514292"><ele>296.0</ele><time>2026-05-02T09:58:52Z</time></trkpt><trkpt lat="43.11646938095295" lon="12.215616639605331"><ele>293.6</ele><time>2026-05-02T09:58:56Z</time></trkpt><trkpt lat="43.11656345742048" lon="12.21559430660637"><ele>291.20000000000005</ele><time>2026-05-02T09:58:59Z</time></trkpt><trkpt lat="43.11664033644418" lon="12.215573345729005"><ele>288.79999999999995</ele><time>2026-05-02T09:59:01Z</time></trkpt><trkpt lat="43.1167390842648" lon="12.215517706259337"><ele>286.4</ele><time>2026-05-02T09:59:02Z</time></trkpt><trkpt lat="43.1168443738914" lon="12.215478686760012"><ele>284.0</ele><time>2026-05-02T09:59:04Z</time></trkpt><trkpt lat="43.11690468331216" lon="12.215507503635486"><ele>283.33333333333337</ele><time>2026-05-02T09:59:05Z</time></trkpt><trkpt lat="43.117010530308484" lon="12.215497129152116"><ele>282.6666666666667</ele><time>2026-05-02T09:59:07Z</time></trkpt><trkpt lat="43.117093536187596" lon="12.21553329101967"><ele>282.0</ele><time>2026-05-02T09:59:10Z</time></trkpt><trkpt lat="43.117167248983066" lon="12.215555693782079"><ele>281.3333333333333</ele><time>2026-05-02T09:59:12Z</time></trkpt><trkpt lat="43.11723461033562" lon="12.215591111534351"><ele>280.66666666666663</ele><time>2026-05-02T09:59:14Z</time></trkpt><trkpt lat="43.1172981939297" lon="12.215581472669657"><ele>280.0</ele><time>2026-05-02T09:59:16Z</time></trkpt><trkpt lat="43.11731484670403" lon="12.215757241750028"><ele>282.16666666666663</ele><time>2026-05-02T09:59:18Z</time></trkpt><trkpt lat="43.11731427883698" lon="12.215854253052818"><ele>284.3333333333333</ele><time>2026-05-02T09:59:20Z</time></trkpt><trkpt lat="43.11732430046066" lon="12.21596463399806"><ele>286.5</ele><time>2026-05-02T09:59:23Z</time></trkpt><trkpt lat="43.117325020361925" lon="12.216073627622507"><ele>288.6666666666667</ele><time>2026-05-02T09:59:43Z</time></trkpt><trkpt lat="43.117322453574424" lon="12.216191280900324"><ele>290.83333333333337</ele><time>2026-05-02T09:59:45Z</time></trkpt><trkpt lat="43.11730854728877" lon="12.216300649354"><ele>293.0</ele><time>2026-05-02T09:59:47Z</time></trkpt><trkpt lat="43.11730497265276" lon="12.216461667956883"><ele>294.0</ele><time>2026-05-02T09:59:49Z</time></trkpt><trkpt lat="43.1172948259451" lon="12.216588337224659"><ele>295.0</ele><time>2026-05-02T09:59:51Z</time></trkpt><trkpt lat="43.11732424446485" lon="12.216670327478974"><ele>296.0</ele><time>2026-05-02T09:59:53Z</time></trkpt><trkpt lat="43.117366939615444" lon="12.216756783400813"><ele>297.0</ele><time>2026-05-02T09:59:55Z</time></trkpt><trkpt lat="43.117393812088885" lon="12.216845162438014"><ele>298.0</ele><time>2026-05-02T09:59:57Z</time></trkpt><trkpt lat="43.117420213108346" lon="12.216962729085795"><ele>299.0</ele><time>2026-05-02T10:00:11Z</time></trkpt><trkpt lat="43.11748886939026" lon="12.217008483273686"><ele>296.33333333333337</ele><time>2026-05-02T10:00:13Z</time></trkpt><trkpt lat="43.11756217963626" lon="12.217022397890146"><ele>293.6666666666667</ele><time>2026-05-02T10:00:16Z</time></trkpt><trkpt lat="43.117623182808316" lon="12.217066250695495"><ele>291.0</ele><time>2026-05-02T10:00:22Z</time></trkpt><trkpt lat="43.117711491975385" lon="12.217172908063425"><ele>288.3333333333333</ele><time>2026-05-02T10:00:24Z</time></trkpt><trkpt lat="43.11774191338127" lon="12.217251321351233"><ele>285.66666666666663</ele><time>2026-05-02T10:00:25Z</time></trkpt><trkpt lat="43.1177770286817" lon="12.217376945400446"><ele>283.0</ele><time>2026-05-02T10:00:27Z</time></trkpt><trkpt lat="43.11779553402862" lon="12.217492763046783"><ele>283.0</ele><time>2026-05-02T10:00:29Z</time></trkpt><trkpt lat="43.117817678268196" lon="12.217606650148078"><ele>283.0</ele><time>2026-05-02T10:00:31Z</time></trkpt><trkpt lat="43.11786646130445" lon="12.217721288521645"><ele>283.0</ele><time>2026-05-02T10:00:33Z</time></trkpt><trkpt lat="43.1179453801955" lon="12.21783972787396"><ele>283.0</ele><time>2026-05-02T10:00:35Z</time></trkpt><trkpt lat="43.1180224313633" lon="12.21795279266448"><ele>283.0</ele><time>2026-05-02T10:00:37Z</time></trkpt><trkpt lat="43.11801824061023" lon="12.218074786614935"><ele>282.8333333333333</ele><time>2026-05-02T10:00:39Z</time></trkpt><trkpt lat="43.11802326185474" lon="12.21816497071816"><ele>282.66666666666663</ele><time>2026-05-02T10:00:41Z</time></trkpt><trkpt lat="43.11802433365239" lon="12.218267737873155"><ele>282.5</ele><time>2026-05-02T10:00:43Z</time></trkpt><trkpt lat="43.11802875677872" lon="12.21838563742001"><ele>282.3333333333333</ele><time>2026-05-02T10:00:45.999Z</time></trkpt><trkpt lat="43.11801955075557" lon="12.218491049822314"><ele>282.1666666666667</ele><time>2026-05-02T10:01:10Z</time></trkpt><trkpt lat="43.1181032214182" lon="12.218566181865938"><ele>282.0</ele><time>2026-05-02T10:01:13Z</time></trkpt><trkpt lat="43.11820775820937" lon="12.218582887110625"><ele>280.8333333333333</ele><time>2026-05-02T10:01:15Z</time></trkpt><trkpt lat="43.118309253845176" lon="12.218602247204894"><ele>279.6666666666667</ele><time>2026-05-02T10:01:17Z</time></trkpt><trkpt lat="43.118392230986984" lon="12.218614159944456"><ele>278.5</ele><time>2026-05-02T10:01:19Z</time></trkpt><trkpt lat="43.118477252425066" lon="12.218642697045075"><ele>277.33333333333337</ele><time>2026-05-02T10:01:21Z</time></trkpt><trkpt lat="43.11855372157711" lon="12.218670972454934"><ele>276.1666666666667</ele><time>2026-05-02T10:01:23Z</time></trkpt><trkpt lat="43.11862538147381" lon="12.218693272406334"><ele>275.0</ele><time>2026-05-02T10:01:25Z</time></trkpt><trkpt lat="43.11870981088386" lon="12.218741983269624"><ele>275.0</ele><time>2026-05-02T10:01:27Z</time></trkpt><trkpt lat="43.118782546369346" lon="12.218794077123414"><ele>275.0</ele><time>2026-05-02T10:01:29Z</time></trkpt><trkpt lat="43.11887966563124" lon="12.218847730525123"><ele>275.0</ele><time>2026-05-02T10:01:31Z</time></trkpt><trkpt lat="43.11897721831333" lon="12.218879614898269"><ele>275.0</ele><time>2026-05-02T10:01:33Z</time></trkpt><trkpt lat="43.119071558463325" lon="12.218908571164413"><ele>275.0</ele><time>2026-05-02T10:01:35Z</time></trkpt><trkpt lat="43.119153490775446" lon="12.218908951713342"><ele>274.6</ele><time>2026-05-02T10:01:37Z</time></trkpt><trkpt lat="43.11921981269547" lon="12.218926894119367"><ele>274.2</ele><time>2026-05-02T10:01:40Z</time></trkpt><trkpt lat="43.11932965297151" lon="12.218948974773552"><ele>273.8</ele><time>2026-05-02T10:01:44Z</time></trkpt><trkpt lat="43.119430170029204" lon="12.218981267541162"><ele>273.4</ele><time>2026-05-02T10:01:46Z</time></trkpt><trkpt lat="43.11951204598874" lon="12.21902939887325"><ele>273.0</ele><time>2026-05-02T10:01:48Z</time></trkpt><trkpt lat="43.11962027216944" lon="12.219140229619457"><ele>271.8</ele><time>2026-05-02T10:01:50Z</time></trkpt><trkpt lat="43.11966248511622" lon="12.21920424755116"><ele>270.6</ele><time>2026-05-02T10:01:51Z</time></trkpt><trkpt lat="43.11972163286095" lon="12.219323296318194"><ele>269.4</ele><time>2026-05-02T10:01:53Z</time></trkpt><trkpt lat="43.11978206257882" lon="12.21944703638667"><ele>268.2</ele><time>2026-05-02T10:01:55Z</time></trkpt><trkpt lat="43.11984152411773" lon="12.21956317207276"><ele>267.0</ele><time>2026-05-02T10:01:57Z</time></trkpt><trkpt lat="43.11991474446073" lon="12.219689631568952"><ele>267.0</ele><time>2026-05-02T10:01:59Z</time></trkpt><trkpt lat="43.120026392461426" lon="12.219755974274138"><ele>267.0</ele><time>2026-05-02T10:02:01Z</time></trkpt><trkpt lat="43.120128191304076" lon="12.219774149824348"><ele>267.0</ele><time>2026-05-02T10:02:03Z</time></trkpt><trkpt lat="43.120225094481036" lon="12.219841726303063"><ele>267.0</ele><time>2026-05-02T10:02:05Z</time></trkpt><trkpt lat="43.12028977594288" lon="12.219933159610873"><ele>267.0</ele><time>2026-05-02T10:02:07Z</time></trkpt><trkpt lat="43.120368278363244" lon="12.220034499797023"><ele>268.1666666666667</ele><time>2026-05-02T10:02:09Z</time></trkpt><trkpt lat="43.1204358885354" lon="12.220141615853274"><ele>269.3333333333333</ele><time>2026-05-02T10:02:11Z</time></trkpt><trkpt lat="43.120486555343625" lon="12.220240618143405"><ele>270.5</ele><time>2026-05-02T10:02:13Z</time></trkpt><trkpt lat="43.120523075158836" lon="12.220355613731261"><ele>271.66666666666663</ele><time>2026-05-02T10:02:15Z</time></trkpt><trkpt lat="43.12056062831928" lon="12.22047835977994"><ele>272.8333333333333</ele><time>2026-05-02T10:02:17Z</time></trkpt><trkpt lat="43.12054443586651" lon="12.220561938016752"><ele>274.0</ele><time>2026-05-02T10:02:18Z</time></trkpt><trkpt lat="43.120568344651595" lon="12.220661892415993"><ele>275.66666666666663</ele><time>2026-05-02T10:02:20Z</time></trkpt><trkpt lat="43.120610474518706" lon="12.22075213697491"><ele>277.3333333333333</ele><time>2026-05-02T10:02:22Z</time></trkpt><trkpt lat="43.12066322836333" lon="12.220827309267996"><ele>279.0</ele><time>2026-05-02T10:02:24Z</time></trkpt><trkpt lat="43.12072810758755" lon="12.220903821862656"><ele>280.6666666666667</ele><time>2026-05-02T10:02:26Z</time></trkpt><trkpt lat="43.1208025054169" lon="12.220968756761511"><ele>282.33333333333337</ele><time>2026-05-02T10:02:29Z</time></trkpt><trkpt lat="43.12086393354965" lon="12.220998420657471"><ele>284.0</ele><time>2026-05-02T10:02:31Z</time></trkpt><trkpt lat="43.12093123264448" lon="12.221023207451978"><ele>280.33333333333337</ele><time>2026-05-02T10:02:33Z</time></trkpt><trkpt lat="43.12102059893481" lon="12.221045729181713"><ele>276.6666666666667</ele><time>2026-05-02T10:02:35Z</time></trkpt><trkpt lat="43.12111090723747" lon="12.221071345068175"><ele>273.0</ele><time>2026-05-02T10:02:37Z</time></trkpt><trkpt lat="43.12118511515882" lon="12.221104531184036"><ele>269.3333333333333</ele><time>2026-05-02T10:02:39Z</time></trkpt><trkpt lat="43.12126560684155" lon="12.221147679509464"><ele>265.66666666666663</ele><time>2026-05-02T10:03:00Z</time></trkpt><trkpt lat="43.12133633376222" lon="12.221165520189066"><ele>262.0</ele><time>2026-05-02T10:03:02Z</time></trkpt><trkpt lat="43.12141368487709" lon="12.221201368625005"><ele>262.0</ele><time>2026-05-02T10:03:04Z</time></trkpt><trkpt lat="43.1214507805354" lon="12.221298190209927"><ele>262.0</ele><time>2026-05-02T10:03:06Z</time></trkpt><trkpt lat="43.12147504755707" lon="12.221419581291931"><ele>262.0</ele><time>2026-05-02T10:03:08Z</time></trkpt><trkpt lat="43.12145403966679" lon="12.221555946655709"><ele>262.0</ele><time>2026-05-02T10:03:10Z</time></trkpt><trkpt lat="43.12143505788813" lon="12.22165528136219"><ele>262.0</ele><time>2026-05-02T10:03:12Z</time></trkpt><trkpt lat="43.12140733597696" lon="12.221734190186101"><ele>262.0</ele><time>2026-05-02T10:03:14Z</time></trkpt><trkpt lat="43.1213606835753" lon="12.221864092092288"><ele>263.57142857142856</ele><time>2026-05-02T10:03:35Z</time></trkpt><trkpt lat="43.12131994108678" lon="12.221973646320526"><ele>265.14285714285717</ele><time>2026-05-02T10:03:37Z</time></trkpt><trkpt lat="43.12127530953963" lon="12.222056083709257"><ele>266.7142857142857</ele><time>2026-05-02T10:03:39Z</time></trkpt><trkpt lat="43.121218880452034" lon="12.222107494238656"><ele>268.2857142857143</ele><time>2026-05-02T10:03:41Z</time></trkpt><trkpt lat="43.121167787371576" lon="12.222178959448367"><ele>269.8571428571429</ele><time>2026-05-02T10:03:43Z</time></trkpt><trkpt lat="43.121128215247595" lon="12.222264189485507"><ele>271.42857142857144</ele><time>2026-05-02T10:03:45Z</time></trkpt><trkpt lat="43.12109462133337" lon="12.222344963047675"><ele>273.0</ele><time>2026-05-02T10:03:47Z</time></trkpt><trkpt lat="43.121057749100736" lon="12.222430286824478"><ele>275.8</ele><time>2026-05-02T10:03:49Z</time></trkpt><trkpt lat="43.121030625989086" lon="12.222532718228036"><ele>278.6</ele><time>2026-05-02T10:03:52Z</time></trkpt><trkpt lat="43.12108165114429" lon="12.222621157013487"><ele>281.4</ele><time>2026-05-02T10:04:47Z</time></trkpt><trkpt lat="43.12117301936293" lon="12.222710372455833"><ele>284.2</ele><time>2026-05-02T10:04:49Z</time></trkpt><trkpt lat="43.12123611268862" lon="12.222775865352705"><ele>287.0</ele><time>2026-05-02T10:04:51Z</time></trkpt><trkpt lat="43.12129621396642" lon="12.222904010906944"><ele>287.0</ele><time>2026-05-02T10:04:53Z</time></trkpt><trkpt lat="43.12131768564403" lon="12.222997870643676"><ele>287.0</ele><time>2026-05-02T10:04:55Z</time></trkpt><trkpt lat="43.12132548958058" lon="12.223100156544486"><ele>287.0</ele><time>2026-05-02T10:04:56.999Z</time></trkpt><trkpt lat="43.12131823987165" lon="12.223229029054117"><ele>287.0</ele><time>2026-05-02T10:04:59Z</time></trkpt><trkpt lat="43.121313675646014" lon="12.223335958909454"><ele>287.0</ele><time>2026-05-02T10:05:01Z</time></trkpt><trkpt lat="43.12130901254967" lon="12.223441137795483"><ele>287.0</ele><time>2026-05-02T10:05:03Z</time></trkpt><trkpt lat="43.12130118984634" lon="12.223565234279755"><ele>289.6</ele><time>2026-05-02T10:05:05Z</time></trkpt><trkpt lat="43.12129309312837" lon="12.2236791060757"><ele>292.2</ele><time>2026-05-02T10:05:07Z</time></trkpt><trkpt lat="43.12127102497559" lon="12.22379663868497"><ele>294.8</ele><time>2026-05-02T10:05:09Z</time></trkpt><trkpt lat="43.121242156351" lon="12.2239269008802"><ele>297.4</ele><time>2026-05-02T10:05:11Z</time></trkpt><trkpt lat="43.12119605792495" lon="12.224089544630933"><ele>300.0</ele><time>2026-05-02T10:05:13Z</time></trkpt><trkpt lat="43.12114157976532" lon="12.22422199421376"><ele>301.0</ele><time>2026-05-02T10:05:15Z</time></trkpt><trkpt lat="43.12108757578538" lon="12.224316728123325"><ele>302.0</ele><time>2026-05-02T10:05:17Z</time></trkpt><trkpt lat="43.121015586756364" lon="12.224418717518729"><ele>303.0</ele><time>2026-05-02T10:05:19Z</time></trkpt><trkpt lat="43.12094919812187" lon="12.224513176736664"><ele>304.0</ele><time>2026-05-02T10:05:21Z</time></trkpt><trkpt lat="43.12089928221794" lon="12.224629635044979"><ele>305.0</ele><time>2026-05-02T10:05:23Z</time></trkpt><trkpt lat="43.12086007254832" lon="12.224735203033177"><ele>304.6666666666667</ele><time>2026-05-02T10:05:25Z</time></trkpt><trkpt lat="43.12084303250524" lon="12.224819695541626"><ele>304.33333333333337</ele><time>2026-05-02T10:05:29Z</time></trkpt><trkpt lat="43.12082384144226" lon="12.224910735199364"><ele>304.0</ele><time>2026-05-02T10:05:35Z</time></trkpt><trkpt lat="43.120788410086504" lon="12.224993740563372"><ele>303.6666666666667</ele><time>2026-05-02T10:05:37Z</time></trkpt><trkpt lat="43.12075678594997" lon="12.225098743903358"><ele>303.3333333333333</ele><time>2026-05-02T10:05:41Z</time></trkpt><trkpt lat="43.12072619688759" lon="12.22523359420267"><ele>303.0</ele><time>2026-05-02T10:05:44Z</time></trkpt><trkpt lat="43.12070595132207" lon="12.22533879328565"><ele>304.6666666666667</ele><time>2026-05-02T10:05:46Z</time></trkpt><trkpt lat="43.12071218298959" lon="12.225470267072469"><ele>306.3333333333333</ele><time>2026-05-02T10:05:49Z</time></trkpt><trkpt lat="43.12073000325006" lon="12.225555488859396"><ele>308.0</ele><time>2026-05-02T10:05:51Z</time></trkpt><trkpt lat="43.12074105237731" lon="12.225650784021427"><ele>309.66666666666663</ele><time>2026-05-02T10:05:53Z</time></trkpt><trkpt lat="43.12077104942788" lon="12.225766000871227"><ele>311.3333333333333</ele><time>2026-05-02T10:05:56Z</time></trkpt><trkpt lat="43.12082630404818" lon="12.225811144646814"><ele>313.0</ele><time>2026-05-02T10:05:58Z</time></trkpt><trkpt lat="43.12090619998841" lon="12.225847280973866"><ele>313.0</ele><time>2026-05-02T10:06:00Z</time></trkpt><trkpt lat="43.12099274075914" lon="12.225883189915034"><ele>313.0</ele><time>2026-05-02T10:06:03Z</time></trkpt><trkpt lat="43.12105264300797" lon="12.2259388895321"><ele>313.0</ele><time>2026-05-02T10:06:05Z</time></trkpt><trkpt lat="43.121108922113905" lon="12.226027069747099"><ele>313.0</ele><time>2026-05-02T10:06:09Z</time></trkpt><trkpt lat="43.12113428237175" lon="12.226115377555473"><ele>313.0</ele><time>2026-05-02T10:06:11Z</time></trkpt><trkpt lat="43.12118230285927" lon="12.226224451710113"><ele>313.0</ele><time>2026-05-02T10:06:14Z</time></trkpt><trkpt lat="43.1212497309703" lon="12.22627192719222"><ele>313.0</ele><time>2026-05-02T10:06:16Z</time></trkpt><trkpt lat="43.1213253503313" lon="12.226316860848053"><ele>313.0</ele><time>2026-05-02T10:06:19Z</time></trkpt><trkpt lat="43.12140816377396" lon="12.226387295856561"><ele>313.0</ele><time>2026-05-02T10:06:21Z</time></trkpt><trkpt lat="43.121470977545705" lon="12.226445830168862"><ele>313.0</ele><time>2026-05-02T10:06:23Z</time></trkpt><trkpt lat="43.12154976333165" lon="12.226508593863114"><ele>313.0</ele><time>2026-05-02T10:06:26Z</time></trkpt><trkpt lat="43.121641198977436" lon="12.226552962103623"><ele>313.0</ele><time>2026-05-02T10:06:29Z</time></trkpt><trkpt lat="43.12173057335039" lon="12.226624990870713"><ele>313.3333333333333</ele><time>2026-05-02T10:06:31Z</time></trkpt><trkpt lat="43.12179872392301" lon="12.22664297338532"><ele>313.66666666666663</ele><time>2026-05-02T10:06:33Z</time></trkpt><trkpt lat="43.121865015545865" lon="12.226686510667047"><ele>314.0</ele><time>2026-05-02T10:06:35Z</time></trkpt><trkpt lat="43.12194894772189" lon="12.226791383165446"><ele>314.3333333333333</ele><time>2026-05-02T10:06:37Z</time></trkpt><trkpt lat="43.12201336533356" lon="12.226867802369464"><ele>314.6666666666667</ele><time>2026-05-02T10:06:38Z</time></trkpt><trkpt lat="43.12206336633332" lon="12.226921674052083"><ele>315.0</ele><time>2026-05-02T10:06:39Z</time></trkpt><trkpt lat="43.122131776144876" lon="12.227006385670606"><ele>315.0</ele><time>2026-05-02T10:06:41Z</time></trkpt><trkpt lat="43.12218518288348" lon="12.227101293391154"><ele>315.0</ele><time>2026-05-02T10:06:43Z</time></trkpt><trkpt lat="43.12222453879279" lon="12.227182578477624"><ele>315.0</ele><time>2026-05-02T10:06:45Z</time></trkpt><trkpt lat="43.122286176571386" lon="12.227295343423265"><ele>315.0</ele><time>2026-05-02T10:06:47Z</time></trkpt><trkpt lat="43.122327348776885" lon="12.227399543639072"><ele>315.0</ele><time>2026-05-02T10:06:49Z</time></trkpt><trkpt lat="43.12238193988984" lon="12.227527158654805"><ele>314.8333333333333</ele><time>2026-05-02T10:06:51Z</time></trkpt><trkpt lat="43.122437064008714" lon="12.227642349392983"><ele>314.6666666666667</ele><time>2026-05-02T10:06:53Z</time></trkpt><trkpt lat="43.12247642825909" lon="12.227744606980496"><ele>314.5</ele><time>2026-05-02T10:06:55Z</time></trkpt><trkpt lat="43.122511889756396" lon="12.227834211236742"><ele>314.33333333333337</ele><time>2026-05-02T10:06:57Z</time></trkpt><trkpt lat="43.12254956632952" lon="12.227929626667212"><ele>314.1666666666667</ele><time>2026-05-02T10:06:59Z</time></trkpt><trkpt lat="43.122616589452946" lon="12.228040168462424"><ele>314.0</ele><time>2026-05-02T10:07:13Z</time></trkpt><trkpt lat="43.12267708070652" lon="12.228080327947858"><ele>314.0</ele><time>2026-05-02T10:07:14Z</time></trkpt><trkpt lat="43.12277041781011" lon="12.228112030825338"><ele>314.0</ele><time>2026-05-02T10:07:16Z</time></trkpt><trkpt lat="43.12286978712156" lon="12.228142943119243"><ele>314.0</ele><time>2026-05-02T10:07:19Z</time></trkpt><trkpt lat="43.12294083418187" lon="12.22817773805292"><ele>314.0</ele><time>2026-05-02T10:07:20Z</time></trkpt><trkpt lat="43.12304619613327" lon="12.228197809094647"><ele>314.0</ele><time>2026-05-02T10:07:21Z</time></trkpt><trkpt lat="43.12316857897591" lon="12.228221122711656"><ele>315.0</ele><time>2026-05-02T10:07:22Z</time></trkpt><trkpt lat="43.12325758926827" lon="12.228240906984507"><ele>316.0</ele><time>2026-05-02T10:07:23Z</time></trkpt><trkpt lat="43.123365251403236" lon="12.228265587896882"><ele>317.0</ele><time>2026-05-02T10:07:24Z</time></trkpt><trkpt lat="43.12350427204468" lon="12.228305953351503"><ele>318.0</ele><time>2026-05-02T10:07:25Z</time></trkpt><trkpt lat="43.12365348936364" lon="12.228362756311322"><ele>318.0</ele><time>2026-05-02T10:07:26Z</time></trkpt><trkpt lat="43.12376509141785" lon="12.228411474576271"><ele>318.0</ele><time>2026-05-02T10:07:27Z</time></trkpt><trkpt lat="43.12385569674078" lon="12.22845162750948"><ele>318.0</ele><time>2026-05-02T10:07:28Z</time></trkpt><trkpt lat="43.12393416948208" lon="12.22848887432059"><ele>318.0</ele><time>2026-05-02T10:07:29Z</time></trkpt><trkpt lat="43.12399574316118" lon="12.228519978432457"><ele>318.0</ele><time>2026-05-02T10:07:30Z</time></trkpt><trkpt lat="43.124075603734234" lon="12.228584735218547"><ele>319.0</ele><time>2026-05-02T10:07:32Z</time></trkpt><trkpt lat="43.12413739112708" lon="12.228610829756061"><ele>320.0</ele><time>2026-05-02T10:07:34Z</time></trkpt><trkpt lat="43.12407526639036" lon="12.228639496477808"><ele>321.0</ele><time>2026-05-02T10:08:03Z</time></trkpt><trkpt lat="43.12412417367303" lon="12.228545241150737"><ele>322.0</ele><time>2026-05-02T10:08:18Z</time></trkpt><trkpt lat="43.12423192677027" lon="12.22851058130596"><ele>323.0</ele><time>2026-05-02T10:08:21Z</time></trkpt><trkpt lat="43.124354586331556" lon="12.228496825161864"><ele>324.0</ele><time>2026-05-02T10:08:23Z</time></trkpt><trkpt lat="43.124422963402665" lon="12.228488689085236"><ele>324.0</ele><time>2026-05-02T10:08:24Z</time></trkpt><trkpt lat="43.12452248865357" lon="12.228499154212047"><ele>324.0</ele><time>2026-05-02T10:08:26Z</time></trkpt><trkpt lat="43.1245975257756" lon="12.228487388536447"><ele>324.0</ele><time>2026-05-02T10:08:28Z</time></trkpt><trkpt lat="43.12466302567226" lon="12.228477118276588"><ele>324.0</ele><time>2026-05-02T10:08:30Z</time></trkpt><trkpt lat="43.124760352635874" lon="12.228461856904474"><ele>324.0</ele><time>2026-05-02T10:08:33Z</time></trkpt><trkpt lat="43.12482740007372" lon="12.228451343432173"><ele>324.0</ele><time>2026-05-02T10:08:35Z</time></trkpt><trkpt lat="43.12490740693044" lon="12.22842213093119"><ele>324.0</ele><time>2026-05-02T10:08:38Z</time></trkpt><trkpt lat="43.12475452920624" lon="12.228417524284865"><ele>324.0</ele><time>2026-05-02T10:11:23.001Z</time></trkpt><trkpt lat="43.124644868399955" lon="12.228439632445783"><ele>324.0</ele><time>2026-05-02T10:11:24.001Z</time></trkpt><trkpt lat="43.12449419448509" lon="12.228444437460059"><ele>324.0</ele><time>2026-05-02T10:11:25.001Z</time></trkpt><trkpt lat="43.12437010621" lon="12.228476786266576"><ele>324.0</ele><time>2026-05-02T10:11:26.001Z</time></trkpt><trkpt lat="43.12429838929957" lon="12.228496951949118"><ele>324.0</ele><time>2026-05-02T10:11:27.001Z</time></trkpt><trkpt lat="43.124198561963205" lon="12.228513441552753"><ele>324.0</ele><time>2026-05-02T10:11:29.001Z</time></trkpt><trkpt lat="43.124123875371545" lon="12.228521408184065"><ele>324.0</ele><time>2026-05-02T10:11:31.001Z</time></trkpt><trkpt lat="43.12399165239668" lon="12.228469384560247"><ele>324.0</ele><time>2026-05-02T10:11:33.001Z</time></trkpt><trkpt lat="43.12391177752547" lon="12.228447426928929"><ele>322.8</ele><time>2026-05-02T10:11:34.001Z</time></trkpt><trkpt lat="43.12384689287206" lon="12.228408232756516"><ele>321.59999999999997</ele><time>2026-05-02T10:11:35.001Z</time></trkpt><trkpt lat="43.123784512817345" lon="12.228380427347194"><ele>320.4</ele><time>2026-05-02T10:11:36.001Z</time></trkpt><trkpt lat="43.123708140437984" lon="12.22835833069109"><ele>319.2</ele><time>2026-05-02T10:11:37.001Z</time></trkpt><trkpt lat="43.123592747890996" lon="12.228290695647775"><ele>318.0</ele><time>2026-05-02T10:11:38.001Z</time></trkpt><trkpt lat="43.123447637135676" lon="12.228240914242187"><ele>318.0</ele><time>2026-05-02T10:11:39.001Z</time></trkpt><trkpt lat="43.12331599069858" lon="12.228225788597962"><ele>318.0</ele><time>2026-05-02T10:11:40.001Z</time></trkpt><trkpt lat="43.123203646436195" lon="12.228201482511846"><ele>318.0</ele><time>2026-05-02T10:11:41.001Z</time></trkpt><trkpt lat="43.12309421110741" lon="12.228179012007999"><ele>318.0</ele><time>2026-05-02T10:11:42.001Z</time></trkpt><trkpt lat="43.12299776389558" lon="12.22815780294604"><ele>317.3333333333333</ele><time>2026-05-02T10:11:43.001Z</time></trkpt><trkpt lat="43.12290365617526" lon="12.228138296852114"><ele>316.6666666666667</ele><time>2026-05-02T10:11:44.001Z</time></trkpt><trkpt lat="43.122815862208384" lon="12.228114615569448"><ele>316.0</ele><time>2026-05-02T10:11:45.001Z</time></trkpt><trkpt lat="43.122737469093586" lon="12.228086629433356"><ele>315.33333333333337</ele><time>2026-05-02T10:11:46Z</time></trkpt><trkpt lat="43.12266827635704" lon="12.228049732240883"><ele>314.6666666666667</ele><time>2026-05-02T10:11:47Z</time></trkpt><trkpt lat="43.12256773600621" lon="12.227997363779197"><ele>314.0</ele><time>2026-05-02T10:11:49Z</time></trkpt><trkpt lat="43.122506681556075" lon="12.22806324325122"><ele>314.0</ele><time>2026-05-02T10:11:50Z</time></trkpt><trkpt lat="43.122436235134124" lon="12.228084429376782"><ele>314.0</ele><time>2026-05-02T10:11:57Z</time></trkpt><trkpt lat="43.12237438068288" lon="12.228100917242491"><ele>314.0</ele><time>2026-05-02T10:11:58Z</time></trkpt><trkpt lat="43.12229825213043" lon="12.228112191570773"><ele>314.0</ele><time>2026-05-02T10:11:59Z</time></trkpt><trkpt lat="43.122205966414484" lon="12.228115566168064"><ele>314.0</ele><time>2026-05-02T10:12:00Z</time></trkpt><trkpt lat="43.12211669584629" lon="12.22807257753418"><ele>314.0</ele><time>2026-05-02T10:12:01Z</time></trkpt><trkpt lat="43.122018325740214" lon="12.228064658622497"><ele>314.8</ele><time>2026-05-02T10:12:02Z</time></trkpt><trkpt lat="43.12190514893233" lon="12.228047563349394"><ele>315.59999999999997</ele><time>2026-05-02T10:12:03Z</time></trkpt><trkpt lat="43.12179537917906" lon="12.228030529312065"><ele>316.4</ele><time>2026-05-02T10:12:04Z</time></trkpt><trkpt lat="43.121687718526154" lon="12.22801447427839"><ele>317.2</ele><time>2026-05-02T10:12:05Z</time></trkpt><trkpt lat="43.12158040983089" lon="12.227999731639194"><ele>318.0</ele><time>2026-05-02T10:12:06Z</time></trkpt><trkpt lat="43.121471111878435" lon="12.227985993158594"><ele>318.0</ele><time>2026-05-02T10:12:07Z</time></trkpt><trkpt lat="43.12136136655139" lon="12.227974738154026"><ele>318.0</ele><time>2026-05-02T10:12:08Z</time></trkpt><trkpt lat="43.12125496226493" lon="12.227968168150776"><ele>318.0</ele><time>2026-05-02T10:12:09Z</time></trkpt><trkpt lat="43.12115155149431" lon="12.227963907031679"><ele>318.0</ele><time>2026-05-02T10:12:10Z</time></trkpt><trkpt lat="43.12104822376577" lon="12.227965761071943"><ele>318.0</ele><time>2026-05-02T10:12:11Z</time></trkpt><trkpt lat="43.12094546743643" lon="12.227979141114949"><ele>318.0</ele><time>2026-05-02T10:12:12Z</time></trkpt><trkpt lat="43.12084374114146" lon="12.22800295360561"><ele>318.0</ele><time>2026-05-02T10:12:13Z</time></trkpt><trkpt lat="43.1207497885349" lon="12.228030583698931"><ele>318.0</ele><time>2026-05-02T10:12:14Z</time></trkpt><trkpt lat="43.12066099563147" lon="12.228059898174095"><ele>318.0</ele><time>2026-05-02T10:12:15Z</time></trkpt><trkpt lat="43.12057844620209" lon="12.228087644603253"><ele>318.0</ele><time>2026-05-02T10:12:16Z</time></trkpt><trkpt lat="43.12049596257625" lon="12.228115934774836"><ele>313.0</ele><time>2026-05-02T10:12:17Z</time></trkpt><trkpt lat="43.12041455956673" lon="12.228145840211596"><ele>308.0</ele><time>2026-05-02T10:12:18Z</time></trkpt><trkpt lat="43.120331150694845" lon="12.228178582666235"><ele>303.0</ele><time>2026-05-02T10:12:19Z</time></trkpt><trkpt lat="43.1202373252467" lon="12.228215468808141"><ele>298.0</ele><time>2026-05-02T10:12:20Z</time></trkpt><trkpt lat="43.120134234358076" lon="12.228252776315589"><ele>293.0</ele><time>2026-05-02T10:12:21Z</time></trkpt><trkpt lat="43.12002706858367" lon="12.228280494355696"><ele>293.0</ele><time>2026-05-02T10:12:22Z</time></trkpt><trkpt lat="43.119926864425956" lon="12.2282991446634"><ele>293.0</ele><time>2026-05-02T10:12:23Z</time></trkpt><trkpt lat="43.11982714242149" lon="12.22831090219702"><ele>293.0</ele><time>2026-05-02T10:12:24Z</time></trkpt><trkpt lat="43.11972649393803" lon="12.228319645611057"><ele>293.0</ele><time>2026-05-02T10:12:25Z</time></trkpt><trkpt lat="43.11963135896402" lon="12.228325699010286"><ele>293.0</ele><time>2026-05-02T10:12:26Z</time></trkpt><trkpt lat="43.11955208232055" lon="12.228325167457145"><ele>292.83333333333337</ele><time>2026-05-02T10:12:27Z</time></trkpt><trkpt lat="43.11948691587011" lon="12.228316693650717"><ele>292.6666666666667</ele><time>2026-05-02T10:12:28Z</time></trkpt><trkpt lat="43.1194203524721" lon="12.228299942620595"><ele>292.5</ele><time>2026-05-02T10:12:30Z</time></trkpt><trkpt lat="43.11934792077504" lon="12.228258275032884"><ele>292.3333333333333</ele><time>2026-05-02T10:12:32Z</time></trkpt><trkpt lat="43.119234464923096" lon="12.228218408523993"><ele>292.16666666666663</ele><time>2026-05-02T10:12:34Z</time></trkpt><trkpt lat="43.11914652346024" lon="12.228316740460052"><ele>292.0</ele><time>2026-05-02T10:12:36Z</time></trkpt><trkpt lat="43.11907873720889" lon="12.228358772263324"><ele>292.0</ele><time>2026-05-02T10:12:38Z</time></trkpt><trkpt lat="43.11897082787407" lon="12.228455048250273"><ele>292.0</ele><time>2026-05-02T10:12:40Z</time></trkpt><trkpt lat="43.11891155229727" lon="12.22849988894684"><ele>292.0</ele><time>2026-05-02T10:12:41Z</time></trkpt><trkpt lat="43.118851548345816" lon="12.228538170622805"><ele>292.0</ele><time>2026-05-02T10:12:42Z</time></trkpt><trkpt lat="43.11879003038098" lon="12.228570281644549"><ele>292.0</ele><time>2026-05-02T10:12:43Z</time></trkpt><trkpt lat="43.118718006081565" lon="12.228602063630676"><ele>292.0</ele><time>2026-05-02T10:12:44Z</time></trkpt><trkpt lat="43.11863899413133" lon="12.228629420457748"><ele>292.0</ele><time>2026-05-02T10:12:45Z</time></trkpt><trkpt lat="43.118559792287094" lon="12.228650415397528"><ele>292.0</ele><time>2026-05-02T10:12:46Z</time></trkpt><trkpt lat="43.11848587618549" lon="12.228667029063466"><ele>292.0</ele><time>2026-05-02T10:12:47Z</time></trkpt><trkpt lat="43.118403948529924" lon="12.228683594274086"><ele>292.0</ele><time>2026-05-02T10:12:48Z</time></trkpt><trkpt lat="43.11832825055274" lon="12.228699100749862"><ele>292.0</ele><time>2026-05-02T10:12:49Z</time></trkpt><trkpt lat="43.11825304587608" lon="12.22871457495076"><ele>292.0</ele><time>2026-05-02T10:12:50Z</time></trkpt><trkpt lat="43.11818381434295" lon="12.228728820121912"><ele>292.0</ele><time>2026-05-02T10:12:51Z</time></trkpt><trkpt lat="43.11808164198048" lon="12.228750734415595"><ele>292.0</ele><time>2026-05-02T10:12:53Z</time></trkpt><trkpt lat="43.11801727942796" lon="12.228765596764168"><ele>292.0</ele><time>2026-05-02T10:13:02Z</time></trkpt><trkpt lat="43.11810826499843" lon="12.228741039480724"><ele>292.0</ele><time>2026-05-02T10:13:08Z</time></trkpt><trkpt lat="43.1182226601354" lon="12.228782919461663"><ele>292.0</ele><time>2026-05-02T10:13:09Z</time></trkpt><trkpt lat="43.11830475121913" lon="12.228771450796714"><ele>292.0</ele><time>2026-05-02T10:13:10Z</time></trkpt><trkpt lat="43.11837392006207" lon="12.228712025685688"><ele>292.0</ele><time>2026-05-02T10:13:12Z</time></trkpt><trkpt lat="43.11833805730622" lon="12.228576336344403"><ele>292.0</ele><time>2026-05-02T10:13:14Z</time></trkpt><trkpt lat="43.1183100011145" lon="12.228449693878895"><ele>292.0</ele><time>2026-05-02T10:13:16Z</time></trkpt><trkpt lat="43.11824039573634" lon="12.228338315300531"><ele>292.0</ele><time>2026-05-02T10:13:18Z</time></trkpt><trkpt lat="43.11816959680206" lon="12.22834787168828"><ele>292.0</ele><time>2026-05-02T10:13:20Z</time></trkpt><trkpt lat="43.118048151252744" lon="12.228316257265627"><ele>292.0</ele><time>2026-05-02T10:13:22Z</time></trkpt><trkpt lat="43.11795950526488" lon="12.228355590842074"><ele>292.0</ele><time>2026-05-02T10:13:23.001Z</time></trkpt><trkpt lat="43.1178774513581" lon="12.228391482945728"><ele>292.0</ele><time>2026-05-02T10:13:24.001Z</time></trkpt><trkpt lat="43.11780489845756" lon="12.228341136140715"><ele>292.0</ele><time>2026-05-02T10:13:25.001Z</time></trkpt><trkpt lat="43.117742164704694" lon="12.228285553953297"><ele>292.0</ele><time>2026-05-02T10:13:26.001Z</time></trkpt><trkpt lat="43.117646795115725" lon="12.228229506897518"><ele>292.0</ele><time>2026-05-02T10:13:27.001Z</time></trkpt><trkpt lat="43.11754711591036" lon="12.228131155130209"><ele>292.0</ele><time>2026-05-02T10:13:28.001Z</time></trkpt><trkpt lat="43.11743884301157" lon="12.228023607521438"><ele>292.0</ele><time>2026-05-02T10:13:29.001Z</time></trkpt><trkpt lat="43.11735796832417" lon="12.227946474185849"><ele>293.66666666666663</ele><time>2026-05-02T10:13:30.001Z</time></trkpt><trkpt lat="43.117290286734914" lon="12.227901541573619"><ele>295.3333333333333</ele><time>2026-05-02T10:13:31.001Z</time></trkpt><trkpt lat="43.11718961865842" lon="12.227940717686993"><ele>297.0</ele><time>2026-05-02T10:13:33.001Z</time></trkpt><trkpt lat="43.11712264134202" lon="12.227999331605053"><ele>298.6666666666667</ele><time>2026-05-02T10:13:35.001Z</time></trkpt><trkpt lat="43.117039678486506" lon="12.228086294965406"><ele>300.33333333333337</ele><time>2026-05-02T10:13:37.001Z</time></trkpt><trkpt lat="43.11699632935378" lon="12.228161497614822"><ele>302.0</ele><time>2026-05-02T10:13:38.001Z</time></trkpt><trkpt lat="43.116907012045104" lon="12.228244097573459"><ele>302.0</ele><time>2026-05-02T10:13:40.001Z</time></trkpt><trkpt lat="43.11685020194813" lon="12.22828642698931"><ele>302.0</ele><time>2026-05-02T10:13:41.001Z</time></trkpt><trkpt lat="43.11678536982626" lon="12.228324318213057"><ele>302.0</ele><time>2026-05-02T10:13:42.001Z</time></trkpt><trkpt lat="43.116684532481656" lon="12.228382687634644"><ele>302.0</ele><time>2026-05-02T10:13:44.001Z</time></trkpt><trkpt lat="43.1166205918521" lon="12.22843569649735"><ele>302.0</ele><time>2026-05-02T10:13:46Z</time></trkpt><trkpt lat="43.116581646568015" lon="12.228568823453605"><ele>302.0</ele><time>2026-05-02T10:13:48Z</time></trkpt><trkpt lat="43.11654298484507" lon="12.228671155596635"><ele>302.2</ele><time>2026-05-02T10:13:51Z</time></trkpt><trkpt lat="43.11648048568971" lon="12.22883727869815"><ele>302.4</ele><time>2026-05-02T10:13:53Z</time></trkpt><trkpt lat="43.116422380278465" lon="12.228903386221093"><ele>302.6</ele><time>2026-05-02T10:13:54Z</time></trkpt><trkpt lat="43.1163453792782" lon="12.228982969553652"><ele>302.8</ele><time>2026-05-02T10:13:56Z</time></trkpt><trkpt lat="43.1162558525246" lon="12.229068872740745"><ele>303.0</ele><time>2026-05-02T10:13:58Z</time></trkpt><trkpt lat="43.11615533399144" lon="12.22913261803955"><ele>303.0</ele><time>2026-05-02T10:14:00Z</time></trkpt><trkpt lat="43.116031756629035" lon="12.229113961106451"><ele>303.0</ele><time>2026-05-02T10:14:03Z</time></trkpt><trkpt lat="43.11598911259313" lon="12.22920758428193"><ele>303.0</ele><time>2026-05-02T10:14:04Z</time></trkpt><trkpt lat="43.11590250611864" lon="12.229246529954185"><ele>303.0</ele><time>2026-05-02T10:14:06Z</time></trkpt><trkpt lat="43.11580401915536" lon="12.229160328686097"><ele>303.0</ele><time>2026-05-02T10:14:09Z</time></trkpt><trkpt lat="43.11572778469104" lon="12.229150189849971"><ele>303.8</ele><time>2026-05-02T10:14:11Z</time></trkpt><trkpt lat="43.11562927837512" lon="12.229166764976593"><ele>304.6</ele><time>2026-05-02T10:14:13Z</time></trkpt><trkpt lat="43.11550330454901" lon="12.2291687530926"><ele>305.4</ele><time>2026-05-02T10:14:15Z</time></trkpt><trkpt lat="43.1154318484087" lon="12.229163196144436"><ele>306.2</ele><time>2026-05-02T10:14:16Z</time></trkpt><trkpt lat="43.11530507397515" lon="12.229162286179172"><ele>307.0</ele><time>2026-05-02T10:14:18Z</time></trkpt><trkpt lat="43.11518882346674" lon="12.229185742159942"><ele>307.0</ele><time>2026-05-02T10:14:20Z</time></trkpt><trkpt lat="43.11508906737301" lon="12.229194732834316"><ele>307.0</ele><time>2026-05-02T10:14:22Z</time></trkpt><trkpt lat="43.1150109947899" lon="12.229210455153469"><ele>307.0</ele><time>2026-05-02T10:14:24Z</time></trkpt><trkpt lat="43.11494876382275" lon="12.229226724050521"><ele>307.0</ele><time>2026-05-02T10:14:26Z</time></trkpt><trkpt lat="43.114864917084205" lon="12.229262297002009"><ele>307.0</ele><time>2026-05-02T10:14:39Z</time></trkpt><trkpt lat="43.1147624198694" lon="12.229312099898175"><ele>307.0</ele><time>2026-05-02T10:14:41Z</time></trkpt><trkpt lat="43.11467616439013" lon="12.229371948890822"><ele>308.0</ele><time>2026-05-02T10:14:43Z</time></trkpt><trkpt lat="43.11456084130952" lon="12.22942406513125"><ele>309.0</ele><time>2026-05-02T10:14:45Z</time></trkpt><trkpt lat="43.114478340840535" lon="12.229417621705167"><ele>310.0</ele><time>2026-05-02T10:14:46Z</time></trkpt><trkpt lat="43.11438168428932" lon="12.229399235526277"><ele>311.0</ele><time>2026-05-02T10:14:47Z</time></trkpt><trkpt lat="43.11430624884926" lon="12.229391458290623"><ele>312.0</ele><time>2026-05-02T10:14:48Z</time></trkpt><trkpt lat="43.114178363871034" lon="12.229415394183901"><ele>316.0</ele><time>2026-05-02T10:14:50Z</time></trkpt><trkpt lat="43.114064588752804" lon="12.229431607097665"><ele>320.0</ele><time>2026-05-02T10:14:52Z</time></trkpt><trkpt lat="43.11397208648675" lon="12.229418607057458"><ele>324.0</ele><time>2026-05-02T10:14:54Z</time></trkpt><trkpt lat="43.1139093219912" lon="12.229473496373563"><ele>328.0</ele><time>2026-05-02T10:14:56Z</time></trkpt><trkpt lat="43.11388729054142" lon="12.229557760418164"><ele>332.0</ele><time>2026-05-02T10:14:59Z</time></trkpt><trkpt lat="43.11389126351428" lon="12.229667047115694"><ele>336.0</ele><time>2026-05-02T10:15:02Z</time></trkpt><trkpt lat="43.11394395807314" lon="12.229789523126913"><ele>336.3333333333333</ele><time>2026-05-02T10:15:04Z</time></trkpt><trkpt lat="43.11399877878916" lon="12.229914353588544"><ele>336.6666666666667</ele><time>2026-05-02T10:15:06Z</time></trkpt><trkpt lat="43.114033022271144" lon="12.229986915828627"><ele>337.0</ele><time>2026-05-02T10:15:08Z</time></trkpt><trkpt lat="43.1140157186745" lon="12.230092639639443"><ele>337.33333333333337</ele><time>2026-05-02T10:15:47Z</time></trkpt><trkpt lat="43.11397566123454" lon="12.230206005092583"><ele>337.6666666666667</ele><time>2026-05-02T10:15:49Z</time></trkpt><trkpt lat="43.11396197559825" lon="12.230321877808892"><ele>338.0</ele><time>2026-05-02T10:15:51Z</time></trkpt><trkpt lat="43.1139517375803" lon="12.230466990834334"><ele>338.0</ele><time>2026-05-02T10:15:53Z</time></trkpt><trkpt lat="43.11392249636005" lon="12.23056865809141"><ele>338.0</ele><time>2026-05-02T10:15:55Z</time></trkpt><trkpt lat="43.11390036299845" lon="12.230657747018416"><ele>338.0</ele><time>2026-05-02T10:15:59Z</time></trkpt><trkpt lat="43.11388670289909" lon="12.230787255843012"><ele>338.0</ele><time>2026-05-02T10:16:16Z</time></trkpt><trkpt lat="43.113879291592866" lon="12.230891198316169"><ele>338.0</ele><time>2026-05-02T10:16:19Z</time></trkpt><trkpt lat="43.113844459251375" lon="12.231004923858837"><ele>338.0</ele><time>2026-05-02T10:16:21Z</time></trkpt><trkpt lat="43.11381307158438" lon="12.231097505803941"><ele>338.1666666666667</ele><time>2026-05-02T10:16:24Z</time></trkpt><trkpt lat="43.11378930528643" lon="12.231185613388398"><ele>338.33333333333337</ele><time>2026-05-02T10:16:26Z</time></trkpt><trkpt lat="43.11372252999318" lon="12.23130667374145"><ele>338.5</ele><time>2026-05-02T10:16:28Z</time></trkpt><trkpt lat="43.113672245605244" lon="12.231395115228212"><ele>338.6666666666667</ele><time>2026-05-02T10:16:30Z</time></trkpt><trkpt lat="43.113653264350056" lon="12.231505145675822"><ele>338.8333333333333</ele><time>2026-05-02T10:16:33Z</time></trkpt><trkpt lat="43.113639526006004" lon="12.231608148355365"><ele>339.0</ele><time>2026-05-02T10:16:35Z</time></trkpt><trkpt lat="43.113622022353496" lon="12.231738578627056"><ele>338.57142857142856</ele><time>2026-05-02T10:16:37Z</time></trkpt><trkpt lat="43.113611525050715" lon="12.231845840914042"><ele>338.14285714285717</ele><time>2026-05-02T10:16:39Z</time></trkpt><trkpt lat="43.11360447311688" lon="12.231946643135377"><ele>337.7142857142857</ele><time>2026-05-02T10:16:41Z</time></trkpt><trkpt lat="43.113602376390396" lon="12.232038504494607"><ele>337.2857142857143</ele><time>2026-05-02T10:16:43Z</time></trkpt><trkpt lat="43.1135909264632" lon="12.232137430581972"><ele>336.8571428571429</ele><time>2026-05-02T10:16:45Z</time></trkpt><trkpt lat="43.11358461524352" lon="12.232228858863053"><ele>336.42857142857144</ele><time>2026-05-02T10:16:47Z</time></trkpt><trkpt lat="43.1135779539505" lon="12.2323333563754"><ele>336.0</ele><time>2026-05-02T10:16:50Z</time></trkpt><trkpt lat="43.11352802287215" lon="12.232395516508383"><ele>336.0</ele><time>2026-05-02T10:17:10Z</time></trkpt><trkpt lat="43.113449913254954" lon="12.232427912582834"><ele>336.0</ele><time>2026-05-02T10:17:12Z</time></trkpt><trkpt lat="43.11340560605229" lon="12.232326429950147"><ele>336.0</ele><time>2026-05-02T10:17:31.999Z</time></trkpt><trkpt lat="43.11330595467437" lon="12.232181055227061"><ele>336.0</ele><time>2026-05-02T10:17:34.001Z</time></trkpt><trkpt lat="43.11324267446748" lon="12.232087197153247"><ele>336.0</ele><time>2026-05-02T10:17:35.001Z</time></trkpt><trkpt lat="43.11318409976167" lon="12.231981987057681"><ele>336.0</ele><time>2026-05-02T10:17:36.001Z</time></trkpt><trkpt lat="43.11313888334614" lon="12.231898037111382"><ele>336.0</ele><time>2026-05-02T10:17:37.001Z</time></trkpt><trkpt lat="43.1130744496602" lon="12.231790195145864"><ele>336.0</ele><time>2026-05-02T10:17:38.001Z</time></trkpt><trkpt lat="43.11300181219573" lon="12.231683687375115"><ele>336.0</ele><time>2026-05-02T10:17:39.001Z</time></trkpt><trkpt lat="43.11295864777258" lon="12.231603237251813"><ele>336.0</ele><time>2026-05-02T10:17:40.001Z</time></trkpt><trkpt lat="43.1128954076113" lon="12.231585061612325"><ele>336.0</ele><time>2026-05-02T10:17:51.001Z</time></trkpt><trkpt lat="43.11284084658009" lon="12.231681357493011"><ele>336.0</ele><time>2026-05-02T10:17:54Z</time></trkpt><trkpt lat="43.1127682881006" lon="12.231734249558183"><ele>336.0</ele><time>2026-05-02T10:17:56Z</time></trkpt><trkpt lat="43.11270495325703" lon="12.231787520292432"><ele>336.0</ele><time>2026-05-02T10:17:59Z</time></trkpt><trkpt lat="43.112664712236686" lon="12.23188685716287"><ele>336.0</ele><time>2026-05-02T10:18:02Z</time></trkpt><trkpt lat="43.11261715877184" lon="12.232000603606375"><ele>336.0</ele><time>2026-05-02T10:18:17Z</time></trkpt><trkpt lat="43.11260597078608" lon="12.232097567651655"><ele>336.0</ele><time>2026-05-02T10:18:20Z</time></trkpt><trkpt lat="43.11254418626448" lon="12.232166894475174"><ele>336.0</ele><time>2026-05-02T10:18:24Z</time></trkpt><trkpt lat="43.11260860668566" lon="12.232189557035761"><ele>336.0</ele><time>2026-05-02T10:18:30Z</time></trkpt><trkpt lat="43.11256153903604" lon="12.232260197826479"><ele>336.0</ele><time>2026-05-02T10:18:53Z</time></trkpt><trkpt lat="43.11249852255759" lon="12.232268799879796"><ele>336.0</ele><time>2026-05-02T10:18:57Z</time></trkpt><trkpt lat="43.11241951092754" lon="12.232247990271047"><ele>336.0</ele><time>2026-05-02T10:19:01Z</time></trkpt><trkpt lat="43.11234869936364" lon="12.232248821407342"><ele>336.0</ele><time>2026-05-02T10:19:05Z</time></trkpt><trkpt lat="43.11226931814316" lon="12.232292314197547"><ele>336.0</ele><time>2026-05-02T10:19:16Z</time></trkpt><trkpt lat="43.112185920023336" lon="12.232364617017138"><ele>328.75</ele><time>2026-05-02T10:19:18Z</time></trkpt><trkpt lat="43.11209468836528" lon="12.232448708008828"><ele>321.5</ele><time>2026-05-02T10:19:20Z</time></trkpt><trkpt lat="43.11198887140186" lon="12.23249653838126"><ele>314.25</ele><time>2026-05-02T10:19:22Z</time></trkpt><trkpt lat="43.111870320643675" lon="12.232522330786473"><ele>307.0</ele><time>2026-05-02T10:19:24Z</time></trkpt><trkpt lat="43.11175873127238" lon="12.232564055371066"><ele>307.0</ele><time>2026-05-02T10:19:26Z</time></trkpt><trkpt lat="43.11164538660597" lon="12.232564147938016"><ele>307.0</ele><time>2026-05-02T10:19:28Z</time></trkpt><trkpt lat="43.11156643726807" lon="12.232466306611022"><ele>307.0</ele><time>2026-05-02T10:19:30Z</time></trkpt><trkpt lat="43.11150630537405" lon="12.232406960549067"><ele>307.0</ele><time>2026-05-02T10:19:32Z</time></trkpt><trkpt lat="43.11147481235631" lon="12.232303912465596"><ele>307.0</ele><time>2026-05-02T10:19:34Z</time></trkpt><trkpt lat="43.11148801224018" lon="12.232161642167346"><ele>305.4</ele><time>2026-05-02T10:19:36Z</time></trkpt><trkpt lat="43.11148388191672" lon="12.232053823535107"><ele>303.79999999999995</ele><time>2026-05-02T10:19:39Z</time></trkpt><trkpt lat="43.111525184658305" lon="12.2319528282059"><ele>302.2</ele><time>2026-05-02T10:19:41.001Z</time></trkpt><trkpt lat="43.11154575291227" lon="12.231832734867469"><ele>300.59999999999997</ele><time>2026-05-02T10:19:52.001Z</time></trkpt><trkpt lat="43.11160910590185" lon="12.231699170425555"><ele>299.0</ele><time>2026-05-02T10:19:54Z</time></trkpt><trkpt lat="43.111715630175574" lon="12.231646240929829"><ele>301.6666666666667</ele><time>2026-05-02T10:19:56Z</time></trkpt><trkpt lat="43.11175485527904" lon="12.231534928562942"><ele>304.33333333333337</ele><time>2026-05-02T10:19:58Z</time></trkpt><trkpt lat="43.11179641259489" lon="12.231461954998016"><ele>307.0</ele><time>2026-05-02T10:20:00Z</time></trkpt><trkpt lat="43.11180764211872" lon="12.231372646597006"><ele>309.6666666666667</ele><time>2026-05-02T10:20:02Z</time></trkpt><trkpt lat="43.111782443788435" lon="12.231233679911155"><ele>312.3333333333333</ele><time>2026-05-02T10:20:04Z</time></trkpt><trkpt lat="43.111747827232605" lon="12.231103938694503"><ele>315.0</ele><time>2026-05-02T10:20:06Z</time></trkpt><trkpt lat="43.11166996102313" lon="12.230978183119277"><ele>315.3333333333333</ele><time>2026-05-02T10:20:08Z</time></trkpt><trkpt lat="43.11159351088124" lon="12.230858524751891"><ele>315.6666666666667</ele><time>2026-05-02T10:20:10Z</time></trkpt><trkpt lat="43.111505178955085" lon="12.230786599962089"><ele>316.0</ele><time>2026-05-02T10:20:12Z</time></trkpt><trkpt lat="43.11143778979964" lon="12.23078713991801"><ele>316.33333333333337</ele><time>2026-05-02T10:20:13Z</time></trkpt><trkpt lat="43.11136856407893" lon="12.230834402604021"><ele>316.6666666666667</ele><time>2026-05-02T10:20:14Z</time></trkpt><trkpt lat="43.11130876908552" lon="12.230877891157574"><ele>317.0</ele><time>2026-05-02T10:20:15Z</time></trkpt><trkpt lat="43.1112506734639" lon="12.23091618096912"><ele>317.0</ele><time>2026-05-02T10:20:16Z</time></trkpt><trkpt lat="43.11115485365487" lon="12.23098981437775"><ele>317.0</ele><time>2026-05-02T10:20:18Z</time></trkpt><trkpt lat="43.1110739994545" lon="12.231050206577297"><ele>317.0</ele><time>2026-05-02T10:20:20Z</time></trkpt><trkpt lat="43.1109852815121" lon="12.231115547857971"><ele>317.0</ele><time>2026-05-02T10:20:22Z</time></trkpt><trkpt lat="43.110899522733426" lon="12.231186946759891"><ele>317.0</ele><time>2026-05-02T10:20:24Z</time></trkpt><trkpt lat="43.11080554508633" lon="12.2312112347768"><ele>319.6</ele><time>2026-05-02T10:20:26Z</time></trkpt><trkpt lat="43.11070432840397" lon="12.231215366074077"><ele>322.2</ele><time>2026-05-02T10:20:28Z</time></trkpt><trkpt lat="43.110621196570804" lon="12.231124681586682"><ele>324.8</ele><time>2026-05-02T10:20:30Z</time></trkpt><trkpt lat="43.11053343365724" lon="12.231060606501728"><ele>327.4</ele><time>2026-05-02T10:20:32Z</time></trkpt><trkpt lat="43.110448996945514" lon="12.23098336256681"><ele>330.0</ele><time>2026-05-02T10:20:34Z</time></trkpt><trkpt lat="43.11035528438275" lon="12.230913288754556"><ele>330.0</ele><time>2026-05-02T10:20:36Z</time></trkpt><trkpt lat="43.11028093771157" lon="12.230880464936504"><ele>330.0</ele><time>2026-05-02T10:20:38Z</time></trkpt><trkpt lat="43.11020710838749" lon="12.230954560887625"><ele>330.0</ele><time>2026-05-02T10:20:40Z</time></trkpt><trkpt lat="43.11018414053713" lon="12.231122860478882"><ele>330.0</ele><time>2026-05-02T10:20:42Z</time></trkpt><trkpt lat="43.110174346702216" lon="12.231217375300687"><ele>330.0</ele><time>2026-05-02T10:20:43Z</time></trkpt><trkpt lat="43.11016025069964" lon="12.23131968273946"><ele>330.0</ele><time>2026-05-02T10:20:44Z</time></trkpt><trkpt lat="43.11013893881886" lon="12.231443890757792"><ele>327.6666666666667</ele><time>2026-05-02T10:20:45Z</time></trkpt><trkpt lat="43.11011146124756" lon="12.23156134684261"><ele>325.3333333333333</ele><time>2026-05-02T10:20:46Z</time></trkpt><trkpt lat="43.1100651181384" lon="12.231685298626374"><ele>323.0</ele><time>2026-05-02T10:20:47Z</time></trkpt><trkpt lat="43.1100264009288" lon="12.231806418869033"><ele>320.66666666666663</ele><time>2026-05-02T10:20:48Z</time></trkpt><trkpt lat="43.109991645308526" lon="12.231885925770461"><ele>318.3333333333333</ele><time>2026-05-02T10:20:49Z</time></trkpt><trkpt lat="43.109937612791526" lon="12.231965142274168"><ele>316.0</ele><time>2026-05-02T10:20:50Z</time></trkpt><trkpt lat="43.10988079743319" lon="12.23205996498787"><ele>321.8</ele><time>2026-05-02T10:20:52Z</time></trkpt><trkpt lat="43.10982725249383" lon="12.232164378754433"><ele>327.6</ele><time>2026-05-02T10:20:55Z</time></trkpt><trkpt lat="43.109820950738545" lon="12.23229253555283"><ele>333.4</ele><time>2026-05-02T10:20:58Z</time></trkpt><trkpt lat="43.109810534518644" lon="12.232388321007274"><ele>339.2</ele><time>2026-05-02T10:21:00Z</time></trkpt><trkpt lat="43.109815743021805" lon="12.232502294869763"><ele>345.0</ele><time>2026-05-02T10:21:03Z</time></trkpt><trkpt lat="43.10982474387039" lon="12.232653843505203"><ele>345.0</ele><time>2026-05-02T10:21:14Z</time></trkpt><trkpt lat="43.10980983461245" lon="12.232751811573179"><ele>345.0</ele><time>2026-05-02T10:21:15Z</time></trkpt><trkpt lat="43.109787451284895" lon="12.2328553557186"><ele>345.0</ele><time>2026-05-02T10:21:16Z</time></trkpt><trkpt lat="43.1097346116624" lon="12.232952086306097"><ele>345.0</ele><time>2026-05-02T10:21:17Z</time></trkpt><trkpt lat="43.10970535583522" lon="12.233075467832562"><ele>345.0</ele><time>2026-05-02T10:21:18Z</time></trkpt><trkpt lat="43.109677811992356" lon="12.233181893754464"><ele>345.0</ele><time>2026-05-02T10:21:19Z</time></trkpt><trkpt lat="43.109642477403995" lon="12.233299839585179"><ele>342.0</ele><time>2026-05-02T10:21:20Z</time></trkpt><trkpt lat="43.109613442373124" lon="12.233392954970492"><ele>339.0</ele><time>2026-05-02T10:21:21Z</time></trkpt><trkpt lat="43.109577485027174" lon="12.23350521305436"><ele>336.0</ele><time>2026-05-02T10:21:22Z</time></trkpt><trkpt lat="43.10954082599597" lon="12.233593271264867"><ele>333.0</ele><time>2026-05-02T10:21:23Z</time></trkpt><trkpt lat="43.109488531465175" lon="12.233675774875639"><ele>330.0</ele><time>2026-05-02T10:21:24Z</time></trkpt><trkpt lat="43.1093894012234" lon="12.233744447485297"><ele>327.0</ele><time>2026-05-02T10:21:25Z</time></trkpt><trkpt lat="43.10925253251279" lon="12.233822831634741"><ele>327.0</ele><time>2026-05-02T10:21:26Z</time></trkpt><trkpt lat="43.10911772542431" lon="12.233917171179156"><ele>327.0</ele><time>2026-05-02T10:21:27Z</time></trkpt><trkpt lat="43.1090136605888" lon="12.233984015027739"><ele>327.0</ele><time>2026-05-02T10:21:28Z</time></trkpt><trkpt lat="43.108906287141664" lon="12.234051947718042"><ele>327.0</ele><time>2026-05-02T10:21:29Z</time></trkpt><trkpt lat="43.108785120874536" lon="12.234072165583086"><ele>323.40000000000003</ele><time>2026-05-02T10:21:30Z</time></trkpt><trkpt lat="43.108669908264204" lon="12.234101104506188"><ele>319.8</ele><time>2026-05-02T10:21:30.999Z</time></trkpt><trkpt lat="43.10856185746504" lon="12.234120300294542"><ele>316.2</ele><time>2026-05-02T10:21:31.999Z</time></trkpt><trkpt lat="43.10846607164349" lon="12.234127965362234"><ele>312.6</ele><time>2026-05-02T10:21:32.999Z</time></trkpt><trkpt lat="43.10837512382767" lon="12.234126979063507"><ele>309.0</ele><time>2026-05-02T10:21:33.999Z</time></trkpt><trkpt lat="43.108287787433504" lon="12.234122830066447"><ele>310.1666666666667</ele><time>2026-05-02T10:21:34.999Z</time></trkpt><trkpt lat="43.10821216315883" lon="12.23412236267825"><ele>311.3333333333333</ele><time>2026-05-02T10:21:35.999Z</time></trkpt><trkpt lat="43.10814918928402" lon="12.234143287237654"><ele>312.5</ele><time>2026-05-02T10:21:36.999Z</time></trkpt><trkpt lat="43.10805420511686" lon="12.234221526564244"><ele>313.66666666666663</ele><time>2026-05-02T10:21:38.999Z</time></trkpt><trkpt lat="43.10801871606229" lon="12.234314619602106"><ele>314.8333333333333</ele><time>2026-05-02T10:21:40.999Z</time></trkpt><trkpt lat="43.1079823907821" lon="12.234425653451291"><ele>316.0</ele><time>2026-05-02T10:21:55.001Z</time></trkpt><trkpt lat="43.10798653321302" lon="12.234536812012587"><ele>316.0</ele><time>2026-05-02T10:21:56.001Z</time></trkpt><trkpt lat="43.107962770976485" lon="12.234657776228326"><ele>316.0</ele><time>2026-05-02T10:21:57.001Z</time></trkpt><trkpt lat="43.1079355672422" lon="12.234783686190427"><ele>316.0</ele><time>2026-05-02T10:21:58.001Z</time></trkpt><trkpt lat="43.107908763482406" lon="12.234894978387107"><ele>316.0</ele><time>2026-05-02T10:21:59.001Z</time></trkpt><trkpt lat="43.10788649435163" lon="12.234981384508433"><ele>316.0</ele><time>2026-05-02T10:22:00.001Z</time></trkpt><trkpt lat="43.107834638727404" lon="12.235133900550878"><ele>314.5</ele><time>2026-05-02T10:22:02.001Z</time></trkpt><trkpt lat="43.107770841569575" lon="12.235255441016854"><ele>313.0</ele><time>2026-05-02T10:22:04.001Z</time></trkpt><trkpt lat="43.107704077023726" lon="12.235339838436541"><ele>311.5</ele><time>2026-05-02T10:22:06Z</time></trkpt><trkpt lat="43.107646233622056" lon="12.235383987403681"><ele>310.0</ele><time>2026-05-02T10:22:09Z</time></trkpt><trkpt lat="43.107572598287334" lon="12.23533697443795"><ele>308.5</ele><time>2026-05-02T10:22:16Z</time></trkpt><trkpt lat="43.107492946840416" lon="12.235255400454928"><ele>307.0</ele><time>2026-05-02T10:22:19Z</time></trkpt><trkpt lat="43.10740500485942" lon="12.235158861874174"><ele>306.0</ele><time>2026-05-02T10:22:21Z</time></trkpt><trkpt lat="43.10734903206204" lon="12.235073714205036"><ele>305.0</ele><time>2026-05-02T10:22:22Z</time></trkpt><trkpt lat="43.10728679806192" lon="12.234975751577071"><ele>304.0</ele><time>2026-05-02T10:22:23Z</time></trkpt><trkpt lat="43.10720952025175" lon="12.234869381888975"><ele>303.0</ele><time>2026-05-02T10:22:24Z</time></trkpt><trkpt lat="43.107111023428" lon="12.234764956657138"><ele>302.0</ele><time>2026-05-02T10:22:25Z</time></trkpt><trkpt lat="43.10701638884107" lon="12.23468597671768"><ele>305.5</ele><time>2026-05-02T10:22:26Z</time></trkpt><trkpt lat="43.10693705446399" lon="12.234637589575527"><ele>309.0</ele><time>2026-05-02T10:22:27Z</time></trkpt><trkpt lat="43.10685973547157" lon="12.234596274400717"><ele>312.5</ele><time>2026-05-02T10:22:28Z</time></trkpt><trkpt lat="43.10680176130327" lon="12.234541072991856"><ele>316.0</ele><time>2026-05-02T10:22:29Z</time></trkpt><trkpt lat="43.10674042690418" lon="12.234508804293672"><ele>319.5</ele><time>2026-05-02T10:22:30Z</time></trkpt><trkpt lat="43.10675969498739" lon="12.23436024292033"><ele>323.0</ele><time>2026-05-02T10:22:33Z</time></trkpt><trkpt lat="43.10688953495192" lon="12.234337529273297"><ele>323.0</ele><time>2026-05-02T10:22:35Z</time></trkpt><trkpt lat="43.106980222429215" lon="12.234326109458992"><ele>323.0</ele><time>2026-05-02T10:22:36Z</time></trkpt><trkpt lat="43.10708135328138" lon="12.234335969608525"><ele>323.0</ele><time>2026-05-02T10:22:37Z</time></trkpt><trkpt lat="43.10717217753684" lon="12.234340787604454"><ele>323.0</ele><time>2026-05-02T10:22:38Z</time></trkpt><trkpt lat="43.10723523741117" lon="12.234297691643434"><ele>323.0</ele><time>2026-05-02T10:22:39Z</time></trkpt><trkpt lat="43.107295375927094" lon="12.234228024875852"><ele>323.0</ele><time>2026-05-02T10:22:40Z</time></trkpt><trkpt lat="43.10731788685101" lon="12.234071170965594"><ele>326.0</ele><time>2026-05-02T10:22:41Z</time></trkpt><trkpt lat="43.107377484286545" lon="12.23390945230299"><ele>329.0</ele><time>2026-05-02T10:22:42Z</time></trkpt><trkpt lat="43.10745355783732" lon="12.233718696735107"><ele>332.0</ele><time>2026-05-02T10:22:43Z</time></trkpt><trkpt lat="43.107494313461395" lon="12.23361055210821"><ele>335.0</ele><time>2026-05-02T10:22:44Z</time></trkpt><trkpt lat="43.10743278263112" lon="12.233516268777755"><ele>336.1666666666667</ele><time>2026-05-02T10:22:47Z</time></trkpt><trkpt lat="43.107373749653775" lon="12.233635779577906"><ele>337.33333333333337</ele><time>2026-05-02T10:22:49Z</time></trkpt><trkpt lat="43.10731918695355" lon="12.2337399507324"><ele>338.5</ele><time>2026-05-02T10:22:51Z</time></trkpt><trkpt lat="43.10725730435008" lon="12.233765301518078"><ele>339.6666666666667</ele><time>2026-05-02T10:22:53Z</time></trkpt><trkpt lat="43.1071869628329" lon="12.233794227919025"><ele>340.8333333333333</ele><time>2026-05-02T10:22:55Z</time></trkpt><trkpt lat="43.1071195930802" lon="12.2337689195321"><ele>342.0</ele><time>2026-05-02T10:22:58Z</time></trkpt><trkpt lat="43.10708343687302" lon="12.233687729527157"><ele>342.0</ele><time>2026-05-02T10:23:01Z</time></trkpt><trkpt lat="43.10715308979135" lon="12.233612327261746"><ele>342.0</ele><time>2026-05-02T10:23:03Z</time></trkpt><trkpt lat="43.107213164733565" lon="12.233551656346553"><ele>342.0</ele><time>2026-05-02T10:23:04Z</time></trkpt><trkpt lat="43.10727689650617" lon="12.2334642864398"><ele>342.0</ele><time>2026-05-02T10:23:05Z</time></trkpt><trkpt lat="43.107324995768444" lon="12.233366330147426"><ele>342.0</ele><time>2026-05-02T10:23:06Z</time></trkpt><trkpt lat="43.107354308875564" lon="12.233260251854967"><ele>342.0</ele><time>2026-05-02T10:23:07Z</time></trkpt><trkpt lat="43.1073539978154" lon="12.233169128308711"><ele>342.1666666666667</ele><time>2026-05-02T10:23:08Z</time></trkpt><trkpt lat="43.10736301665608" lon="12.233046572064092"><ele>342.3333333333333</ele><time>2026-05-02T10:23:10Z</time></trkpt><trkpt lat="43.107358551584156" lon="12.232939610371888"><ele>342.5</ele><time>2026-05-02T10:23:12Z</time></trkpt><trkpt lat="43.107369880361986" lon="12.23281288394874"><ele>342.66666666666663</ele><time>2026-05-02T10:23:14Z</time></trkpt><trkpt lat="43.107427663603" lon="12.232689342015195"><ele>342.8333333333333</ele><time>2026-05-02T10:24:42Z</time></trkpt><trkpt lat="43.10737167599713" lon="12.232740312641628"><ele>343.0</ele><time>2026-05-02T10:25:16Z</time></trkpt><trkpt lat="43.1074534890813" lon="12.232699528401195"><ele>343.3333333333333</ele><time>2026-05-02T10:27:26Z</time></trkpt><trkpt lat="43.10746858850986" lon="12.2325914060696"><ele>343.66666666666663</ele><time>2026-05-02T10:36:03Z</time></trkpt><trkpt lat="43.107522403727955" lon="12.232500873672306"><ele>344.0</ele><time>2026-05-02T10:36:10Z</time></trkpt><trkpt lat="43.10759823850395" lon="12.232368608509422"><ele>344.3333333333333</ele><time>2026-05-02T10:36:12Z</time></trkpt><trkpt lat="43.10763135678347" lon="12.23229192238738"><ele>344.6666666666667</ele><time>2026-05-02T10:36:13Z</time></trkpt><trkpt lat="43.10769900469919" lon="12.232220745561492"><ele>345.0</ele><time>2026-05-02T10:36:15Z</time></trkpt><trkpt lat="43.10776061947982" lon="12.232156363581279"><ele>345.5</ele><time>2026-05-02T10:36:17Z</time></trkpt><trkpt lat="43.107832659508" lon="12.232078742088625"><ele>346.0</ele><time>2026-05-02T10:36:19Z</time></trkpt><trkpt lat="43.107907524108136" lon="12.232003769499793"><ele>346.5</ele><time>2026-05-02T10:36:21Z</time></trkpt><trkpt lat="43.108002256833394" lon="12.231974892375144"><ele>347.0</ele><time>2026-05-02T10:36:23Z</time></trkpt><trkpt lat="43.10806915726258" lon="12.232013843486016"><ele>347.5</ele><time>2026-05-02T10:36:25.001Z</time></trkpt><trkpt lat="43.108136231804174" lon="12.232029137884698"><ele>348.0</ele><time>2026-05-02T10:36:34.001Z</time></trkpt><trkpt lat="43.1082329223358" lon="12.232021991872063"><ele>350.1666666666667</ele><time>2026-05-02T10:36:36.001Z</time></trkpt><trkpt lat="43.10830142398421" lon="12.232020663570005"><ele>352.3333333333333</ele><time>2026-05-02T10:36:38.001Z</time></trkpt><trkpt lat="43.10837377563261" lon="12.232026420529197"><ele>354.5</ele><time>2026-05-02T10:36:40.001Z</time></trkpt><trkpt lat="43.10844588393208" lon="12.231980276915825"><ele>356.66666666666663</ele><time>2026-05-02T10:36:42.001Z</time></trkpt><trkpt lat="43.108526244212904" lon="12.231934392368837"><ele>358.8333333333333</ele><time>2026-05-02T10:36:44.001Z</time></trkpt><trkpt lat="43.10854573033935" lon="12.231811274662862"><ele>361.0</ele><time>2026-05-02T10:36:47.001Z</time></trkpt><trkpt lat="43.10860396738038" lon="12.231707146357701"><ele>361.0</ele><time>2026-05-02T10:37:10Z</time></trkpt><trkpt lat="43.10866096544369" lon="12.231627824679254"><ele>361.0</ele><time>2026-05-02T10:37:12Z</time></trkpt><trkpt lat="43.108673890590694" lon="12.231538017782338"><ele>361.0</ele><time>2026-05-02T10:37:14Z</time></trkpt><trkpt lat="43.1086832188819" lon="12.231427128240364"><ele>361.0</ele><time>2026-05-02T10:37:16Z</time></trkpt><trkpt lat="43.108707274810605" lon="12.2313425962844"><ele>361.0</ele><time>2026-05-02T10:37:18Z</time></trkpt><trkpt lat="43.108745974838556" lon="12.231265462580959"><ele>361.0</ele><time>2026-05-02T10:37:21Z</time></trkpt><trkpt lat="43.108787147261374" lon="12.231156910883168"><ele>361.6</ele><time>2026-05-02T10:37:23Z</time></trkpt><trkpt lat="43.108814819649034" lon="12.231079415591667"><ele>362.20000000000005</ele><time>2026-05-02T10:37:24Z</time></trkpt><trkpt lat="43.10887773701578" lon="12.230948733428841"><ele>362.79999999999995</ele><time>2026-05-02T10:37:26Z</time></trkpt><trkpt lat="43.10893237518787" lon="12.230835130728535"><ele>363.4</ele><time>2026-05-02T10:37:28Z</time></trkpt><trkpt lat="43.108971972161484" lon="12.230699092757847"><ele>364.0</ele><time>2026-05-02T10:37:30Z</time></trkpt><trkpt lat="43.10898598943813" lon="12.230553668170346"><ele>364.0</ele><time>2026-05-02T10:37:32Z</time></trkpt><trkpt lat="43.108983340163455" lon="12.230393736388114"><ele>364.0</ele><time>2026-05-02T10:37:34Z</time></trkpt><trkpt lat="43.108987354776204" lon="12.230237535132275"><ele>364.0</ele><time>2026-05-02T10:37:36Z</time></trkpt><trkpt lat="43.10898580161647" lon="12.23015035076821"><ele>364.0</ele><time>2026-05-02T10:37:37Z</time></trkpt><trkpt lat="43.108975882477175" lon="12.230015277000817"><ele>364.0</ele><time>2026-05-02T10:37:39Z</time></trkpt><trkpt lat="43.108971238201576" lon="12.22989503954385"><ele>365.16666666666663</ele><time>2026-05-02T10:37:41Z</time></trkpt><trkpt lat="43.109019993084694" lon="12.229775204414217"><ele>366.3333333333333</ele><time>2026-05-02T10:37:43Z</time></trkpt><trkpt lat="43.10907800239516" lon="12.229702761681562"><ele>367.5</ele><time>2026-05-02T10:37:45Z</time></trkpt><trkpt lat="43.10912177291064" lon="12.229635008822541"><ele>368.6666666666667</ele><time>2026-05-02T10:37:47Z</time></trkpt><trkpt lat="43.109151451386005" lon="12.229544960737316"><ele>369.83333333333337</ele><time>2026-05-02T10:37:50Z</time></trkpt><trkpt lat="43.10917029626045" lon="12.22944654938051"><ele>371.0</ele><time>2026-05-02T10:37:53Z</time></trkpt><trkpt lat="43.10919302949432" lon="12.229300840445783"><ele>371.1666666666667</ele><time>2026-05-02T10:37:55Z</time></trkpt><trkpt lat="43.10920171553617" lon="12.229151893892956"><ele>371.33333333333337</ele><time>2026-05-02T10:37:57Z</time></trkpt><trkpt lat="43.10921686649065" lon="12.2290539446209"><ele>371.5</ele><time>2026-05-02T10:37:59Z</time></trkpt><trkpt lat="43.10917381771619" lon="12.22894657319073"><ele>371.6666666666667</ele><time>2026-05-02T10:38:08Z</time></trkpt><trkpt lat="43.10914457308187" lon="12.228839398375289"><ele>371.8333333333333</ele><time>2026-05-02T10:38:10Z</time></trkpt><trkpt lat="43.10913226063276" lon="12.228716377601033"><ele>372.0</ele><time>2026-05-02T10:38:12Z</time></trkpt><trkpt lat="43.109122017075585" lon="12.228577443709131"><ele>373.0</ele><time>2026-05-02T10:38:14Z</time></trkpt><trkpt lat="43.109117458454705" lon="12.22846364223443"><ele>374.0</ele><time>2026-05-02T10:38:17Z</time></trkpt><trkpt lat="43.10916158396145" lon="12.228381549747064"><ele>375.0</ele><time>2026-05-02T10:38:24Z</time></trkpt><trkpt lat="43.10917787178206" lon="12.228241525503167"><ele>376.0</ele><time>2026-05-02T10:38:25.999Z</time></trkpt><trkpt lat="43.10917760390951" lon="12.228125091877011"><ele>377.0</ele><time>2026-05-02T10:38:27.999Z</time></trkpt><trkpt lat="43.10918784295898" lon="12.227977163642098"><ele>375.6666666666667</ele><time>2026-05-02T10:38:30.001Z</time></trkpt><trkpt lat="43.10916676885498" lon="12.227831139524055"><ele>374.33333333333337</ele><time>2026-05-02T10:38:32.001Z</time></trkpt><trkpt lat="43.10912614272501" lon="12.227725549094982"><ele>373.0</ele><time>2026-05-02T10:38:34.001Z</time></trkpt><trkpt lat="43.109060430127904" lon="12.227649936453066"><ele>371.6666666666667</ele><time>2026-05-02T10:38:36.001Z</time></trkpt><trkpt lat="43.108971242484266" lon="12.227591981275681"><ele>370.3333333333333</ele><time>2026-05-02T10:38:38.001Z</time></trkpt><trkpt lat="43.10891224086619" lon="12.227560703257202"><ele>369.0</ele><time>2026-05-02T10:38:39.001Z</time></trkpt><trkpt lat="43.10882867317666" lon="12.227526206896542"><ele>369.0</ele><time>2026-05-02T10:38:41.001Z</time></trkpt><trkpt lat="43.108752357000725" lon="12.227456058069677"><ele>369.0</ele><time>2026-05-02T10:38:43.001Z</time></trkpt><trkpt lat="43.108700230853614" lon="12.22737845305832"><ele>369.0</ele><time>2026-05-02T10:38:45.001Z</time></trkpt><trkpt lat="43.10865065600976" lon="12.227280142538893"><ele>369.0</ele><time>2026-05-02T10:38:47.001Z</time></trkpt><trkpt lat="43.10861247432956" lon="12.227195723109064"><ele>369.0</ele><time>2026-05-02T10:38:49.001Z</time></trkpt><trkpt lat="43.10857211839715" lon="12.227118648324566"><ele>369.0</ele><time>2026-05-02T10:38:51Z</time></trkpt><trkpt lat="43.10854584976571" lon="12.22702835837016"><ele>372.1666666666667</ele><time>2026-05-02T10:38:53Z</time></trkpt><trkpt lat="43.108505440352964" lon="12.226947650320529"><ele>375.33333333333337</ele><time>2026-05-02T10:39:05Z</time></trkpt><trkpt lat="43.1084618414892" lon="12.22686692101561"><ele>378.5</ele><time>2026-05-02T10:39:07Z</time></trkpt><trkpt lat="43.10843728487" lon="12.226766057051266"><ele>381.6666666666667</ele><time>2026-05-02T10:39:10Z</time></trkpt><trkpt lat="43.10840172257235" lon="12.226675576235694"><ele>384.83333333333337</ele><time>2026-05-02T10:39:13Z</time></trkpt><trkpt lat="43.108348225905104" lon="12.22656572862955"><ele>388.0</ele><time>2026-05-02T10:39:37Z</time></trkpt><trkpt lat="43.108313624413164" lon="12.226478489428784"><ele>388.6666666666667</ele><time>2026-05-02T10:39:40Z</time></trkpt><trkpt lat="43.10831491975638" lon="12.226375504249908"><ele>389.33333333333337</ele><time>2026-05-02T10:39:43Z</time></trkpt><trkpt lat="43.10827249197448" lon="12.226273951206572"><ele>390.0</ele><time>2026-05-02T10:39:53Z</time></trkpt><trkpt lat="43.1082284907341" lon="12.226185558017832"><ele>390.66666666666663</ele><time>2026-05-02T10:39:56Z</time></trkpt><trkpt lat="43.108177042658276" lon="12.2261136133271"><ele>391.3333333333333</ele><time>2026-05-02T10:40:04.999Z</time></trkpt><trkpt lat="43.10810816784279" lon="12.226040574980036"><ele>392.0</ele><time>2026-05-02T10:40:06.999Z</time></trkpt><trkpt lat="43.10805177004252" lon="12.225946682114786"><ele>391.99999999999994</ele><time>2026-05-02T10:40:09.999Z</time></trkpt><trkpt lat="43.10797376116346" lon="12.22588054534178"><ele>392.0</ele><time>2026-05-02T10:40:12.999Z</time></trkpt><trkpt lat="43.107915322860784" lon="12.22583438586344"><ele>392.0</ele><time>2026-05-02T10:40:15.999Z</time></trkpt><trkpt lat="43.107843229192" lon="12.22579484077448"><ele>392.0</ele><time>2026-05-02T10:40:36Z</time></trkpt><trkpt lat="43.107789077317875" lon="12.22574555284971"><ele>391.99999999999994</ele><time>2026-05-02T10:40:39Z</time></trkpt><trkpt lat="43.1077192855591" lon="12.22566747315533"><ele>392.0</ele><time>2026-05-02T10:40:41Z</time></trkpt><trkpt lat="43.107680535150976" lon="12.2255666433833"><ele>392.20000000000005</ele><time>2026-05-02T10:40:43Z</time></trkpt><trkpt lat="43.107687580582656" lon="12.225462176156892"><ele>392.4</ele><time>2026-05-02T10:40:45Z</time></trkpt><trkpt lat="43.10776849979174" lon="12.22538442422512"><ele>392.6</ele><time>2026-05-02T10:40:47Z</time></trkpt><trkpt lat="43.10786146941774" lon="12.225333491508987"><ele>392.79999999999995</ele><time>2026-05-02T10:40:49Z</time></trkpt><trkpt lat="43.10794655223516" lon="12.225250124759256"><ele>393.0</ele><time>2026-05-02T10:40:51Z</time></trkpt><trkpt lat="43.108033775901575" lon="12.225201848246943"><ele>393.0</ele><time>2026-05-02T10:40:53Z</time></trkpt><trkpt lat="43.10809473888915" lon="12.225120435196855"><ele>393.0</ele><time>2026-05-02T10:40:55Z</time></trkpt><trkpt lat="43.10811556496601" lon="12.225027035646152"><ele>393.0</ele><time>2026-05-02T10:40:57Z</time></trkpt><trkpt lat="43.1081232098442" lon="12.22493710370712"><ele>393.0</ele><time>2026-05-02T10:40:59Z</time></trkpt><trkpt lat="43.108089280865535" lon="12.224819634808009"><ele>393.0</ele><time>2026-05-02T10:41:02Z</time></trkpt><trkpt lat="43.108048609053554" lon="12.224717946409717"><ele>393.0</ele><time>2026-05-02T10:41:05Z</time></trkpt><trkpt lat="43.108010074123605" lon="12.224638810872108"><ele>392.3333333333333</ele><time>2026-05-02T10:41:29Z</time></trkpt><trkpt lat="43.107961034345465" lon="12.22455780153115"><ele>391.66666666666663</ele><time>2026-05-02T10:41:31Z</time></trkpt><trkpt lat="43.10792358180553" lon="12.224475332095283"><ele>391.0</ele><time>2026-05-02T10:41:33Z</time></trkpt><trkpt lat="43.107896089594846" lon="12.224363952607833"><ele>390.3333333333333</ele><time>2026-05-02T10:41:35Z</time></trkpt><trkpt lat="43.107873008579716" lon="12.224232794409724"><ele>389.66666666666663</ele><time>2026-05-02T10:41:37Z</time></trkpt><trkpt lat="43.107864119594346" lon="12.22410039898102"><ele>389.0</ele><time>2026-05-02T10:41:39Z</time></trkpt><trkpt lat="43.10783089932914" lon="12.223999827547978"><ele>389.3333333333333</ele><time>2026-05-02T10:41:41Z</time></trkpt><trkpt lat="43.10782653043086" lon="12.223900637022936"><ele>389.66666666666663</ele><time>2026-05-02T10:41:43Z</time></trkpt><trkpt lat="43.10786389244843" lon="12.223798708795675"><ele>390.0</ele><time>2026-05-02T10:41:45Z</time></trkpt><trkpt lat="43.107877498265815" lon="12.223702397050028"><ele>390.33333333333337</ele><time>2026-05-02T10:41:47Z</time></trkpt><trkpt lat="43.10785466219909" lon="12.223581249168992"><ele>390.6666666666667</ele><time>2026-05-02T10:41:49Z</time></trkpt><trkpt lat="43.10786958508708" lon="12.223452004918258"><ele>391.0</ele><time>2026-05-02T10:41:51Z</time></trkpt><trkpt lat="43.107897931647315" lon="12.223369164630764"><ele>391.00000000000006</ele><time>2026-05-02T10:41:52Z</time></trkpt><trkpt lat="43.10794299638923" lon="12.223233091988334"><ele>391.0</ele><time>2026-05-02T10:41:53.999Z</time></trkpt><trkpt lat="43.10791672000501" lon="12.22313994048671"><ele>391.0</ele><time>2026-05-02T10:41:55.999Z</time></trkpt><trkpt lat="43.10788272199192" lon="12.22304720701763"><ele>391.0</ele><time>2026-05-02T10:41:58.999Z</time></trkpt><trkpt lat="43.10783485221091" lon="12.2229328215261"><ele>391.00000000000006</ele><time>2026-05-02T10:42:00.999Z</time></trkpt><trkpt lat="43.107792875855814" lon="12.222824176492159"><ele>391.0</ele><time>2026-05-02T10:42:02.999Z</time></trkpt><trkpt lat="43.10774963155709" lon="12.22270312466711"><ele>392.6666666666667</ele><time>2026-05-02T10:42:04.999Z</time></trkpt><trkpt lat="43.107729459024355" lon="12.222578910852983"><ele>394.33333333333337</ele><time>2026-05-02T10:42:12.999Z</time></trkpt><trkpt lat="43.107711246075986" lon="12.222476269865576"><ele>396.0</ele><time>2026-05-02T10:42:16.999Z</time></trkpt><trkpt lat="43.10775299218453" lon="12.22240768401698"><ele>397.66666666666663</ele><time>2026-05-02T10:42:19.999Z</time></trkpt><trkpt lat="43.10781226883486" lon="12.22246843791163"><ele>399.3333333333333</ele><time>2026-05-02T10:42:23.999Z</time></trkpt><trkpt lat="43.107851665372834" lon="12.222536351869467"><ele>401.0</ele><time>2026-05-02T10:42:30.999Z</time></trkpt><trkpt lat="43.10790133651642" lon="12.22262436366043"><ele>400.99999999999994</ele><time>2026-05-02T10:42:33.999Z</time></trkpt><trkpt lat="43.107941439570084" lon="12.222705602701852"><ele>401.0</ele><time>2026-05-02T10:42:36.999Z</time></trkpt><trkpt lat="43.1080059182331" lon="12.222795058257361"><ele>401.0</ele><time>2026-05-02T10:42:38.999Z</time></trkpt><trkpt lat="43.108065260214275" lon="12.22289689906741"><ele>401.0</ele><time>2026-05-02T10:42:40.999Z</time></trkpt><trkpt lat="43.108117114123" lon="12.222958838294092"><ele>400.99999999999994</ele><time>2026-05-02T10:42:43Z</time></trkpt><trkpt lat="43.108169661734" lon="12.223025827277205"><ele>401.0</ele><time>2026-05-02T10:42:45Z</time></trkpt><trkpt lat="43.10820070170689" lon="12.223101955690604"><ele>401.0</ele><time>2026-05-02T10:42:47Z</time></trkpt><trkpt lat="43.10826796195249" lon="12.223119577485578"><ele>401.0</ele><time>2026-05-02T10:43:12Z</time></trkpt><trkpt lat="43.10826420765642" lon="12.22298520561985"><ele>401.0</ele><time>2026-05-02T10:43:16Z</time></trkpt><trkpt lat="43.10824327544841" lon="12.222902694663475"><ele>401.0</ele><time>2026-05-02T10:43:20Z</time></trkpt><trkpt lat="43.108218694457975" lon="12.222822932013672"><ele>401.0</ele><time>2026-05-02T10:43:24Z</time></trkpt><trkpt lat="43.108210292779525" lon="12.222734108301948"><ele>401.0</ele><time>2026-05-02T10:43:48.999Z</time></trkpt><trkpt lat="43.10818146547678" lon="12.222633580232342"><ele>401.0</ele><time>2026-05-02T10:43:50.999Z</time></trkpt><trkpt lat="43.10819443041807" lon="12.222538169811985"><ele>401.0</ele><time>2026-05-02T10:43:53.999Z</time></trkpt><trkpt lat="43.108209713355876" lon="12.222441052566131"><ele>401.0</ele><time>2026-05-02T10:43:56.999Z</time></trkpt><trkpt lat="43.108214410890724" lon="12.222339631355279"><ele>401.0</ele><time>2026-05-02T10:43:59.999Z</time></trkpt><trkpt lat="43.10823176660578" lon="12.22223241317141"><ele>401.0</ele><time>2026-05-02T10:44:22.999Z</time></trkpt><trkpt lat="43.10822226641029" lon="12.222122016540688"><ele>401.0</ele><time>2026-05-02T10:44:24.999Z</time></trkpt><trkpt lat="43.10823095338142" lon="12.222034349517305"><ele>401.0</ele><time>2026-05-02T10:44:26.999Z</time></trkpt><trkpt lat="43.10824555194015" lon="12.221948705970417"><ele>401.0</ele><time>2026-05-02T10:44:28.999Z</time></trkpt><trkpt lat="43.108269934239395" lon="12.22181034280756"><ele>405.6</ele><time>2026-05-02T10:44:30.999Z</time></trkpt><trkpt lat="43.10826980738558" lon="12.221684393654568"><ele>410.20000000000005</ele><time>2026-05-02T10:44:32.999Z</time></trkpt><trkpt lat="43.10825907180698" lon="12.221577359251743"><ele>414.79999999999995</ele><time>2026-05-02T10:44:34.999Z</time></trkpt><trkpt lat="43.10825788266523" lon="12.22143322636611"><ele>419.4</ele><time>2026-05-02T10:44:36.999Z</time></trkpt><trkpt lat="43.10824737882617" lon="12.221315488285562"><ele>424.0</ele><time>2026-05-02T10:44:38.999Z</time></trkpt><trkpt lat="43.10821262570313" lon="12.221202596561001"><ele>424.0</ele><time>2026-05-02T10:44:40.999Z</time></trkpt><trkpt lat="43.108181488402444" lon="12.221102482247604"><ele>424.0</ele><time>2026-05-02T10:44:42.999Z</time></trkpt><trkpt lat="43.10814350082198" lon="12.22103080208818"><ele>424.0</ele><time>2026-05-02T10:44:44.999Z</time></trkpt><trkpt lat="43.10809889195105" lon="12.220968124216427"><ele>424.0</ele><time>2026-05-02T10:44:46.999Z</time></trkpt><trkpt lat="43.10805533499678" lon="12.220904309167343"><ele>424.0</ele><time>2026-05-02T10:44:49Z</time></trkpt><trkpt lat="43.10798306593149" lon="12.220844295570792"><ele>424.0</ele><time>2026-05-02T10:45:56Z</time></trkpt><trkpt lat="43.108054927754736" lon="12.220850594524185"><ele>424.0</ele><time>2026-05-02T10:46:01Z</time></trkpt><trkpt lat="43.107996809999655" lon="12.22076672791848"><ele>424.00000000000006</ele><time>2026-05-02T10:46:38.999Z</time></trkpt><trkpt lat="43.107962173604896" lon="12.220657465193097"><ele>424.0</ele><time>2026-05-02T10:46:41.999Z</time></trkpt><trkpt lat="43.107924554000334" lon="12.220580089377467"><ele>424.0</ele><time>2026-05-02T10:46:43.999Z</time></trkpt><trkpt lat="43.1079033829995" lon="12.220497073579413"><ele>424.0</ele><time>2026-05-02T10:46:45.999Z</time></trkpt><trkpt lat="43.10788639340046" lon="12.220413678430551"><ele>424.00000000000006</ele><time>2026-05-02T10:46:47.999Z</time></trkpt><trkpt lat="43.107859066058836" lon="12.220299202565718"><ele>424.0</ele><time>2026-05-02T10:46:50.999Z</time></trkpt><trkpt lat="43.10782649755458" lon="12.220181317083147"><ele>427.0</ele><time>2026-05-02T10:46:54Z</time></trkpt><trkpt lat="43.107810742788175" lon="12.220089147557932"><ele>430.0</ele><time>2026-05-02T10:46:57Z</time></trkpt><trkpt lat="43.10777712374496" lon="12.219999673783606"><ele>433.0</ele><time>2026-05-02T10:47:00Z</time></trkpt><trkpt lat="43.10772457326033" lon="12.2199470217142"><ele>436.0</ele><time>2026-05-02T10:47:27Z</time></trkpt><trkpt lat="43.10765662381036" lon="12.219888998900602"><ele>439.0</ele><time>2026-05-02T10:47:31Z</time></trkpt><trkpt lat="43.10759676980966" lon="12.219818233748946"><ele>442.0</ele><time>2026-05-02T10:47:34Z</time></trkpt><trkpt lat="43.107531073746934" lon="12.219771779018693"><ele>445.0</ele><time>2026-05-02T10:47:37Z</time></trkpt><trkpt lat="43.10742535642495" lon="12.219717408221182"><ele>448.50000000000006</ele><time>2026-05-02T10:48:02Z</time></trkpt><trkpt lat="43.10743241526192" lon="12.21962037743705"><ele>452.0</ele><time>2026-05-02T10:48:05Z</time></trkpt><trkpt lat="43.1075124631602" lon="12.21962809342279"><ele>455.5</ele><time>2026-05-02T10:48:07.999Z</time></trkpt><trkpt lat="43.10758495766456" lon="12.21966244791842"><ele>459.0</ele><time>2026-05-02T10:48:10.999Z</time></trkpt><trkpt lat="43.107669139246816" lon="12.219638017988991"><ele>462.50000000000006</ele><time>2026-05-02T10:49:00Z</time></trkpt><trkpt lat="43.107737945189484" lon="12.219633289092654"><ele>466.0</ele><time>2026-05-02T10:49:02Z</time></trkpt><trkpt lat="43.107829827734875" lon="12.219653021681191"><ele>466.00000000000006</ele><time>2026-05-02T10:49:05Z</time></trkpt><trkpt lat="43.10789230793948" lon="12.219704142598916"><ele>466.0</ele><time>2026-05-02T10:49:08Z</time></trkpt><trkpt lat="43.10799596754495" lon="12.219681845887079"><ele>466.0</ele><time>2026-05-02T10:49:11Z</time></trkpt><trkpt lat="43.108013381594674" lon="12.219596120070083"><ele>466.0</ele><time>2026-05-02T10:58:39Z</time></trkpt><trkpt lat="43.10793973844943" lon="12.219483879151415"><ele>466.00000000000006</ele><time>2026-05-02T10:58:41Z</time></trkpt><trkpt lat="43.10792522840823" lon="12.219376751968666"><ele>466.0</ele><time>2026-05-02T10:58:43Z</time></trkpt><trkpt lat="43.107877941246414" lon="12.219310901523077"><ele>466.00000000000006</ele><time>2026-05-02T10:58:45Z</time></trkpt><trkpt lat="43.10782988922537" lon="12.21919208645561"><ele>466.0</ele><time>2026-05-02T10:58:48Z</time></trkpt><trkpt lat="43.1077949367949" lon="12.219074137383025"><ele>466.0</ele><time>2026-05-02T10:58:50Z</time></trkpt><trkpt lat="43.10777094265574" lon="12.21898174287694"><ele>466.0</ele><time>2026-05-02T10:58:52Z</time></trkpt><trkpt lat="43.10775299107566" lon="12.21888717524236"><ele>466.00000000000006</ele><time>2026-05-02T10:59:03Z</time></trkpt><trkpt lat="43.10771211013839" lon="12.218804474355606"><ele>466.0</ele><time>2026-05-02T10:59:06Z</time></trkpt><trkpt lat="43.10772863132717" lon="12.218714441422344"><ele>466.50000000000006</ele><time>2026-05-02T10:59:08Z</time></trkpt><trkpt lat="43.107752330662436" lon="12.218579179168383"><ele>467.0</ele><time>2026-05-02T10:59:10Z</time></trkpt><trkpt lat="43.107787549070636" lon="12.218467762279923"><ele>467.5</ele><time>2026-05-02T10:59:12Z</time></trkpt><trkpt lat="43.10778207513488" lon="12.218358459750323"><ele>468.0</ele><time>2026-05-02T10:59:14Z</time></trkpt><trkpt lat="43.10774991998967" lon="12.218241561151682"><ele>468.50000000000006</ele><time>2026-05-02T10:59:16Z</time></trkpt><trkpt lat="43.10770757749304" lon="12.218172983257883"><ele>469.0</ele><time>2026-05-02T10:59:18Z</time></trkpt><trkpt lat="43.107653301878344" lon="12.218101840500973"><ele>470.4</ele><time>2026-05-02T10:59:20Z</time></trkpt><trkpt lat="43.1076016005727" lon="12.21804254596306"><ele>471.79999999999995</ele><time>2026-05-02T10:59:22Z</time></trkpt><trkpt lat="43.107517875533176" lon="12.217949226198435"><ele>473.20000000000005</ele><time>2026-05-02T10:59:24Z</time></trkpt><trkpt lat="43.10743770070654" lon="12.217867556204844"><ele>474.6</ele><time>2026-05-02T10:59:26Z</time></trkpt><trkpt lat="43.10737322707018" lon="12.217789994833145"><ele>476.0</ele><time>2026-05-02T10:59:28Z</time></trkpt><trkpt lat="43.10730757067003" lon="12.217695021603053"><ele>475.99999999999994</ele><time>2026-05-02T10:59:30Z</time></trkpt><trkpt lat="43.107240467504305" lon="12.217630253152095"><ele>476.0</ele><time>2026-05-02T10:59:32Z</time></trkpt><trkpt lat="43.107156300909786" lon="12.217594878513884"><ele>476.0</ele><time>2026-05-02T10:59:34Z</time></trkpt><trkpt lat="43.107084220074995" lon="12.217575876710281"><ele>476.0</ele><time>2026-05-02T10:59:37Z</time></trkpt><trkpt lat="43.10697983552443" lon="12.217538497859298"><ele>475.99999999999994</ele><time>2026-05-02T10:59:39Z</time></trkpt><trkpt lat="43.10689996416439" lon="12.217508369580676"><ele>476.0</ele><time>2026-05-02T10:59:41Z</time></trkpt><trkpt lat="43.10682086051644" lon="12.217512000579122"><ele>475.99999999999994</ele><time>2026-05-02T10:59:43Z</time></trkpt><trkpt lat="43.10671481156064" lon="12.217518945055813"><ele>476.0</ele><time>2026-05-02T10:59:45Z</time></trkpt><trkpt lat="43.10662654283614" lon="12.217504065483988"><ele>476.0</ele><time>2026-05-02T10:59:47Z</time></trkpt><trkpt lat="43.106529633606975" lon="12.217468357923773"><ele>476.0</ele><time>2026-05-02T10:59:50Z</time></trkpt><trkpt lat="43.10646541036163" lon="12.21744654890618"><ele>475.99999999999994</ele><time>2026-05-02T10:59:52Z</time></trkpt><trkpt lat="43.1063901304144" lon="12.217415542622044"><ele>476.0</ele><time>2026-05-02T11:00:10Z</time></trkpt><trkpt lat="43.1062840530082" lon="12.217380660671822"><ele>477.0</ele><time>2026-05-02T11:00:12Z</time></trkpt><trkpt lat="43.10619900700821" lon="12.217337553166908"><ele>478.0</ele><time>2026-05-02T11:00:14Z</time></trkpt><trkpt lat="43.10612623148389" lon="12.217288439794212"><ele>479.0</ele><time>2026-05-02T11:00:16Z</time></trkpt><trkpt lat="43.106023377966075" lon="12.217252558303372"><ele>480.0</ele><time>2026-05-02T11:00:18Z</time></trkpt><trkpt lat="43.10593860228729" lon="12.217206320549048"><ele>481.0</ele><time>2026-05-02T11:00:20Z</time></trkpt><trkpt lat="43.10584568061643" lon="12.217182122807138"><ele>479.0</ele><time>2026-05-02T11:00:22Z</time></trkpt><trkpt lat="43.10575571109728" lon="12.21720754070929"><ele>477.0</ele><time>2026-05-02T11:00:24Z</time></trkpt><trkpt lat="43.105642512244465" lon="12.217255154176964"><ele>475.0</ele><time>2026-05-02T11:00:26Z</time></trkpt><trkpt lat="43.10557968224333" lon="12.217278442716994"><ele>473.0</ele><time>2026-05-02T11:00:27Z</time></trkpt><trkpt lat="43.10546722420464" lon="12.217332222775006"><ele>471.0</ele><time>2026-05-02T11:00:29Z</time></trkpt><trkpt lat="43.10540605143929" lon="12.217357463025866"><ele>471.0</ele><time>2026-05-02T11:00:30Z</time></trkpt><trkpt lat="43.10533931167205" lon="12.21735827987991"><ele>471.0</ele><time>2026-05-02T11:00:31Z</time></trkpt><trkpt lat="43.105259372918816" lon="12.217410664799289"><ele>471.0</ele><time>2026-05-02T11:00:33Z</time></trkpt><trkpt lat="43.10518272653179" lon="12.217461986771188"><ele>471.0</ele><time>2026-05-02T11:00:35Z</time></trkpt><trkpt lat="43.10510211512111" lon="12.217482366425507"><ele>471.0</ele><time>2026-05-02T11:00:37Z</time></trkpt><trkpt lat="43.10503259189867" lon="12.217491548673415"><ele>471.0</ele><time>2026-05-02T11:00:39Z</time></trkpt><trkpt lat="43.1049351989856" lon="12.217535684035079"><ele>470.4</ele><time>2026-05-02T11:00:41Z</time></trkpt><trkpt lat="43.104835527698626" lon="12.217608037014998"><ele>469.8</ele><time>2026-05-02T11:00:43Z</time></trkpt><trkpt lat="43.104720072298164" lon="12.217650841030753"><ele>469.19999999999993</ele><time>2026-05-02T11:00:45Z</time></trkpt><trkpt lat="43.10459631899162" lon="12.217682606156172"><ele>468.59999999999997</ele><time>2026-05-02T11:00:47Z</time></trkpt><trkpt lat="43.104533323865844" lon="12.217698033840687"><ele>468.0</ele><time>2026-05-02T11:00:48Z</time></trkpt><trkpt lat="43.10442867952234" lon="12.217715952480535"><ele>468.0</ele><time>2026-05-02T11:00:50Z</time></trkpt><trkpt lat="43.1043450526806" lon="12.217734583567061"><ele>468.0</ele><time>2026-05-02T11:00:52Z</time></trkpt><trkpt lat="43.10427888677597" lon="12.21774503755392"><ele>468.0</ele><time>2026-05-02T11:00:54Z</time></trkpt><trkpt lat="43.104214304360355" lon="12.217759091541756"><ele>468.0</ele><time>2026-05-02T11:00:56Z</time></trkpt><trkpt lat="43.1041295069911" lon="12.217789742080292"><ele>468.0</ele><time>2026-05-02T11:00:58Z</time></trkpt><trkpt lat="43.10404712633159" lon="12.217847043838367"><ele>468.0</ele><time>2026-05-02T11:01:00Z</time></trkpt><trkpt lat="43.103954482603896" lon="12.217882793820017"><ele>468.79999999999995</ele><time>2026-05-02T11:01:02Z</time></trkpt><trkpt lat="43.10384132314781" lon="12.217900090775872"><ele>469.59999999999997</ele><time>2026-05-02T11:01:04Z</time></trkpt><trkpt lat="43.103775978889026" lon="12.217904548702583"><ele>470.40000000000003</ele><time>2026-05-02T11:01:05Z</time></trkpt><trkpt lat="43.10369731716789" lon="12.217903805700486"><ele>471.20000000000005</ele><time>2026-05-02T11:01:06Z</time></trkpt><trkpt lat="43.10360679021937" lon="12.217880097251859"><ele>472.0</ele><time>2026-05-02T11:01:07Z</time></trkpt><trkpt lat="43.103492251769694" lon="12.217898698747716"><ele>472.0</ele><time>2026-05-02T11:01:08Z</time></trkpt><trkpt lat="43.10338365498929" lon="12.217903724178472"><ele>472.00000000000006</ele><time>2026-05-02T11:01:09Z</time></trkpt><trkpt lat="43.103309340948364" lon="12.217893885366495"><ele>472.00000000000006</ele><time>2026-05-02T11:01:10Z</time></trkpt><trkpt lat="43.103186567372624" lon="12.217898561507363"><ele>472.0</ele><time>2026-05-02T11:01:12Z</time></trkpt><trkpt lat="43.10308087173807" lon="12.217899978940656"><ele>472.0</ele><time>2026-05-02T11:01:14Z</time></trkpt><trkpt lat="43.1029833041051" lon="12.21791659768984"><ele>473.0</ele><time>2026-05-02T11:01:16Z</time></trkpt><trkpt lat="43.10284467675125" lon="12.217917622399701"><ele>474.00000000000006</ele><time>2026-05-02T11:01:18Z</time></trkpt><trkpt lat="43.10277834444756" lon="12.217911309216296"><ele>475.00000000000006</ele><time>2026-05-02T11:01:19Z</time></trkpt><trkpt lat="43.1026897284139" lon="12.217880277873038"><ele>476.0</ele><time>2026-05-02T11:01:21Z</time></trkpt><trkpt lat="43.10258266126828" lon="12.217854756845496"><ele>477.0</ele><time>2026-05-02T11:01:28Z</time></trkpt><trkpt lat="43.10251897428997" lon="12.21784603119418"><ele>477.0</ele><time>2026-05-02T11:01:29Z</time></trkpt><trkpt lat="43.10249682956373" lon="12.217939883769365"><ele>477.00000000000006</ele><time>2026-05-02T11:01:30Z</time></trkpt><trkpt lat="43.10240845456033" lon="12.218010860477529"><ele>477.00000000000006</ele><time>2026-05-02T11:01:32Z</time></trkpt><trkpt lat="43.10233424021653" lon="12.218064324348322"><ele>477.0</ele><time>2026-05-02T11:01:34Z</time></trkpt><trkpt lat="43.10224078572468" lon="12.218220669047216"><ele>477.0</ele><time>2026-05-02T11:01:36Z</time></trkpt><trkpt lat="43.10207458478682" lon="12.218276955030746"><ele>479.0</ele><time>2026-05-02T11:01:38Z</time></trkpt><trkpt lat="43.10197605394603" lon="12.218290249701662"><ele>481.0</ele><time>2026-05-02T11:01:40Z</time></trkpt><trkpt lat="43.10190743994203" lon="12.218313531229002"><ele>483.0</ele><time>2026-05-02T11:01:43Z</time></trkpt><trkpt lat="43.101799726847524" lon="12.21777945325982"><ele>483.8333333333333</ele><time>2026-05-02T11:01:49Z</time></trkpt><trkpt lat="43.10188624009288" lon="12.217764163065738"><ele>484.66666666666663</ele><time>2026-05-02T11:02:37Z</time></trkpt><trkpt lat="43.10197236488845" lon="12.217750934157284"><ele>485.5</ele><time>2026-05-02T11:02:41Z</time></trkpt><trkpt lat="43.102057597846716" lon="12.217752973003549"><ele>486.3333333333333</ele><time>2026-05-02T11:02:44Z</time></trkpt><trkpt lat="43.10212118072717" lon="12.217752685635194"><ele>487.16666666666663</ele><time>2026-05-02T11:02:46Z</time></trkpt><trkpt lat="43.102186340869345" lon="12.217760336277518"><ele>488.0</ele><time>2026-05-02T11:02:48Z</time></trkpt><trkpt lat="43.102255223907626" lon="12.217773186709083"><ele>487.99999999999994</ele><time>2026-05-02T11:02:50Z</time></trkpt><trkpt lat="43.10232909631166" lon="12.217785837840193"><ele>488.0</ele><time>2026-05-02T11:02:52Z</time></trkpt><trkpt lat="43.102412860422405" lon="12.217780966002179"><ele>488.0</ele><time>2026-05-02T11:02:54Z</time></trkpt><trkpt lat="43.102499086287025" lon="12.217783453534857"><ele>488.0</ele><time>2026-05-02T11:02:56Z</time></trkpt><trkpt lat="43.10257911693666" lon="12.21779268348116"><ele>487.99999999999994</ele><time>2026-05-02T11:02:58Z</time></trkpt><trkpt lat="43.10263535490535" lon="12.21783974467081"><ele>488.0</ele><time>2026-05-02T11:03:00Z</time></trkpt><trkpt lat="43.102537817818686" lon="12.217802904051272"><ele>487.99999999999994</ele><time>2026-05-02T11:06:09.999Z</time></trkpt><trkpt lat="43.10243654950949" lon="12.217793275256128"><ele>488.0</ele><time>2026-05-02T11:06:11.999Z</time></trkpt><trkpt lat="43.10236074037124" lon="12.217790306290247"><ele>488.0</ele><time>2026-05-02T11:06:12.999Z</time></trkpt><trkpt lat="43.102296481065515" lon="12.217785857937718"><ele>488.0</ele><time>2026-05-02T11:06:13.999Z</time></trkpt><trkpt lat="43.10220750818135" lon="12.217768302160998"><ele>487.99999999999994</ele><time>2026-05-02T11:06:15.999Z</time></trkpt><trkpt lat="43.10209653923394" lon="12.217766551841226"><ele>488.0</ele><time>2026-05-02T11:06:17.999Z</time></trkpt><trkpt lat="43.102030365127675" lon="12.217769632379229"><ele>487.99999999999994</ele><time>2026-05-02T11:06:18.999Z</time></trkpt><trkpt lat="43.101956838210945" lon="12.21776756473925"><ele>488.0</ele><time>2026-05-02T11:06:19.999Z</time></trkpt><trkpt lat="43.10185046323089" lon="12.217789066981553"><ele>488.0</ele><time>2026-05-02T11:06:21.999Z</time></trkpt><trkpt lat="43.101782087611525" lon="12.217773266019522"><ele>488.0</ele><time>2026-05-02T11:06:23.999Z</time></trkpt><trkpt lat="43.10170569805481" lon="12.217690813272998"><ele>487.99999999999994</ele><time>2026-05-02T11:06:25.999Z</time></trkpt><trkpt lat="43.10164741096048" lon="12.21762909149848"><ele>488.0</ele><time>2026-05-02T11:06:27.999Z</time></trkpt><trkpt lat="43.101616494190154" lon="12.217521567754844"><ele>488.3333333333333</ele><time>2026-05-02T11:06:29.999Z</time></trkpt><trkpt lat="43.101581771487886" lon="12.217423954169615"><ele>488.66666666666663</ele><time>2026-05-02T11:06:31.999Z</time></trkpt><trkpt lat="43.10154254522413" lon="12.21733974637936"><ele>489.0</ele><time>2026-05-02T11:06:32.999Z</time></trkpt><trkpt lat="43.10151373812408" lon="12.217227356737746"><ele>489.33333333333337</ele><time>2026-05-02T11:06:33.999Z</time></trkpt><trkpt lat="43.101502083971425" lon="12.217136319990388"><ele>489.6666666666667</ele><time>2026-05-02T11:06:34.999Z</time></trkpt><trkpt lat="43.10150547075912" lon="12.217009791897794"><ele>490.0</ele><time>2026-05-02T11:06:36.999Z</time></trkpt><trkpt lat="43.101472096431785" lon="12.216930825418322"><ele>488.83333333333337</ele><time>2026-05-02T11:06:38.999Z</time></trkpt><trkpt lat="43.101451331916806" lon="12.216815965616357"><ele>487.6666666666667</ele><time>2026-05-02T11:06:46.999Z</time></trkpt><trkpt lat="43.10145302880787" lon="12.216693991411956"><ele>486.5</ele><time>2026-05-02T11:06:48.999Z</time></trkpt><trkpt lat="43.10141197735841" lon="12.216587847307345"><ele>485.33333333333337</ele><time>2026-05-02T11:06:50.999Z</time></trkpt><trkpt lat="43.10135565316673" lon="12.21648928371343"><ele>484.1666666666667</ele><time>2026-05-02T11:06:53.999Z</time></trkpt><trkpt lat="43.10130379449665" lon="12.216427676547209"><ele>483.0</ele><time>2026-05-02T11:07:01.999Z</time></trkpt><trkpt lat="43.101241250206854" lon="12.216349231461837"><ele>483.0</ele><time>2026-05-02T11:07:03.999Z</time></trkpt><trkpt lat="43.10118277604465" lon="12.216275437866168"><ele>483.0</ele><time>2026-05-02T11:07:06.999Z</time></trkpt><trkpt lat="43.10111851882846" lon="12.216236944078432"><ele>483.0</ele><time>2026-05-02T11:07:08.999Z</time></trkpt><trkpt lat="43.10105398839282" lon="12.216198403637717"><ele>483.0</ele><time>2026-05-02T11:07:10.999Z</time></trkpt><trkpt lat="43.10096511489294" lon="12.216164106038242"><ele>483.0</ele><time>2026-05-02T11:07:13.999Z</time></trkpt><trkpt lat="43.10087684291593" lon="12.21613657580307"><ele>483.0</ele><time>2026-05-02T11:07:33.999Z</time></trkpt><trkpt lat="43.100797382418165" lon="12.21611462898819"><ele>483.0</ele><time>2026-05-02T11:07:36.999Z</time></trkpt><trkpt lat="43.100881154027945" lon="12.216118726937498"><ele>483.0</ele><time>2026-05-02T11:08:42.999Z</time></trkpt><trkpt lat="43.100948455932574" lon="12.216136835762239"><ele>483.0</ele><time>2026-05-02T11:08:44.999Z</time></trkpt><trkpt lat="43.10102806100007" lon="12.216171348557566"><ele>483.0</ele><time>2026-05-02T11:08:46.999Z</time></trkpt><trkpt lat="43.101089124210574" lon="12.216203213578414"><ele>483.0</ele><time>2026-05-02T11:08:48.999Z</time></trkpt><trkpt lat="43.101152320712906" lon="12.2162533379901"><ele>483.0</ele><time>2026-05-02T11:08:50.999Z</time></trkpt><trkpt lat="43.101218749542575" lon="12.216312911152087"><ele>483.0</ele><time>2026-05-02T11:08:52.999Z</time></trkpt><trkpt lat="43.10127966499711" lon="12.216411770944848"><ele>483.0</ele><time>2026-05-02T11:08:54.999Z</time></trkpt><trkpt lat="43.101358970861334" lon="12.21648738178931"><ele>483.0</ele><time>2026-05-02T11:08:56.999Z</time></trkpt><trkpt lat="43.101404428139986" lon="12.216557672279471"><ele>483.0</ele><time>2026-05-02T11:08:58.999Z</time></trkpt><trkpt lat="43.1014346474315" lon="12.216638396286518"><ele>483.0</ele><time>2026-05-02T11:09:16.999Z</time></trkpt><trkpt lat="43.10146394579143" lon="12.216768667124581"><ele>483.0</ele><time>2026-05-02T11:09:18.999Z</time></trkpt><trkpt lat="43.10146157607167" lon="12.216869345555178"><ele>483.8333333333333</ele><time>2026-05-02T11:09:21.999Z</time></trkpt><trkpt lat="43.10148242922174" lon="12.216968106483524"><ele>484.66666666666663</ele><time>2026-05-02T11:09:23.999Z</time></trkpt><trkpt lat="43.10151315089273" lon="12.21705213652263"><ele>485.5</ele><time>2026-05-02T11:09:25.999Z</time></trkpt><trkpt lat="43.10151869929066" lon="12.21717141133145"><ele>486.3333333333333</ele><time>2026-05-02T11:09:28.999Z</time></trkpt><trkpt lat="43.101543129915555" lon="12.217271213953751"><ele>487.16666666666663</ele><time>2026-05-02T11:09:30.999Z</time></trkpt><trkpt lat="43.10156026037125" lon="12.217357003522917"><ele>488.0</ele><time>2026-05-02T11:09:32.999Z</time></trkpt><trkpt lat="43.10160042773358" lon="12.217469734238385"><ele>487.99999999999994</ele><time>2026-05-02T11:09:34.999Z</time></trkpt><trkpt lat="43.101649068378144" lon="12.217584024461718"><ele>488.0</ele><time>2026-05-02T11:09:36.999Z</time></trkpt><trkpt lat="43.10160025489683" lon="12.217646251741321"><ele>488.0</ele><time>2026-05-02T11:09:42.999Z</time></trkpt><trkpt lat="43.101538338665115" lon="12.217539441270954"><ele>488.0</ele><time>2026-05-02T11:09:45.999Z</time></trkpt><trkpt lat="43.10148815707006" lon="12.217482098660167"><ele>487.99999999999994</ele><time>2026-05-02T11:09:48.999Z</time></trkpt><trkpt lat="43.101413682630465" lon="12.21741308911022"><ele>488.0</ele><time>2026-05-02T11:09:51.999Z</time></trkpt><trkpt lat="43.10132217426273" lon="12.217326131308944"><ele>489.66666666666663</ele><time>2026-05-02T11:09:53.999Z</time></trkpt><trkpt lat="43.10125412974769" lon="12.217247689198174"><ele>491.3333333333333</ele><time>2026-05-02T11:09:55.999Z</time></trkpt><trkpt lat="43.10116708584882" lon="12.21718150071054"><ele>493.0</ele><time>2026-05-02T11:09:57.999Z</time></trkpt><trkpt lat="43.101107892282016" lon="12.217097896720922"><ele>494.66666666666663</ele><time>2026-05-02T11:09:59.999Z</time></trkpt><trkpt lat="43.10103130543171" lon="12.217057946641017"><ele>496.3333333333333</ele><time>2026-05-02T11:10:13.999Z</time></trkpt><trkpt lat="43.10094744281024" lon="12.217017520269463"><ele>498.0</ele><time>2026-05-02T11:10:15.999Z</time></trkpt><trkpt lat="43.10088632841696" lon="12.21696532401456"><ele>498.0</ele><time>2026-05-02T11:10:17.999Z</time></trkpt><trkpt lat="43.10083126071346" lon="12.216907779201524"><ele>498.0</ele><time>2026-05-02T11:10:19.999Z</time></trkpt><trkpt lat="43.10075712763773" lon="12.216829780275686"><ele>498.0</ele><time>2026-05-02T11:10:22.999Z</time></trkpt><trkpt lat="43.10070662093082" lon="12.216766279405473"><ele>498.0</ele><time>2026-05-02T11:10:24.999Z</time></trkpt><trkpt lat="43.100594983825644" lon="12.216700121104587"><ele>498.0</ele><time>2026-05-02T11:10:26.999Z</time></trkpt><trkpt lat="43.10053537678151" lon="12.216670724495895"><ele>498.0</ele><time>2026-05-02T11:10:27.999Z</time></trkpt><trkpt lat="43.10045519628868" lon="12.216646737373027"><ele>498.4285714285714</ele><time>2026-05-02T11:10:29.999Z</time></trkpt><trkpt lat="43.100391234764345" lon="12.216650600778905"><ele>498.8571428571428</ele><time>2026-05-02T11:10:31.999Z</time></trkpt><trkpt lat="43.100329017164185" lon="12.216578864148513"><ele>499.2857142857143</ele><time>2026-05-02T11:10:34.999Z</time></trkpt><trkpt lat="43.10026506977941" lon="12.21652835362393"><ele>499.71428571428567</ele><time>2026-05-02T11:10:37.999Z</time></trkpt><trkpt lat="43.10021008340983" lon="12.216469156342207"><ele>500.1428571428571</ele><time>2026-05-02T11:12:02Z</time></trkpt><trkpt lat="43.10016533210953" lon="12.216386542685214"><ele>500.57142857142856</ele><time>2026-05-02T11:12:06Z</time></trkpt><trkpt lat="43.10011882826009" lon="12.216327209852794"><ele>501.0</ele><time>2026-05-02T11:12:08Z</time></trkpt><trkpt lat="43.10006065830663" lon="12.216272531319031"><ele>501.0</ele><time>2026-05-02T11:12:10Z</time></trkpt><trkpt lat="43.09999215123641" lon="12.216210105427965"><ele>501.0</ele><time>2026-05-02T11:12:12Z</time></trkpt><trkpt lat="43.099942596540096" lon="12.216104977604967"><ele>501.0</ele><time>2026-05-02T11:12:15Z</time></trkpt><trkpt lat="43.09991020527894" lon="12.216014216560014"><ele>501.0</ele><time>2026-05-02T11:12:18Z</time></trkpt><trkpt lat="43.09987894416913" lon="12.21592839934484"><ele>501.0</ele><time>2026-05-02T11:12:20Z</time></trkpt><trkpt lat="43.09986681023562" lon="12.215832614392408"><ele>501.0</ele><time>2026-05-02T11:12:30Z</time></trkpt><trkpt lat="43.09983447081664" lon="12.215752425306318"><ele>502.3333333333333</ele><time>2026-05-02T11:12:33Z</time></trkpt><trkpt lat="43.099774920401366" lon="12.21572321652651"><ele>503.66666666666663</ele><time>2026-05-02T11:12:35Z</time></trkpt><trkpt lat="43.09972715162065" lon="12.21562060096713"><ele>505.0</ele><time>2026-05-02T11:12:50Z</time></trkpt><trkpt lat="43.09968343340541" lon="12.2155493852495"><ele>506.3333333333333</ele><time>2026-05-02T11:12:52Z</time></trkpt><trkpt lat="43.099621564855944" lon="12.215484476153625"><ele>507.66666666666663</ele><time>2026-05-02T11:12:55Z</time></trkpt><trkpt lat="43.09952964994637" lon="12.215420587249946"><ele>509.0</ele><time>2026-05-02T11:12:58Z</time></trkpt><trkpt lat="43.0994695813391" lon="12.215373838758133"><ele>508.99999999999994</ele><time>2026-05-02T11:13:00Z</time></trkpt><trkpt lat="43.09939418045375" lon="12.215333036593377"><ele>509.0</ele><time>2026-05-02T11:13:03Z</time></trkpt><trkpt lat="43.09928894629362" lon="12.215352355971927"><ele>509.0</ele><time>2026-05-02T11:13:06Z</time></trkpt><trkpt lat="43.09920862524158" lon="12.215388125721843"><ele>509.0</ele><time>2026-05-02T11:13:08Z</time></trkpt><trkpt lat="43.09911791833824" lon="12.215382237231305"><ele>508.99999999999994</ele><time>2026-05-02T11:13:10Z</time></trkpt><trkpt lat="43.09903743176056" lon="12.215396547529213"><ele>509.0</ele><time>2026-05-02T11:13:12Z</time></trkpt><trkpt lat="43.09894104110303" lon="12.215400262024271"><ele>509.16666666666663</ele><time>2026-05-02T11:13:26Z</time></trkpt><trkpt lat="43.09886386053808" lon="12.215401106038769"><ele>509.3333333333333</ele><time>2026-05-02T11:13:28Z</time></trkpt><trkpt lat="43.098778138345274" lon="12.215383393794363"><ele>509.5</ele><time>2026-05-02T11:13:30Z</time></trkpt><trkpt lat="43.09870529175987" lon="12.215372557117089"><ele>509.66666666666663</ele><time>2026-05-02T11:13:32Z</time></trkpt><trkpt lat="43.09861446870658" lon="12.215391493527436"><ele>509.8333333333333</ele><time>2026-05-02T11:13:35Z</time></trkpt><trkpt lat="43.0985447217967" lon="12.215410342963033"><ele>510.0</ele><time>2026-05-02T11:13:37Z</time></trkpt><trkpt lat="43.09845923625215" lon="12.215443736532071"><ele>510.0</ele><time>2026-05-02T11:13:40Z</time></trkpt><trkpt lat="43.09839448203845" lon="12.215509850546004"><ele>510.0</ele><time>2026-05-02T11:13:43Z</time></trkpt><trkpt lat="43.098337592144134" lon="12.21556097753913"><ele>510.0</ele><time>2026-05-02T11:13:45Z</time></trkpt><trkpt lat="43.098287022312824" lon="12.215625863785526"><ele>510.0</ele><time>2026-05-02T11:13:47Z</time></trkpt><trkpt lat="43.098222872311105" lon="12.215691621392331"><ele>510.0</ele><time>2026-05-02T11:13:49Z</time></trkpt><trkpt lat="43.09815609237621" lon="12.21573310675016"><ele>510.0</ele><time>2026-05-02T11:14:32Z</time></trkpt><trkpt lat="43.098077821397574" lon="12.215762105700007"><ele>505.0</ele><time>2026-05-02T11:14:34Z</time></trkpt><trkpt lat="43.09801280071131" lon="12.215757898374655"><ele>500.00000000000006</ele><time>2026-05-02T11:14:36Z</time></trkpt><trkpt lat="43.09795001011396" lon="12.21580157588424"><ele>495.0</ele><time>2026-05-02T11:14:39Z</time></trkpt><trkpt lat="43.09787757467383" lon="12.215803541913838"><ele>490.0</ele><time>2026-05-02T11:14:42Z</time></trkpt><trkpt lat="43.09780713058202" lon="12.215860958307676"><ele>485.00000000000006</ele><time>2026-05-02T11:14:46Z</time></trkpt><trkpt lat="43.09775788175981" lon="12.215916224353801"><ele>480.0</ele><time>2026-05-02T11:14:49Z</time></trkpt><trkpt lat="43.09769834561282" lon="12.215979180626638"><ele>475.0</ele><time>2026-05-02T11:14:52Z</time></trkpt><trkpt lat="43.097636072469996" lon="12.21601377571061"><ele>475.0</ele><time>2026-05-02T11:15:40Z</time></trkpt><trkpt lat="43.097595674766694" lon="12.215945141263669"><ele>475.00000000000006</ele><time>2026-05-02T11:15:45Z</time></trkpt><trkpt lat="43.097582497242016" lon="12.215854085273385"><ele>475.0</ele><time>2026-05-02T11:15:50Z</time></trkpt><trkpt lat="43.097563014375325" lon="12.215770423803368"><ele>475.0</ele><time>2026-05-02T11:15:54Z</time></trkpt><trkpt lat="43.09754174052898" lon="12.215673749072558"><ele>475.00000000000006</ele><time>2026-05-02T11:15:59Z</time></trkpt><trkpt lat="43.09751175535126" lon="12.215580293189063"><ele>475.0</ele><time>2026-05-02T11:16:02Z</time></trkpt><trkpt lat="43.09746547599831" lon="12.215490684339967"><ele>475.0</ele><time>2026-05-02T11:16:05Z</time></trkpt><trkpt lat="43.09739772404557" lon="12.21543309840776"><ele>474.00000000000006</ele><time>2026-05-02T11:16:08Z</time></trkpt><trkpt lat="43.09734308603663" lon="12.21537938861454"><ele>473.0</ele><time>2026-05-02T11:16:11Z</time></trkpt><trkpt lat="43.09726674839946" lon="12.215342834535926"><ele>472.0</ele><time>2026-05-02T11:16:13Z</time></trkpt><trkpt lat="43.097205909566064" lon="12.215290763448506"><ele>471.0</ele><time>2026-05-02T11:16:16Z</time></trkpt><trkpt lat="43.09712908695574" lon="12.215238110199902"><ele>470.00000000000006</ele><time>2026-05-02T11:16:18Z</time></trkpt><trkpt lat="43.09702500299501" lon="12.215162286088296"><ele>469.0</ele><time>2026-05-02T11:16:20Z</time></trkpt><trkpt lat="43.096941752939934" lon="12.21514124097592"><ele>469.0</ele><time>2026-05-02T11:16:22Z</time></trkpt><trkpt lat="43.0968638319842" lon="12.215125023926394"><ele>469.0</ele><time>2026-05-02T11:16:24Z</time></trkpt><trkpt lat="43.0967944060043" lon="12.21512496642053"><ele>469.0</ele><time>2026-05-02T11:16:26Z</time></trkpt><trkpt lat="43.096725896213755" lon="12.215085587297205"><ele>469.0</ele><time>2026-05-02T11:16:29Z</time></trkpt><trkpt lat="43.096666463531065" lon="12.21505001742192"><ele>469.0</ele><time>2026-05-02T11:16:53Z</time></trkpt><trkpt lat="43.09661525674893" lon="12.214992730220857"><ele>469.0</ele><time>2026-05-02T11:16:55Z</time></trkpt><trkpt lat="43.096549151628956" lon="12.214919430960844"><ele>469.0</ele><time>2026-05-02T11:16:58Z</time></trkpt><trkpt lat="43.09650020660133" lon="12.214851276169712"><ele>470.2857142857143</ele><time>2026-05-02T11:17:01Z</time></trkpt><trkpt lat="43.096449422906396" lon="12.214787424959983"><ele>471.57142857142856</ele><time>2026-05-02T11:17:04Z</time></trkpt><trkpt lat="43.09639735702577" lon="12.214730462975625"><ele>472.8571428571429</ele><time>2026-05-02T11:17:07Z</time></trkpt><trkpt lat="43.096340329230976" lon="12.214681308848425"><ele>474.14285714285717</ele><time>2026-05-02T11:17:09Z</time></trkpt><trkpt lat="43.09626309543648" lon="12.214620456975847"><ele>475.42857142857144</ele><time>2026-05-02T11:17:12Z</time></trkpt><trkpt lat="43.096187056382014" lon="12.214597285544832"><ele>476.7142857142858</ele><time>2026-05-02T11:17:14Z</time></trkpt><trkpt lat="43.096109458882246" lon="12.214575428669598"><ele>478.00000000000006</ele><time>2026-05-02T11:17:16Z</time></trkpt><trkpt lat="43.09602315692315" lon="12.214560528601162"><ele>478.00000000000006</ele><time>2026-05-02T11:17:18Z</time></trkpt><trkpt lat="43.09593919795152" lon="12.214535887762805"><ele>478.0</ele><time>2026-05-02T11:17:20Z</time></trkpt><trkpt lat="43.09585462287607" lon="12.214533701859173"><ele>478.0</ele><time>2026-05-02T11:17:23Z</time></trkpt><trkpt lat="43.095770998799864" lon="12.214508008892013"><ele>478.0</ele><time>2026-05-02T11:17:25Z</time></trkpt><trkpt lat="43.095690113467576" lon="12.214509277379141"><ele>478.00000000000006</ele><time>2026-05-02T11:17:27Z</time></trkpt><trkpt lat="43.095634221491984" lon="12.214465107535437"><ele>478.0</ele><time>2026-05-02T11:17:37Z</time></trkpt><trkpt lat="43.095581596897404" lon="12.21451584315591"><ele>474.79999999999995</ele><time>2026-05-02T11:17:44Z</time></trkpt><trkpt lat="43.09552153524562" lon="12.214558530686478"><ele>471.59999999999997</ele><time>2026-05-02T11:17:46Z</time></trkpt><trkpt lat="43.09542212784479" lon="12.214590118951302"><ele>468.40000000000003</ele><time>2026-05-02T11:17:48Z</time></trkpt><trkpt lat="43.095326261667374" lon="12.214609899738091"><ele>465.20000000000005</ele><time>2026-05-02T11:17:50Z</time></trkpt><trkpt lat="43.09523087855951" lon="12.214648121388722"><ele>462.0</ele><time>2026-05-02T11:17:52Z</time></trkpt><trkpt lat="43.09513088431804" lon="12.214684350706529"><ele>462.0</ele><time>2026-05-02T11:17:54Z</time></trkpt><trkpt lat="43.09504339325818" lon="12.21472392552865"><ele>462.00000000000006</ele><time>2026-05-02T11:17:56Z</time></trkpt><trkpt lat="43.09496249821434" lon="12.214770906832682"><ele>462.00000000000006</ele><time>2026-05-02T11:17:58Z</time></trkpt><trkpt lat="43.094872894946604" lon="12.214826290878229"><ele>462.0</ele><time>2026-05-02T11:18:00Z</time></trkpt><trkpt lat="43.094771373497906" lon="12.21482635467487"><ele>462.0</ele><time>2026-05-02T11:18:02Z</time></trkpt><trkpt lat="43.094677800801676" lon="12.214789941845588"><ele>458.6666666666667</ele><time>2026-05-02T11:18:04Z</time></trkpt><trkpt lat="43.09461335193578" lon="12.214730181782755"><ele>455.33333333333337</ele><time>2026-05-02T11:18:06Z</time></trkpt><trkpt lat="43.09456260573601" lon="12.21467680937378"><ele>452.0</ele><time>2026-05-02T11:18:08Z</time></trkpt><trkpt lat="43.094511907402826" lon="12.214589929523134"><ele>448.6666666666667</ele><time>2026-05-02T11:18:10Z</time></trkpt><trkpt lat="43.094478618924036" lon="12.214509397063235"><ele>445.33333333333337</ele><time>2026-05-02T11:18:12Z</time></trkpt><trkpt lat="43.09443898323854" lon="12.214422785042048"><ele>442.0</ele><time>2026-05-02T11:18:14Z</time></trkpt><trkpt lat="43.094375965209906" lon="12.214317266084883"><ele>442.0</ele><time>2026-05-02T11:18:44Z</time></trkpt><trkpt lat="43.0942934887314" lon="12.214156852215726"><ele>442.00000000000006</ele><time>2026-05-02T11:18:46Z</time></trkpt><trkpt lat="43.09424285899218" lon="12.214054825843096"><ele>442.00000000000006</ele><time>2026-05-02T11:18:47Z</time></trkpt><trkpt lat="43.09419986907882" lon="12.213973792690243"><ele>442.0</ele><time>2026-05-02T11:18:48Z</time></trkpt><trkpt lat="43.09415816808331" lon="12.213909066131242"><ele>442.0</ele><time>2026-05-02T11:18:49Z</time></trkpt><trkpt lat="43.09405593596965" lon="12.213839424512603"><ele>446.0</ele><time>2026-05-02T11:18:51Z</time></trkpt><trkpt lat="43.09396245533834" lon="12.213816933846124"><ele>450.00000000000006</ele><time>2026-05-02T11:18:53Z</time></trkpt><trkpt lat="43.093850231053594" lon="12.213780295648792"><ele>454.00000000000006</ele><time>2026-05-02T11:18:55Z</time></trkpt><trkpt lat="43.09378586358158" lon="12.21378396108289"><ele>458.0</ele><time>2026-05-02T11:18:56Z</time></trkpt><trkpt lat="43.09367208061704" lon="12.213856673749273"><ele>462.0</ele><time>2026-05-02T11:18:58Z</time></trkpt><trkpt lat="43.093622565532215" lon="12.213916803634895"><ele>459.8</ele><time>2026-05-02T11:18:59Z</time></trkpt><trkpt lat="43.09353006327488" lon="12.214029778234396"><ele>457.6</ele><time>2026-05-02T11:19:01Z</time></trkpt><trkpt lat="43.09347409748478" lon="12.214088499060605"><ele>455.40000000000003</ele><time>2026-05-02T11:19:02Z</time></trkpt><trkpt lat="43.09341163833368" lon="12.214149115000266"><ele>453.20000000000005</ele><time>2026-05-02T11:19:03Z</time></trkpt><trkpt lat="43.09331665899418" lon="12.214209789064759"><ele>451.0</ele><time>2026-05-02T11:19:04Z</time></trkpt><trkpt lat="43.09320352588589" lon="12.214267262669098"><ele>451.00000000000006</ele><time>2026-05-02T11:19:05Z</time></trkpt><trkpt lat="43.0931054210209" lon="12.214291309883581"><ele>451.0</ele><time>2026-05-02T11:19:06Z</time></trkpt><trkpt lat="43.09302980855972" lon="12.214304304781262"><ele>451.0</ele><time>2026-05-02T11:19:07Z</time></trkpt><trkpt lat="43.09296418435438" lon="12.21431098068198"><ele>451.0</ele><time>2026-05-02T11:19:08Z</time></trkpt><trkpt lat="43.092860073142276" lon="12.214294958701926"><ele>451.00000000000006</ele><time>2026-05-02T11:19:10Z</time></trkpt><trkpt lat="43.09278273796986" lon="12.214335334868272"><ele>451.0</ele><time>2026-05-02T11:19:12Z</time></trkpt><trkpt lat="43.092732998609385" lon="12.214407748526707"><ele>451.00000000000006</ele><time>2026-05-02T11:19:14Z</time></trkpt><trkpt lat="43.09269561848386" lon="12.214517525446091"><ele>451.0</ele><time>2026-05-02T11:19:16Z</time></trkpt><trkpt lat="43.09266131285071" lon="12.214634884190007"><ele>451.0</ele><time>2026-05-02T11:19:18Z</time></trkpt><trkpt lat="43.09262364348069" lon="12.214737195899467"><ele>451.0</ele><time>2026-05-02T11:19:19Z</time></trkpt><trkpt lat="43.09258597329981" lon="12.21485132175031"><ele>451.00000000000006</ele><time>2026-05-02T11:19:20Z</time></trkpt><trkpt lat="43.09254764586469" lon="12.214936229232215"><ele>451.0</ele><time>2026-05-02T11:19:21Z</time></trkpt><trkpt lat="43.09250804363916" lon="12.215004095249386"><ele>447.20000000000005</ele><time>2026-05-02T11:19:22Z</time></trkpt><trkpt lat="43.09240790789658" lon="12.21509991049559"><ele>443.40000000000003</ele><time>2026-05-02T11:19:24Z</time></trkpt><trkpt lat="43.09231301277304" lon="12.215164764304717"><ele>439.6</ele><time>2026-05-02T11:19:26Z</time></trkpt><trkpt lat="43.092240276807374" lon="12.215188894130868"><ele>435.8</ele><time>2026-05-02T11:19:28Z</time></trkpt><trkpt lat="43.09215663140186" lon="12.215141342579281"><ele>432.0</ele><time>2026-05-02T11:19:31Z</time></trkpt><trkpt lat="43.09209437828653" lon="12.215088642867366"><ele>432.0</ele><time>2026-05-02T11:19:33Z</time></trkpt><trkpt lat="43.0919432216337" lon="12.214976023807226"><ele>432.0</ele><time>2026-05-02T11:19:35Z</time></trkpt><trkpt lat="43.09187617596263" lon="12.214902457253407"><ele>432.0</ele><time>2026-05-02T11:19:36Z</time></trkpt><trkpt lat="43.091775206805536" lon="12.214802067978994"><ele>432.0</ele><time>2026-05-02T11:19:37Z</time></trkpt><trkpt lat="43.091656087866944" lon="12.214680257657738"><ele>431.8</ele><time>2026-05-02T11:19:38Z</time></trkpt><trkpt lat="43.091558584444776" lon="12.214556032542044"><ele>431.6</ele><time>2026-05-02T11:19:39Z</time></trkpt><trkpt lat="43.09147916957293" lon="12.214447458184189"><ele>431.40000000000003</ele><time>2026-05-02T11:19:40Z</time></trkpt><trkpt lat="43.09147579503314" lon="12.21433333337148"><ele>431.20000000000005</ele><time>2026-05-02T11:19:42Z</time></trkpt><trkpt lat="43.09142707105012" lon="12.214188804956656"><ele>431.0</ele><time>2026-05-02T11:19:43Z</time></trkpt><trkpt lat="43.091397123155694" lon="12.214091357332215"><ele>430.99999999999994</ele><time>2026-05-02T11:19:44Z</time></trkpt><trkpt lat="43.0913906386481" lon="12.21400480314322"><ele>431.0</ele><time>2026-05-02T11:19:46Z</time></trkpt><trkpt lat="43.09148100630646" lon="12.213958052077146"><ele>431.0</ele><time>2026-05-02T11:20:10Z</time></trkpt><trkpt lat="43.091552502467515" lon="12.213839684888038"><ele>431.0</ele><time>2026-05-02T11:20:12Z</time></trkpt><trkpt lat="43.091539186886095" lon="12.21374570808385"><ele>430.99999999999994</ele><time>2026-05-02T11:20:14Z</time></trkpt><trkpt lat="43.09147896759038" lon="12.213660469996535"><ele>431.0</ele><time>2026-05-02T11:20:17Z</time></trkpt><trkpt lat="43.09141016344757" lon="12.213590116540335"><ele>430.8333333333333</ele><time>2026-05-02T11:20:19Z</time></trkpt><trkpt lat="43.09136300530485" lon="12.213486831480893"><ele>430.66666666666663</ele><time>2026-05-02T11:20:21Z</time></trkpt><trkpt lat="43.09133248280345" lon="12.21338260978347"><ele>430.5</ele><time>2026-05-02T11:20:23Z</time></trkpt><trkpt lat="43.09129252796508" lon="12.21328882706605"><ele>430.33333333333337</ele><time>2026-05-02T11:20:26Z</time></trkpt><trkpt lat="43.091262938084924" lon="12.213198762702296"><ele>430.1666666666667</ele><time>2026-05-02T11:20:28Z</time></trkpt><trkpt lat="43.091293703587006" lon="12.213104871752389"><ele>430.0</ele><time>2026-05-02T11:20:30Z</time></trkpt><trkpt lat="43.09135203681831" lon="12.213054610849271"><ele>430.00000000000006</ele><time>2026-05-02T11:20:33Z</time></trkpt><trkpt lat="43.09141618422217" lon="12.212996653095908"><ele>430.0</ele><time>2026-05-02T11:20:36Z</time></trkpt><trkpt lat="43.09148691576327" lon="12.212904015845485"><ele>430.0</ele><time>2026-05-02T11:20:56Z</time></trkpt><trkpt lat="43.091568077145276" lon="12.212854621564007"><ele>430.0</ele><time>2026-05-02T11:20:58Z</time></trkpt><trkpt lat="43.09163120435555" lon="12.212793599754974"><ele>430.00000000000006</ele><time>2026-05-02T11:21:01Z</time></trkpt><trkpt lat="43.09168255471138" lon="12.212728990466355"><ele>430.0</ele><time>2026-05-02T11:21:03Z</time></trkpt><trkpt lat="43.09173822058717" lon="12.21265584709837"><ele>430.0</ele><time>2026-05-02T11:21:05Z</time></trkpt><trkpt lat="43.091769518726814" lon="12.212568698597085"><ele>430.0</ele><time>2026-05-02T11:21:07Z</time></trkpt><trkpt lat="43.091787813398646" lon="12.212460323713977"><ele>430.0</ele><time>2026-05-02T11:21:09Z</time></trkpt><trkpt lat="43.09181404359705" lon="12.212379629641871"><ele>430.0</ele><time>2026-05-02T11:21:11Z</time></trkpt><trkpt lat="43.091845806383674" lon="12.21229489964539"><ele>430.0</ele><time>2026-05-02T11:21:13Z</time></trkpt><trkpt lat="43.09186607090839" lon="12.21221241426896"><ele>430.0</ele><time>2026-05-02T11:21:15Z</time></trkpt><trkpt lat="43.091890316330435" lon="12.212124575388582"><ele>430.0</ele><time>2026-05-02T11:21:17Z</time></trkpt><trkpt lat="43.0919101850536" lon="12.21202223727049"><ele>430.33333333333337</ele><time>2026-05-02T11:21:20Z</time></trkpt><trkpt lat="43.09188379881218" lon="12.211924123733898"><ele>430.6666666666667</ele><time>2026-05-02T11:21:25Z</time></trkpt><trkpt lat="43.0918306740719" lon="12.211830419317348"><ele>431.0</ele><time>2026-05-02T11:21:29Z</time></trkpt><trkpt lat="43.091795038969195" lon="12.21175801590182"><ele>431.33333333333337</ele><time>2026-05-02T11:21:31Z</time></trkpt><trkpt lat="43.091742496906534" lon="12.211695622068314"><ele>431.6666666666667</ele><time>2026-05-02T11:21:34Z</time></trkpt><trkpt lat="43.09167737240697" lon="12.211611550647113"><ele>432.0</ele><time>2026-05-02T11:21:38Z</time></trkpt><trkpt lat="43.091594533282475" lon="12.211560652874702"><ele>430.8</ele><time>2026-05-02T11:21:41Z</time></trkpt><trkpt lat="43.09151304178408" lon="12.211489953673988"><ele>429.6</ele><time>2026-05-02T11:21:44Z</time></trkpt><trkpt lat="43.09144703253795" lon="12.211433261679067"><ele>428.40000000000003</ele><time>2026-05-02T11:21:46Z</time></trkpt><trkpt lat="43.09139392673084" lon="12.211347976802251"><ele>427.20000000000005</ele><time>2026-05-02T11:21:55Z</time></trkpt><trkpt lat="43.09129504026412" lon="12.211273058925252"><ele>426.0</ele><time>2026-05-02T11:21:57Z</time></trkpt><trkpt lat="43.09120358216334" lon="12.211168971122916"><ele>426.0</ele><time>2026-05-02T11:21:59Z</time></trkpt><trkpt lat="43.09110825130769" lon="12.21106972941118"><ele>426.0</ele><time>2026-05-02T11:22:01Z</time></trkpt><trkpt lat="43.09101376017834" lon="12.210962650687753"><ele>426.0</ele><time>2026-05-02T11:22:03Z</time></trkpt><trkpt lat="43.09092605688657" lon="12.210864687032872"><ele>426.0</ele><time>2026-05-02T11:22:05Z</time></trkpt><trkpt lat="43.090877023129835" lon="12.21080312837843"><ele>426.0</ele><time>2026-05-02T11:22:06Z</time></trkpt><trkpt lat="43.09079421173633" lon="12.210701830929759"><ele>420.4</ele><time>2026-05-02T11:22:08Z</time></trkpt><trkpt lat="43.090722772313974" lon="12.2106138458512"><ele>414.8</ele><time>2026-05-02T11:22:10Z</time></trkpt><trkpt lat="43.090663769048284" lon="12.210513832124107"><ele>409.2</ele><time>2026-05-02T11:22:12Z</time></trkpt><trkpt lat="43.090649842832995" lon="12.210399763496948"><ele>403.59999999999997</ele><time>2026-05-02T11:22:14Z</time></trkpt><trkpt lat="43.090638227957776" lon="12.210260716570941"><ele>398.0</ele><time>2026-05-02T11:22:16Z</time></trkpt><trkpt lat="43.09063899867418" lon="12.21009390355171"><ele>397.99999999999994</ele><time>2026-05-02T11:22:18Z</time></trkpt><trkpt lat="43.090628303267266" lon="12.209999314392629"><ele>398.0</ele><time>2026-05-02T11:22:19Z</time></trkpt><trkpt lat="43.09068181713201" lon="12.20987831080581"><ele>398.0</ele><time>2026-05-02T11:22:21Z</time></trkpt><trkpt lat="43.09070502499283" lon="12.209788342948718"><ele>398.0</ele><time>2026-05-02T11:22:22Z</time></trkpt><trkpt lat="43.09076439614574" lon="12.20968768733266"><ele>397.99999999999994</ele><time>2026-05-02T11:22:23Z</time></trkpt><trkpt lat="43.090815026854635" lon="12.209601640345516"><ele>398.0</ele><time>2026-05-02T11:22:24Z</time></trkpt><trkpt lat="43.090876311123175" lon="12.20954510313531"><ele>401.2</ele><time>2026-05-02T11:22:25Z</time></trkpt><trkpt lat="43.09096779425056" lon="12.209449543028093"><ele>404.4</ele><time>2026-05-02T11:22:27Z</time></trkpt><trkpt lat="43.09105780782061" lon="12.20933562245876"><ele>407.59999999999997</ele><time>2026-05-02T11:22:29Z</time></trkpt><trkpt lat="43.091082869670814" lon="12.2092399365448"><ele>410.79999999999995</ele><time>2026-05-02T11:22:30Z</time></trkpt><trkpt lat="43.09109645480162" lon="12.209144550677767"><ele>414.0</ele><time>2026-05-02T11:22:31Z</time></trkpt><trkpt lat="43.09111222507714" lon="12.20898757617528"><ele>414.0</ele><time>2026-05-02T11:22:33Z</time></trkpt><trkpt lat="43.09111805432975" lon="12.208894934131402"><ele>414.0</ele><time>2026-05-02T11:22:34Z</time></trkpt><trkpt lat="43.09112575614714" lon="12.208785397200181"><ele>414.0</ele><time>2026-05-02T11:22:35Z</time></trkpt><trkpt lat="43.091131931994326" lon="12.208688766186167"><ele>414.0</ele><time>2026-05-02T11:22:36Z</time></trkpt><trkpt lat="43.09113721557165" lon="12.208538531915863"><ele>414.0</ele><time>2026-05-02T11:22:38Z</time></trkpt><trkpt lat="43.091140425165015" lon="12.208427375154107"><ele>414.0</ele><time>2026-05-02T11:22:40Z</time></trkpt><trkpt lat="43.09107470311855" lon="12.20839697706903"><ele>414.0</ele><time>2026-05-02T11:22:59Z</time></trkpt><trkpt lat="43.09112299090568" lon="12.208278285429088"><ele>414.0</ele><time>2026-05-02T11:23:01Z</time></trkpt><trkpt lat="43.09114539388358" lon="12.208195566029339"><ele>414.0</ele><time>2026-05-02T11:23:02Z</time></trkpt><trkpt lat="43.09115149538385" lon="12.208073217447645"><ele>414.0</ele><time>2026-05-02T11:23:03Z</time></trkpt><trkpt lat="43.091128525583734" lon="12.207903132585358"><ele>414.0</ele><time>2026-05-02T11:23:04Z</time></trkpt><trkpt lat="43.091117312583364" lon="12.207699466248316"><ele>413.8333333333333</ele><time>2026-05-02T11:23:05Z</time></trkpt><trkpt lat="43.09111983377646" lon="12.207549680301094"><ele>413.66666666666663</ele><time>2026-05-02T11:23:06Z</time></trkpt><trkpt lat="43.091091594968816" lon="12.207452504005657"><ele>413.5</ele><time>2026-05-02T11:23:07Z</time></trkpt><trkpt lat="43.09107907550481" lon="12.207356756268682"><ele>413.3333333333333</ele><time>2026-05-02T11:23:08Z</time></trkpt><trkpt lat="43.09107273116305" lon="12.207267879001144"><ele>413.16666666666663</ele><time>2026-05-02T11:23:09Z</time></trkpt><trkpt lat="43.091040004373845" lon="12.207183424907717"><ele>413.0</ele><time>2026-05-02T11:23:10Z</time></trkpt><trkpt lat="43.090984282344856" lon="12.207062885226948"><ele>413.5</ele><time>2026-05-02T11:23:12Z</time></trkpt><trkpt lat="43.091163246958644" lon="12.206945294682836"><ele>414.0</ele><time>2026-05-02T11:23:30Z</time></trkpt><trkpt lat="43.0912325303101" lon="12.206833780273904"><ele>414.5</ele><time>2026-05-02T11:23:32Z</time></trkpt><trkpt lat="43.09131484159666" lon="12.206752121789277"><ele>415.0</ele><time>2026-05-02T11:23:34Z</time></trkpt><trkpt lat="43.09138114040674" lon="12.206693828133165"><ele>415.0</ele><time>2026-05-02T11:23:36Z</time></trkpt><trkpt lat="43.09145553681598" lon="12.206660904288047"><ele>415.0</ele><time>2026-05-02T11:23:38Z</time></trkpt><trkpt lat="43.09154264916644" lon="12.20663998946772"><ele>415.0</ele><time>2026-05-02T11:23:40Z</time></trkpt><trkpt lat="43.091652690793744" lon="12.206636052017636"><ele>415.0</ele><time>2026-05-02T11:23:42Z</time></trkpt><trkpt lat="43.09175471394152" lon="12.206636962670228"><ele>415.0</ele><time>2026-05-02T11:23:44Z</time></trkpt><trkpt lat="43.09183603425843" lon="12.206654477106829"><ele>413.6666666666667</ele><time>2026-05-02T11:23:46Z</time></trkpt><trkpt lat="43.09192686193235" lon="12.206679294564031"><ele>412.33333333333337</ele><time>2026-05-02T11:23:49Z</time></trkpt><trkpt lat="43.09199883765474" lon="12.206683104404702"><ele>411.0</ele><time>2026-05-02T11:23:51Z</time></trkpt><trkpt lat="43.09209258239792" lon="12.20672644454973"><ele>409.66666666666663</ele><time>2026-05-02T11:23:56Z</time></trkpt><trkpt lat="43.09215972246186" lon="12.206792487630397"><ele>408.3333333333333</ele><time>2026-05-02T11:23:58Z</time></trkpt><trkpt lat="43.092228053922916" lon="12.206839608639402"><ele>407.0</ele><time>2026-05-02T11:24:00Z</time></trkpt><trkpt lat="43.09233373267199" lon="12.20683280851352"><ele>406.99999999999994</ele><time>2026-05-02T11:24:03Z</time></trkpt><trkpt lat="43.09240095417099" lon="12.206814096358725"><ele>407.0</ele><time>2026-05-02T11:24:05Z</time></trkpt><trkpt lat="43.092489631418" lon="12.20684008843136"><ele>407.0</ele><time>2026-05-02T11:24:08Z</time></trkpt><trkpt lat="43.09255531833335" lon="12.206842545000573"><ele>407.0</ele><time>2026-05-02T11:24:10Z</time></trkpt><trkpt lat="43.09262219423332" lon="12.206861300097897"><ele>406.99999999999994</ele><time>2026-05-02T11:24:21.999Z</time></trkpt><trkpt lat="43.09269854767103" lon="12.2069211672615"><ele>407.0</ele><time>2026-05-02T11:24:29.999Z</time></trkpt><trkpt lat="43.09277222189582" lon="12.206986787329729"><ele>405.0</ele><time>2026-05-02T11:24:32.999Z</time></trkpt><trkpt lat="43.09282693776871" lon="12.207036755362822"><ele>403.0</ele><time>2026-05-02T11:24:34.999Z</time></trkpt><trkpt lat="43.092915533220605" lon="12.20709082612124"><ele>401.0</ele><time>2026-05-02T11:24:37.999Z</time></trkpt><trkpt lat="43.09298677111704" lon="12.207068511303346"><ele>399.0</ele><time>2026-05-02T11:24:40Z</time></trkpt><trkpt lat="43.09305585447156" lon="12.206958751986965"><ele>397.0</ele><time>2026-05-02T11:24:43Z</time></trkpt><trkpt lat="43.09310678960468" lon="12.206811583549936"><ele>397.0</ele><time>2026-05-02T11:24:45Z</time></trkpt><trkpt lat="43.09313852979784" lon="12.20668971669785"><ele>397.0</ele><time>2026-05-02T11:24:46Z</time></trkpt><trkpt lat="43.09317889585505" lon="12.206583482660871"><ele>397.0</ele><time>2026-05-02T11:24:47Z</time></trkpt><trkpt lat="43.09325422390573" lon="12.206454732875624"><ele>397.0</ele><time>2026-05-02T11:24:49Z</time></trkpt><trkpt lat="43.09330568762443" lon="12.206391170873227"><ele>397.0</ele><time>2026-05-02T11:25:01Z</time></trkpt><trkpt lat="43.093351717250094" lon="12.20630193702717"><ele>394.6666666666667</ele><time>2026-05-02T11:25:03Z</time></trkpt><trkpt lat="43.093400672146046" lon="12.206221498926366"><ele>392.33333333333337</ele><time>2026-05-02T11:25:05Z</time></trkpt><trkpt lat="43.09342295212648" lon="12.206127100520682"><ele>390.0</ele><time>2026-05-02T11:25:07Z</time></trkpt><trkpt lat="43.09341321338364" lon="12.206018973229463"><ele>387.6666666666667</ele><time>2026-05-02T11:25:09Z</time></trkpt><trkpt lat="43.09336883993631" lon="12.205911735087563"><ele>385.33333333333337</ele><time>2026-05-02T11:25:11Z</time></trkpt><trkpt lat="43.09331986879006" lon="12.205809254023759"><ele>383.0</ele><time>2026-05-02T11:25:13Z</time></trkpt><trkpt lat="43.09327171255908" lon="12.20572632909782"><ele>381.0</ele><time>2026-05-02T11:25:15Z</time></trkpt><trkpt lat="43.093258736281086" lon="12.205608267239997"><ele>379.0</ele><time>2026-05-02T11:25:17Z</time></trkpt><trkpt lat="43.09325949482549" lon="12.205480005214469"><ele>377.0</ele><time>2026-05-02T11:25:19Z</time></trkpt><trkpt lat="43.09326949848205" lon="12.205370779725223"><ele>375.0</ele><time>2026-05-02T11:25:21Z</time></trkpt><trkpt lat="43.09324834167305" lon="12.20526966258131"><ele>373.0</ele><time>2026-05-02T11:25:23Z</time></trkpt><trkpt lat="43.09324012136866" lon="12.20517780198643"><ele>371.0</ele><time>2026-05-02T11:25:25Z</time></trkpt><trkpt lat="43.093293756426895" lon="12.205043974196078"><ele>371.0</ele><time>2026-05-02T11:25:37Z</time></trkpt><trkpt lat="43.09334733601905" lon="12.204941963971079"><ele>371.0</ele><time>2026-05-02T11:25:39Z</time></trkpt><trkpt lat="43.093420082034825" lon="12.204882133839666"><ele>371.0</ele><time>2026-05-02T11:25:41Z</time></trkpt><trkpt lat="43.093501925197785" lon="12.204851239874786"><ele>371.0</ele><time>2026-05-02T11:25:43Z</time></trkpt><trkpt lat="43.09356685188894" lon="12.204835081973743"><ele>371.0</ele><time>2026-05-02T11:25:46Z</time></trkpt><trkpt lat="43.09363393239793" lon="12.20483243981809"><ele>371.0</ele><time>2026-05-02T11:25:48Z</time></trkpt><trkpt lat="43.093698850926465" lon="12.204847720726503"><ele>371.0</ele><time>2026-05-02T11:25:50Z</time></trkpt><trkpt lat="43.09376807323441" lon="12.204862704536946"><ele>371.0</ele><time>2026-05-02T11:25:52Z</time></trkpt><trkpt lat="43.09384636071831" lon="12.204880753508396"><ele>371.0</ele><time>2026-05-02T11:25:54Z</time></trkpt><trkpt lat="43.093925250756904" lon="12.20490204694512"><ele>371.0</ele><time>2026-05-02T11:25:56Z</time></trkpt><trkpt lat="43.093984258831235" lon="12.204936430120444"><ele>371.0</ele><time>2026-05-02T11:25:58Z</time></trkpt><trkpt lat="43.0940489836422" lon="12.204990287072668"><ele>371.0</ele><time>2026-05-02T11:26:02Z</time></trkpt><trkpt lat="43.09412281742312" lon="12.205009493832424"><ele>371.0</ele><time>2026-05-02T11:26:15Z</time></trkpt><trkpt lat="43.09420161528466" lon="12.205032104427412"><ele>370.0</ele><time>2026-05-02T11:26:18Z</time></trkpt><trkpt lat="43.094272114147515" lon="12.205027529500832"><ele>369.0</ele><time>2026-05-02T11:26:20Z</time></trkpt><trkpt lat="43.094353651174835" lon="12.204990541637791"><ele>368.0</ele><time>2026-05-02T11:26:26.999Z</time></trkpt><trkpt lat="43.094419427672065" lon="12.204957594118858"><ele>367.0</ele><time>2026-05-02T11:26:30.999Z</time></trkpt><trkpt lat="43.09447285921198" lon="12.204882455093742"><ele>366.0</ele><time>2026-05-02T11:26:33.999Z</time></trkpt><trkpt lat="43.09450262295954" lon="12.204792814838678"><ele>365.0</ele><time>2026-05-02T11:26:35.999Z</time></trkpt><trkpt lat="43.09452451952679" lon="12.204694221731483"><ele>362.6</ele><time>2026-05-02T11:26:38.999Z</time></trkpt><trkpt lat="43.094557453131436" lon="12.204574632231973"><ele>360.2</ele><time>2026-05-02T11:26:43.999Z</time></trkpt><trkpt lat="43.094589870171085" lon="12.204444540204767"><ele>357.79999999999995</ele><time>2026-05-02T11:26:46Z</time></trkpt><trkpt lat="43.094622679724885" lon="12.204332262789132"><ele>355.4</ele><time>2026-05-02T11:26:48Z</time></trkpt><trkpt lat="43.09464815280328" lon="12.204216675543245"><ele>353.0</ele><time>2026-05-02T11:26:50Z</time></trkpt><trkpt lat="43.09467912823376" lon="12.20407616107799"><ele>351.1666666666667</ele><time>2026-05-02T11:26:52Z</time></trkpt><trkpt lat="43.094720771172575" lon="12.203966798210601"><ele>349.33333333333337</ele><time>2026-05-02T11:26:54Z</time></trkpt><trkpt lat="43.09477270429321" lon="12.203862252148602"><ele>347.5</ele><time>2026-05-02T11:26:58Z</time></trkpt><trkpt lat="43.09479179317952" lon="12.203756988760773"><ele>345.6666666666667</ele><time>2026-05-02T11:27:00Z</time></trkpt><trkpt lat="43.09482981589983" lon="12.20365846442974"><ele>343.8333333333333</ele><time>2026-05-02T11:27:02Z</time></trkpt><trkpt lat="43.09486529946303" lon="12.203549117391889"><ele>342.0</ele><time>2026-05-02T11:27:05Z</time></trkpt><trkpt lat="43.09489691442403" lon="12.203464684376819"><ele>342.3333333333333</ele><time>2026-05-02T11:27:08Z</time></trkpt><trkpt lat="43.09492599789697" lon="12.203363943867"><ele>342.6666666666667</ele><time>2026-05-02T11:27:11Z</time></trkpt><trkpt lat="43.094972034848425" lon="12.203262711403635"><ele>343.0</ele><time>2026-05-02T11:27:15Z</time></trkpt><trkpt lat="43.09501063224923" lon="12.203190231874968"><ele>343.33333333333337</ele><time>2026-05-02T11:27:17Z</time></trkpt><trkpt lat="43.095047117640746" lon="12.203086345061182"><ele>343.6666666666667</ele><time>2026-05-02T11:27:20Z</time></trkpt><trkpt lat="43.095086217083654" lon="12.20299862121268"><ele>344.0</ele><time>2026-05-02T11:27:24Z</time></trkpt><trkpt lat="43.09511969619304" lon="12.20288339426218"><ele>342.42857142857144</ele><time>2026-05-02T11:27:27Z</time></trkpt><trkpt lat="43.09511366830571" lon="12.20279176661933"><ele>340.8571428571429</ele><time>2026-05-02T11:27:46Z</time></trkpt><trkpt lat="43.095105575175246" lon="12.202700020846988"><ele>339.28571428571433</ele><time>2026-05-02T11:27:50Z</time></trkpt><trkpt lat="43.09506153611617" lon="12.2025868427112"><ele>337.7142857142857</ele><time>2026-05-02T11:27:54Z</time></trkpt><trkpt lat="43.095008935854544" lon="12.202535119531083"><ele>336.1428571428571</ele><time>2026-05-02T11:27:56Z</time></trkpt><trkpt lat="43.09492597394031" lon="12.20249626733549"><ele>334.5714285714286</ele><time>2026-05-02T11:27:58Z</time></trkpt><trkpt lat="43.09486887941763" lon="12.202448698480854"><ele>333.0</ele><time>2026-05-02T11:28:00Z</time></trkpt><trkpt lat="43.09487417582429" lon="12.20232613602237"><ele>330.6666666666667</ele><time>2026-05-02T11:28:02Z</time></trkpt><trkpt lat="43.094940822909656" lon="12.202228933196398"><ele>328.3333333333333</ele><time>2026-05-02T11:28:04Z</time></trkpt><trkpt lat="43.094993328448126" lon="12.202146925286108"><ele>326.0</ele><time>2026-05-02T11:28:06Z</time></trkpt><trkpt lat="43.09503253150028" lon="12.202061600149957"><ele>323.66666666666663</ele><time>2026-05-02T11:28:08Z</time></trkpt><trkpt lat="43.095072381637934" lon="12.201975386433288"><ele>321.3333333333333</ele><time>2026-05-02T11:28:10Z</time></trkpt><trkpt lat="43.09511084315194" lon="12.201883159163433"><ele>319.0</ele><time>2026-05-02T11:28:12Z</time></trkpt><trkpt lat="43.095167671736" lon="12.201813409730862"><ele>319.0</ele><time>2026-05-02T11:28:14Z</time></trkpt><trkpt lat="43.095208222117954" lon="12.20173995295548"><ele>319.0</ele><time>2026-05-02T11:28:17Z</time></trkpt><trkpt lat="43.095268678780215" lon="12.201663292852233"><ele>319.0</ele><time>2026-05-02T11:28:20Z</time></trkpt><trkpt lat="43.09528348403416" lon="12.201562409506353"><ele>319.0</ele><time>2026-05-02T11:28:40.999Z</time></trkpt><trkpt lat="43.09523800927336" lon="12.201478629103638"><ele>319.0</ele><time>2026-05-02T11:28:42.999Z</time></trkpt><trkpt lat="43.095208186020734" lon="12.201388318754594"><ele>319.0</ele><time>2026-05-02T11:28:44.999Z</time></trkpt><trkpt lat="43.095193202708984" lon="12.201294456679145"><ele>319.0</ele><time>2026-05-02T11:28:47.999Z</time></trkpt><trkpt lat="43.09519055312206" lon="12.201202907956828"><ele>317.0</ele><time>2026-05-02T11:28:49.999Z</time></trkpt><trkpt lat="43.095191116217954" lon="12.201097871095165"><ele>315.0</ele><time>2026-05-02T11:28:52Z</time></trkpt><trkpt lat="43.09520974785197" lon="12.20099297921101"><ele>313.0</ele><time>2026-05-02T11:28:54Z</time></trkpt><trkpt lat="43.095265625756554" lon="12.200896309471453"><ele>311.0</ele><time>2026-05-02T11:28:56Z</time></trkpt><trkpt lat="43.09528007182381" lon="12.200798210688761"><ele>309.0</ele><time>2026-05-02T11:28:58Z</time></trkpt><trkpt lat="43.09531435971445" lon="12.200679816119099"><ele>307.0</ele><time>2026-05-02T11:29:00Z</time></trkpt><trkpt lat="43.095323102909624" lon="12.200565451572103"><ele>305.16666666666663</ele><time>2026-05-02T11:29:02Z</time></trkpt><trkpt lat="43.095345685647764" lon="12.200473010130956"><ele>303.3333333333333</ele><time>2026-05-02T11:29:04Z</time></trkpt><trkpt lat="43.09536309108977" lon="12.200380223233312"><ele>301.5</ele><time>2026-05-02T11:29:07Z</time></trkpt><trkpt lat="43.095361486655015" lon="12.200286146028182"><ele>299.6666666666667</ele><time>2026-05-02T11:30:09Z</time></trkpt><trkpt lat="43.09538948905489" lon="12.20013827705397"><ele>297.83333333333337</ele><time>2026-05-02T11:30:11Z</time></trkpt><trkpt lat="43.09541804952092" lon="12.199984247719845"><ele>296.0</ele><time>2026-05-02T11:30:13Z</time></trkpt><trkpt lat="43.09544073756811" lon="12.19987472416764"><ele>296.0</ele><time>2026-05-02T11:30:15Z</time></trkpt><trkpt lat="43.09555616664588" lon="12.199895546244026"><ele>296.0</ele><time>2026-05-02T11:30:36.999Z</time></trkpt><trkpt lat="43.09568991445584" lon="12.199978400989659"><ele>296.0</ele><time>2026-05-02T11:30:38.999Z</time></trkpt><trkpt lat="43.09577313274515" lon="12.200039393590895"><ele>296.0</ele><time>2026-05-02T11:30:39.999Z</time></trkpt><trkpt lat="43.09586293416964" lon="12.200108392593961"><ele>293.75</ele><time>2026-05-02T11:30:40.999Z</time></trkpt><trkpt lat="43.09596473446242" lon="12.20018416461295"><ele>291.5</ele><time>2026-05-02T11:30:41.999Z</time></trkpt><trkpt lat="43.09607405171633" lon="12.200264855501922"><ele>289.25</ele><time>2026-05-02T11:30:42.999Z</time></trkpt><trkpt lat="43.09618276736947" lon="12.20034533679705"><ele>287.0</ele><time>2026-05-02T11:30:43.999Z</time></trkpt><trkpt lat="43.09629622706327" lon="12.200429099180191"><ele>287.0</ele><time>2026-05-02T11:30:44.999Z</time></trkpt><trkpt lat="43.09641142832669" lon="12.200509638656078"><ele>287.0</ele><time>2026-05-02T11:30:45.999Z</time></trkpt><trkpt lat="43.09652057667024" lon="12.200556491476824"><ele>287.0</ele><time>2026-05-02T11:30:46.999Z</time></trkpt><trkpt lat="43.09662614653705" lon="12.200578100231972"><ele>287.0</ele><time>2026-05-02T11:30:47.999Z</time></trkpt><trkpt lat="43.09672723051389" lon="12.200579910481324"><ele>286.2</ele><time>2026-05-02T11:30:48.999Z</time></trkpt><trkpt lat="43.09682148143138" lon="12.20055816193129"><ele>285.4</ele><time>2026-05-02T11:30:49.999Z</time></trkpt><trkpt lat="43.09691134108107" lon="12.20050821808606"><ele>284.6</ele><time>2026-05-02T11:30:50.999Z</time></trkpt><trkpt lat="43.09699443094753" lon="12.200438779687069"><ele>283.8</ele><time>2026-05-02T11:30:51.999Z</time></trkpt><trkpt lat="43.09707159502801" lon="12.200375070150617"><ele>283.0</ele><time>2026-05-02T11:30:52.999Z</time></trkpt><trkpt lat="43.0971508777282" lon="12.200307786236179"><ele>283.0</ele><time>2026-05-02T11:30:53.999Z</time></trkpt><trkpt lat="43.09723657839773" lon="12.200223641370542"><ele>283.0</ele><time>2026-05-02T11:30:54.999Z</time></trkpt><trkpt lat="43.097332395781315" lon="12.200131187296185"><ele>283.0</ele><time>2026-05-02T11:30:55.999Z</time></trkpt><trkpt lat="43.09743552032874" lon="12.200040926904032"><ele>283.0</ele><time>2026-05-02T11:30:56.999Z</time></trkpt><trkpt lat="43.09752419555539" lon="12.199957182956641"><ele>283.0</ele><time>2026-05-02T11:30:58Z</time></trkpt><trkpt lat="43.09761771979761" lon="12.199873123430553"><ele>283.0</ele><time>2026-05-02T11:30:59Z</time></trkpt><trkpt lat="43.09771782539052" lon="12.199807387223236"><ele>283.0</ele><time>2026-05-02T11:31:00Z</time></trkpt><trkpt lat="43.09782580500338" lon="12.199758358809136"><ele>283.0</ele><time>2026-05-02T11:31:01Z</time></trkpt><trkpt lat="43.097929056751255" lon="12.199730838950957"><ele>283.0</ele><time>2026-05-02T11:31:02Z</time></trkpt><trkpt lat="43.098031022756025" lon="12.19972340831629"><ele>281.5</ele><time>2026-05-02T11:31:03Z</time></trkpt><trkpt lat="43.098136302854485" lon="12.19972929303871"><ele>280.0</ele><time>2026-05-02T11:31:04Z</time></trkpt><trkpt lat="43.09824398290603" lon="12.199746318270458"><ele>278.5</ele><time>2026-05-02T11:31:05Z</time></trkpt><trkpt lat="43.09835479281621" lon="12.19977139707673"><ele>277.0</ele><time>2026-05-02T11:31:06Z</time></trkpt><trkpt lat="43.098476792281346" lon="12.199799363077139"><ele>276.5</ele><time>2026-05-02T11:31:07Z</time></trkpt><trkpt lat="43.098604281666915" lon="12.199833370683766"><ele>276.0</ele><time>2026-05-02T11:31:08Z</time></trkpt><trkpt lat="43.09873774632999" lon="12.199868361903405"><ele>275.5</ele><time>2026-05-02T11:31:09Z</time></trkpt><trkpt lat="43.09887438438287" lon="12.19989304682943"><ele>275.0</ele><time>2026-05-02T11:31:10Z</time></trkpt><trkpt lat="43.099009584084605" lon="12.19990771754847"><ele>275.25</ele><time>2026-05-02T11:31:11Z</time></trkpt><trkpt lat="43.09914386002855" lon="12.199909683843032"><ele>275.5</ele><time>2026-05-02T11:31:12Z</time></trkpt><trkpt lat="43.09927933489936" lon="12.199886458977865"><ele>275.75</ele><time>2026-05-02T11:31:13Z</time></trkpt><trkpt lat="43.09941170829002" lon="12.199843686198511"><ele>276.0</ele><time>2026-05-02T11:31:14Z</time></trkpt><trkpt lat="43.09953448329953" lon="12.199797261133483"><ele>276.0</ele><time>2026-05-02T11:31:15Z</time></trkpt><trkpt lat="43.09965270743337" lon="12.199743669864883"><ele>276.0</ele><time>2026-05-02T11:31:16Z</time></trkpt><trkpt lat="43.09976294033232" lon="12.199686107267185"><ele>276.0</ele><time>2026-05-02T11:31:17Z</time></trkpt><trkpt lat="43.09986824252035" lon="12.199632584609631"><ele>276.0</ele><time>2026-05-02T11:31:18Z</time></trkpt><trkpt lat="43.09996339671616" lon="12.19958908192932"><ele>276.6</ele><time>2026-05-02T11:31:19Z</time></trkpt><trkpt lat="43.10005451279185" lon="12.199541346494694"><ele>277.20000000000005</ele><time>2026-05-02T11:31:20Z</time></trkpt><trkpt lat="43.10015320587249" lon="12.199521928880053"><ele>277.79999999999995</ele><time>2026-05-02T11:31:21Z</time></trkpt><trkpt lat="43.10024564612564" lon="12.19948330632516"><ele>278.4</ele><time>2026-05-02T11:31:22Z</time></trkpt><trkpt lat="43.100310514381526" lon="12.19934724297319"><ele>279.0</ele><time>2026-05-02T11:31:23Z</time></trkpt><trkpt lat="43.10037626061691" lon="12.199285499202285"><ele>279.0</ele><time>2026-05-02T11:31:24Z</time></trkpt><trkpt lat="43.10043947280679" lon="12.199223614066076"><ele>279.0</ele><time>2026-05-02T11:31:25Z</time></trkpt><trkpt lat="43.10050435567274" lon="12.199158941387488"><ele>279.0</ele><time>2026-05-02T11:31:26Z</time></trkpt><trkpt lat="43.10057572372461" lon="12.19908545820317"><ele>279.0</ele><time>2026-05-02T11:31:27Z</time></trkpt><trkpt lat="43.100653807082125" lon="12.199013205017295"><ele>279.0</ele><time>2026-05-02T11:31:28Z</time></trkpt><trkpt lat="43.10074236512933" lon="12.198944339048078"><ele>279.0</ele><time>2026-05-02T11:31:29Z</time></trkpt><trkpt lat="43.10083136240256" lon="12.198870232239576"><ele>277.8</ele><time>2026-05-02T11:31:30Z</time></trkpt><trkpt lat="43.10092056975956" lon="12.198789390622121"><ele>276.59999999999997</ele><time>2026-05-02T11:31:31Z</time></trkpt><trkpt lat="43.10100182761975" lon="12.198706592812426"><ele>275.4</ele><time>2026-05-02T11:31:32Z</time></trkpt><trkpt lat="43.101068752748645" lon="12.198601966086324"><ele>274.2</ele><time>2026-05-02T11:31:33Z</time></trkpt><trkpt lat="43.10112522730405" lon="12.198491012053575"><ele>273.0</ele><time>2026-05-02T11:31:34Z</time></trkpt><trkpt lat="43.10117502663584" lon="12.198371677905204"><ele>273.0</ele><time>2026-05-02T11:31:35Z</time></trkpt><trkpt lat="43.10122430816258" lon="12.198237721154447"><ele>273.0</ele><time>2026-05-02T11:31:36Z</time></trkpt><trkpt lat="43.10127342135272" lon="12.19808744995805"><ele>273.0</ele><time>2026-05-02T11:31:37Z</time></trkpt><trkpt lat="43.10132653577004" lon="12.197927661725759"><ele>273.0</ele><time>2026-05-02T11:31:38Z</time></trkpt><trkpt lat="43.10138012850798" lon="12.197750917217029"><ele>271.6666666666667</ele><time>2026-05-02T11:31:39Z</time></trkpt><trkpt lat="43.10144420860625" lon="12.19756140371757"><ele>270.33333333333337</ele><time>2026-05-02T11:31:40Z</time></trkpt><trkpt lat="43.10151317064093" lon="12.197360656481003"><ele>269.0</ele><time>2026-05-02T11:31:41Z</time></trkpt><trkpt lat="43.101599572964865" lon="12.197126516833295"><ele>268.5</ele><time>2026-05-02T11:31:42Z</time></trkpt><trkpt lat="43.10170089156142" lon="12.196837132972048"><ele>268.0</ele><time>2026-05-02T11:31:43Z</time></trkpt><trkpt lat="43.10179539158637" lon="12.19654732214809"><ele>266.66666666666663</ele><time>2026-05-02T11:31:44Z</time></trkpt><trkpt lat="43.1018704537765" lon="12.196254323978334"><ele>265.3333333333333</ele><time>2026-05-02T11:31:45Z</time></trkpt><trkpt lat="43.10195450773466" lon="12.195979133315733"><ele>264.0</ele><time>2026-05-02T11:31:46Z</time></trkpt><trkpt lat="43.1020164377056" lon="12.195752708892737"><ele>263.59999999999997</ele><time>2026-05-02T11:31:47Z</time></trkpt><trkpt lat="43.10206015765522" lon="12.19557323554887"><ele>263.2</ele><time>2026-05-02T11:31:48Z</time></trkpt><trkpt lat="43.10209476997934" lon="12.19542765920231"><ele>262.79999999999995</ele><time>2026-05-02T11:31:49Z</time></trkpt><trkpt lat="43.10211947989878" lon="12.195307721967655"><ele>262.4</ele><time>2026-05-02T11:31:50Z</time></trkpt><trkpt lat="43.10214896699982" lon="12.19521119666268"><ele>262.0</ele><time>2026-05-02T11:31:51Z</time></trkpt><trkpt lat="43.102166364581656" lon="12.195090906054153"><ele>262.0</ele><time>2026-05-02T11:31:53Z</time></trkpt><trkpt lat="43.10231776323357" lon="12.19507348245404"><ele>262.0</ele><time>2026-05-02T11:31:55Z</time></trkpt><trkpt lat="43.10241545734858" lon="12.19505799369965"><ele>262.0</ele><time>2026-05-02T11:31:56Z</time></trkpt><trkpt lat="43.10254719656084" lon="12.195006872925497"><ele>262.0</ele><time>2026-05-02T11:31:57Z</time></trkpt><trkpt lat="43.102689974498986" lon="12.194940843760657"><ele>262.16666666666663</ele><time>2026-05-02T11:31:58Z</time></trkpt><trkpt lat="43.10279860004022" lon="12.194888589342689"><ele>262.3333333333333</ele><time>2026-05-02T11:31:59Z</time></trkpt><trkpt lat="43.102890454664866" lon="12.194851760575832"><ele>262.5</ele><time>2026-05-02T11:32:00Z</time></trkpt><trkpt lat="43.102974463350286" lon="12.194823691288908"><ele>262.6666666666667</ele><time>2026-05-02T11:32:01Z</time></trkpt><trkpt lat="43.10305313096888" lon="12.194806280477403"><ele>262.83333333333337</ele><time>2026-05-02T11:32:02Z</time></trkpt><trkpt lat="43.1031230141955" lon="12.194805323771519"><ele>263.0</ele><time>2026-05-02T11:32:03Z</time></trkpt><trkpt lat="43.10319785637992" lon="12.194805323769875"><ele>263.5</ele><time>2026-05-02T11:32:04Z</time></trkpt><trkpt lat="43.10329099971956" lon="12.194762578549657"><ele>264.0</ele><time>2026-05-02T11:32:05Z</time></trkpt><trkpt lat="43.103374932719454" lon="12.194729294099481"><ele>264.5</ele><time>2026-05-02T11:32:06Z</time></trkpt><trkpt lat="43.103440498385666" lon="12.194652200242563"><ele>265.0</ele><time>2026-05-02T11:32:07Z</time></trkpt><trkpt lat="43.10350758515759" lon="12.19457892134929"><ele>265.5</ele><time>2026-05-02T11:32:08Z</time></trkpt><trkpt lat="43.10357477060973" lon="12.194505755454939"><ele>266.0</ele><time>2026-05-02T11:32:09Z</time></trkpt><trkpt lat="43.103575632172365" lon="12.194397322569177"><ele>266.0</ele><time>2026-05-02T11:32:10Z</time></trkpt><trkpt lat="43.10363098529616" lon="12.194261594810804"><ele>266.0</ele><time>2026-05-02T11:32:11Z</time></trkpt><trkpt lat="43.10369442643136" lon="12.194106034971366"><ele>266.0</ele><time>2026-05-02T11:32:12Z</time></trkpt><trkpt lat="43.10376361317525" lon="12.193913022670014"><ele>266.0</ele><time>2026-05-02T11:32:12.999Z</time></trkpt><trkpt lat="43.10374206060519" lon="12.193658470207643"><ele>266.25</ele><time>2026-05-02T11:32:13.999Z</time></trkpt><trkpt lat="43.10376673967793" lon="12.193469574081355"><ele>266.5</ele><time>2026-05-02T11:32:14.999Z</time></trkpt><trkpt lat="43.10379595759725" lon="12.19330023635438"><ele>266.75</ele><time>2026-05-02T11:32:15.999Z</time></trkpt><trkpt lat="43.10385039460428" lon="12.193156916424764"><ele>267.0</ele><time>2026-05-02T11:32:16.999Z</time></trkpt><trkpt lat="43.10392484263904" lon="12.193023169339684"><ele>267.0</ele><time>2026-05-02T11:32:17.999Z</time></trkpt><trkpt lat="43.10399812568725" lon="12.192911535546806"><ele>267.0</ele><time>2026-05-02T11:32:18.999Z</time></trkpt><trkpt lat="43.1040767013382" lon="12.192847625337219"><ele>267.0</ele><time>2026-05-02T11:32:19.999Z</time></trkpt><trkpt lat="43.10418325009555" lon="12.192767841354913"><ele>267.0</ele><time>2026-05-02T11:32:20.999Z</time></trkpt><trkpt lat="43.104303830031576" lon="12.192691987336259"><ele>269.25</ele><time>2026-05-02T11:32:21.999Z</time></trkpt><trkpt lat="43.10443698696712" lon="12.192603894333704"><ele>271.5</ele><time>2026-05-02T11:32:22.999Z</time></trkpt><trkpt lat="43.10455984975177" lon="12.192518050593575"><ele>273.75</ele><time>2026-05-02T11:32:23.999Z</time></trkpt><trkpt lat="43.10463341997666" lon="12.192449748612251"><ele>276.0</ele><time>2026-05-02T11:32:24.999Z</time></trkpt><trkpt lat="43.104671779311296" lon="12.192359702426353"><ele>278.40000000000003</ele><time>2026-05-02T11:32:25.999Z</time></trkpt><trkpt lat="43.104719956909655" lon="12.19222143430669"><ele>280.8</ele><time>2026-05-02T11:32:26.999Z</time></trkpt><trkpt lat="43.10478465334734" lon="12.192068450708666"><ele>283.20000000000005</ele><time>2026-05-02T11:32:27.999Z</time></trkpt><trkpt lat="43.10484928467228" lon="12.191927009003777"><ele>285.6</ele><time>2026-05-02T11:32:28.999Z</time></trkpt><trkpt lat="43.104904012738075" lon="12.191836379182087"><ele>288.0</ele><time>2026-05-02T11:32:29.999Z</time></trkpt><trkpt lat="43.1049737458482" lon="12.191735340581516"><ele>290.0</ele><time>2026-05-02T11:32:31.999Z</time></trkpt><trkpt lat="43.10502397597907" lon="12.191664946740774"><ele>292.0</ele><time>2026-05-02T11:32:33.999Z</time></trkpt><trkpt lat="43.10507868021424" lon="12.19155524466537"><ele>294.0</ele><time>2026-05-02T11:32:35.999Z</time></trkpt><trkpt lat="43.10514532562731" lon="12.191450838317655"><ele>296.0</ele><time>2026-05-02T11:32:37.999Z</time></trkpt><trkpt lat="43.10522231554658" lon="12.191350783742994"><ele>298.0</ele><time>2026-05-02T11:32:39.999Z</time></trkpt><trkpt lat="43.10530639595571" lon="12.19125492388499"><ele>300.0</ele><time>2026-05-02T11:32:41.999Z</time></trkpt><trkpt lat="43.10538891459631" lon="12.191134451838707"><ele>302.0</ele><time>2026-05-02T11:32:43.999Z</time></trkpt><trkpt lat="43.10547170606809" lon="12.191022776910751"><ele>304.0</ele><time>2026-05-02T11:32:45.999Z</time></trkpt><trkpt lat="43.10550550371373" lon="12.190928755455568"><ele>306.0</ele><time>2026-05-02T11:32:47.999Z</time></trkpt><trkpt lat="43.10555987574917" lon="12.19087234034808"><ele>308.0</ele><time>2026-05-02T11:33:22Z</time></trkpt><trkpt lat="43.10560477954856" lon="12.190806343139972"><ele>310.0</ele><time>2026-05-02T11:33:45Z</time></trkpt><trkpt lat="43.10569483724776" lon="12.190785501507929"><ele>309.16666666666663</ele><time>2026-05-02T11:33:48Z</time></trkpt><trkpt lat="43.105782246460386" lon="12.190790213874156"><ele>308.3333333333333</ele><time>2026-05-02T11:33:50Z</time></trkpt><trkpt lat="43.10585419688191" lon="12.190810579068815"><ele>307.5</ele><time>2026-05-02T11:33:52Z</time></trkpt><trkpt lat="43.10593384554936" lon="12.19081868212152"><ele>306.6666666666667</ele><time>2026-05-02T11:33:54Z</time></trkpt><trkpt lat="43.106041887543476" lon="12.190839009093825"><ele>305.83333333333337</ele><time>2026-05-02T11:33:56Z</time></trkpt><trkpt lat="43.10612665157425" lon="12.19084817777427"><ele>305.0</ele><time>2026-05-02T11:33:57Z</time></trkpt><trkpt lat="43.10620303304629" lon="12.190857750224826"><ele>305.0</ele><time>2026-05-02T11:33:58Z</time></trkpt><trkpt lat="43.106275422028716" lon="12.19088709129794"><ele>305.0</ele><time>2026-05-02T11:33:59Z</time></trkpt><trkpt lat="43.10632845458195" lon="12.190940580548315"><ele>305.0</ele><time>2026-05-02T11:34:00Z</time></trkpt><trkpt lat="43.10638399581186" lon="12.190998720975008"><ele>305.0</ele><time>2026-05-02T11:34:01Z</time></trkpt><trkpt lat="43.10645511398167" lon="12.191062815035819"><ele>305.0</ele><time>2026-05-02T11:34:02Z</time></trkpt><trkpt lat="43.1065410519561" lon="12.191135538691379"><ele>305.0</ele><time>2026-05-02T11:34:03Z</time></trkpt><trkpt lat="43.106621515783985" lon="12.19120164746649"><ele>301.4</ele><time>2026-05-02T11:34:04Z</time></trkpt><trkpt lat="43.106706977483285" lon="12.191274213621979"><ele>297.8</ele><time>2026-05-02T11:34:05Z</time></trkpt><trkpt lat="43.10679131751524" lon="12.191338912150037"><ele>294.2</ele><time>2026-05-02T11:34:06Z</time></trkpt><trkpt lat="43.106870679379284" lon="12.191387312779511"><ele>290.6</ele><time>2026-05-02T11:34:07Z</time></trkpt><trkpt lat="43.10695794407067" lon="12.191444562683314"><ele>287.0</ele><time>2026-05-02T11:34:08Z</time></trkpt><trkpt lat="43.10704199085176" lon="12.191497485344"><ele>287.1666666666667</ele><time>2026-05-02T11:34:08.999Z</time></trkpt><trkpt lat="43.10711921168423" lon="12.191538562115877"><ele>287.33333333333337</ele><time>2026-05-02T11:34:09.999Z</time></trkpt><trkpt lat="43.107197098176485" lon="12.191589416822135"><ele>287.5</ele><time>2026-05-02T11:34:10.999Z</time></trkpt><trkpt lat="43.10727630020078" lon="12.191646907115784"><ele>287.6666666666667</ele><time>2026-05-02T11:34:11.999Z</time></trkpt><trkpt lat="43.107353257600536" lon="12.191700971117754"><ele>287.8333333333333</ele><time>2026-05-02T11:34:12.999Z</time></trkpt><trkpt lat="43.107431999236276" lon="12.191747577997605"><ele>288.0</ele><time>2026-05-02T11:34:13.999Z</time></trkpt><trkpt lat="43.10750591177339" lon="12.191792927032163"><ele>288.00000000000006</ele><time>2026-05-02T11:34:14.999Z</time></trkpt><trkpt lat="43.10757167426255" lon="12.191832205567918"><ele>288.0</ele><time>2026-05-02T11:34:15.999Z</time></trkpt><trkpt lat="43.107648599983484" lon="12.191873372537101"><ele>288.0</ele><time>2026-05-02T11:34:16.999Z</time></trkpt><trkpt lat="43.10771739308534" lon="12.191907140543735"><ele>288.0</ele><time>2026-05-02T11:34:17.999Z</time></trkpt><trkpt lat="43.10777875059795" lon="12.191930616851835"><ele>288.0</ele><time>2026-05-02T11:34:18.999Z</time></trkpt><trkpt lat="43.10785611763976" lon="12.191941870016215"><ele>288.00000000000006</ele><time>2026-05-02T11:34:20.999Z</time></trkpt><trkpt lat="43.107924378069114" lon="12.19195380404554"><ele>288.0</ele><time>2026-05-02T11:34:27.999Z</time></trkpt><trkpt lat="43.10798330176059" lon="12.191995922007692"><ele>288.0</ele><time>2026-05-02T11:34:28.999Z</time></trkpt><trkpt lat="43.108057627696525" lon="12.192089702897379"><ele>288.0</ele><time>2026-05-02T11:34:29.999Z</time></trkpt><trkpt lat="43.10816510586155" lon="12.192189598226646"><ele>288.0</ele><time>2026-05-02T11:34:30.999Z</time></trkpt><trkpt lat="43.108304112555395" lon="12.192297930548332"><ele>288.0</ele><time>2026-05-02T11:34:31.999Z</time></trkpt><trkpt lat="43.10846084432532" lon="12.192432443272196"><ele>287.75</ele><time>2026-05-02T11:34:32.999Z</time></trkpt><trkpt lat="43.10859140494719" lon="12.192529896830477"><ele>287.5</ele><time>2026-05-02T11:34:33.999Z</time></trkpt><trkpt lat="43.10870856128052" lon="12.19261527262884"><ele>287.25</ele><time>2026-05-02T11:34:34.999Z</time></trkpt><trkpt lat="43.108836746977616" lon="12.19271339376454"><ele>287.0</ele><time>2026-05-02T11:34:35.999Z</time></trkpt><trkpt lat="43.10897297929251" lon="12.192820183771417"><ele>287.0</ele><time>2026-05-02T11:34:36.999Z</time></trkpt><trkpt lat="43.10909897705759" lon="12.192918872680396"><ele>287.0</ele><time>2026-05-02T11:34:37.999Z</time></trkpt><trkpt lat="43.10924674581026" lon="12.193032202047247"><ele>287.0</ele><time>2026-05-02T11:34:38.999Z</time></trkpt><trkpt lat="43.10938165634545" lon="12.193140006152259"><ele>287.6</ele><time>2026-05-02T11:34:39.999Z</time></trkpt><trkpt lat="43.1094743200227" lon="12.19324384405417"><ele>288.2</ele><time>2026-05-02T11:34:40.999Z</time></trkpt><trkpt lat="43.10955601892662" lon="12.193301142086163"><ele>288.8</ele><time>2026-05-02T11:34:41.999Z</time></trkpt><trkpt lat="43.109607169909864" lon="12.193368499052859"><ele>289.4</ele><time>2026-05-02T11:34:42.999Z</time></trkpt><trkpt lat="43.10966843461209" lon="12.193484537809912"><ele>290.0</ele><time>2026-05-02T11:34:44.999Z</time></trkpt><trkpt lat="43.109797776770755" lon="12.19338591993587"><ele>290.0</ele><time>2026-05-02T11:34:46.999Z</time></trkpt><trkpt lat="43.10986380548652" lon="12.193291228900547"><ele>290.0</ele><time>2026-05-02T11:34:49.999Z</time></trkpt><trkpt lat="43.10995038536113" lon="12.193212394160442"><ele>290.0</ele><time>2026-05-02T11:34:52.999Z</time></trkpt><trkpt lat="43.110009310007584" lon="12.193172750011152"><ele>290.0</ele><time>2026-05-02T11:34:54.999Z</time></trkpt><trkpt lat="43.11008168256488" lon="12.193177027475588"><ele>290.0</ele><time>2026-05-02T11:35:01.999Z</time></trkpt><trkpt lat="43.11016052764345" lon="12.19319156690646"><ele>290.0</ele><time>2026-05-02T11:35:20Z</time></trkpt><trkpt lat="43.11021753797179" lon="12.193236089400777"><ele>291.0</ele><time>2026-05-02T11:35:21Z</time></trkpt><trkpt lat="43.11028103504003" lon="12.19329199667939"><ele>292.0</ele><time>2026-05-02T11:35:22Z</time></trkpt><trkpt lat="43.11035330561913" lon="12.193362910418328"><ele>293.0</ele><time>2026-05-02T11:35:23Z</time></trkpt><trkpt lat="43.110437564455935" lon="12.193438145411838"><ele>294.0</ele><time>2026-05-02T11:35:24Z</time></trkpt><trkpt lat="43.11053080894724" lon="12.193511780010793"><ele>295.0</ele><time>2026-05-02T11:35:25Z</time></trkpt><trkpt lat="43.11060884771045" lon="12.193549922276976"><ele>295.0</ele><time>2026-05-02T11:35:26Z</time></trkpt><trkpt lat="43.11069600549316" lon="12.193566839464815"><ele>295.0</ele><time>2026-05-02T11:35:27Z</time></trkpt><trkpt lat="43.11078917119123" lon="12.193611830207944"><ele>295.0</ele><time>2026-05-02T11:35:28Z</time></trkpt><trkpt lat="43.11088785170118" lon="12.193641039184968"><ele>295.0</ele><time>2026-05-02T11:35:29Z</time></trkpt><trkpt lat="43.11097784326945" lon="12.193663521525439"><ele>295.0</ele><time>2026-05-02T11:35:30Z</time></trkpt><trkpt lat="43.11105366365595" lon="12.19365386860052"><ele>298.0</ele><time>2026-05-02T11:35:31Z</time></trkpt><trkpt lat="43.11113732629469" lon="12.193621869599637"><ele>301.0</ele><time>2026-05-02T11:35:33Z</time></trkpt><trkpt lat="43.11106569344179" lon="12.193434668718362"><ele>304.0</ele><time>2026-05-02T11:35:35Z</time></trkpt><trkpt lat="43.111004771047476" lon="12.193350998446808"><ele>307.0</ele><time>2026-05-02T11:35:36Z</time></trkpt><trkpt lat="43.110965224192924" lon="12.193248978466684"><ele>310.0</ele><time>2026-05-02T11:35:37Z</time></trkpt><trkpt lat="43.11092646503734" lon="12.193144655090014"><ele>313.4</ele><time>2026-05-02T11:35:38Z</time></trkpt><trkpt lat="43.11089728860245" lon="12.193052182214277"><ele>316.8</ele><time>2026-05-02T11:35:39Z</time></trkpt><trkpt lat="43.110863532503494" lon="12.192938972950357"><ele>320.20000000000005</ele><time>2026-05-02T11:35:40Z</time></trkpt><trkpt lat="43.110830757589525" lon="12.192823197973306"><ele>323.6</ele><time>2026-05-02T11:35:41Z</time></trkpt><trkpt lat="43.110802243789394" lon="12.192691858808914"><ele>327.0</ele><time>2026-05-02T11:35:42Z</time></trkpt><trkpt lat="43.11077316741947" lon="12.192548123162881"><ele>327.0</ele><time>2026-05-02T11:35:43Z</time></trkpt><trkpt lat="43.11074144670294" lon="12.192405170655332"><ele>327.0</ele><time>2026-05-02T11:35:44Z</time></trkpt><trkpt lat="43.1107043376022" lon="12.19226572588703"><ele>327.0</ele><time>2026-05-02T11:35:45Z</time></trkpt><trkpt lat="43.110637803476095" lon="12.192151027447107"><ele>327.0</ele><time>2026-05-02T11:35:46Z</time></trkpt><trkpt lat="43.11061605213487" lon="12.192040883740857"><ele>327.0</ele><time>2026-05-02T11:35:47Z</time></trkpt><trkpt lat="43.110618751573014" lon="12.191925725252057"><ele>325.8333333333333</ele><time>2026-05-02T11:35:49Z</time></trkpt><trkpt lat="43.11069035918511" lon="12.191829826817786"><ele>324.6666666666667</ele><time>2026-05-02T11:35:51Z</time></trkpt><trkpt lat="43.110688262194856" lon="12.1916803023947"><ele>323.5</ele><time>2026-05-02T11:35:53Z</time></trkpt><trkpt lat="43.110618751559485" lon="12.19160393800198"><ele>322.33333333333337</ele><time>2026-05-02T11:35:54Z</time></trkpt><trkpt lat="43.11061425094092" lon="12.191515178311306"><ele>321.1666666666667</ele><time>2026-05-02T11:35:55Z</time></trkpt><trkpt lat="43.11059185663112" lon="12.191429337604522"><ele>320.0</ele><time>2026-05-02T11:35:57Z</time></trkpt><trkpt lat="43.11058650152436" lon="12.191285388400615"><ele>320.0</ele><time>2026-05-02T11:36:00Z</time></trkpt><trkpt lat="43.11058783600791" lon="12.191182385124531"><ele>320.0</ele><time>2026-05-02T11:36:01Z</time></trkpt><trkpt lat="43.11059820899545" lon="12.191045818432256"><ele>320.0</ele><time>2026-05-02T11:36:02.999Z</time></trkpt><trkpt lat="43.11059697685885" lon="12.190958247790745"><ele>320.0</ele><time>2026-05-02T11:36:03.999Z</time></trkpt><trkpt lat="43.11061422136249" lon="12.190826213658845"><ele>320.0</ele><time>2026-05-02T11:36:04.999Z</time></trkpt><trkpt lat="43.11063637762872" lon="12.190678313941802"><ele>320.0</ele><time>2026-05-02T11:36:05.999Z</time></trkpt><trkpt lat="43.11064672516206" lon="12.190527310060913"><ele>321.83333333333337</ele><time>2026-05-02T11:36:06.999Z</time></trkpt><trkpt lat="43.110649074640136" lon="12.19040643229999"><ele>323.6666666666667</ele><time>2026-05-02T11:36:07.999Z</time></trkpt><trkpt lat="43.1106425693306" lon="12.190312170994922"><ele>325.5</ele><time>2026-05-02T11:36:08.999Z</time></trkpt><trkpt lat="43.11061372626782" lon="12.19020038832015"><ele>327.3333333333333</ele><time>2026-05-02T11:36:10.999Z</time></trkpt><trkpt lat="43.110674147489014" lon="12.190148850538904"><ele>329.16666666666663</ele><time>2026-05-02T11:36:12.999Z</time></trkpt><trkpt lat="43.11076138656847" lon="12.190134711918361"><ele>331.0</ele><time>2026-05-02T11:36:14.999Z</time></trkpt><trkpt lat="43.110823779861974" lon="12.190166891366134"><ele>334.8</ele><time>2026-05-02T11:36:15.999Z</time></trkpt><trkpt lat="43.11088312183344" lon="12.190200315009461"><ele>338.6</ele><time>2026-05-02T11:36:16.999Z</time></trkpt><trkpt lat="43.111006396798885" lon="12.1902321932816"><ele>342.4</ele><time>2026-05-02T11:36:18.999Z</time></trkpt><trkpt lat="43.11110265419989" lon="12.190286274092825"><ele>346.2</ele><time>2026-05-02T11:36:20.999Z</time></trkpt><trkpt lat="43.11120199731661" lon="12.190337233180278"><ele>350.0</ele><time>2026-05-02T11:36:22.999Z</time></trkpt><trkpt lat="43.111318673546066" lon="12.19039450535333"><ele>350.0</ele><time>2026-05-02T11:36:24.999Z</time></trkpt><trkpt lat="43.11145587027878" lon="12.190464377434541"><ele>350.0</ele><time>2026-05-02T11:36:26.999Z</time></trkpt><trkpt lat="43.11152557082082" lon="12.190497829584698"><ele>350.0</ele><time>2026-05-02T11:36:27.999Z</time></trkpt><trkpt lat="43.11158902277303" lon="12.190531533979696"><ele>350.0</ele><time>2026-05-02T11:36:28.999Z</time></trkpt><trkpt lat="43.111654798800394" lon="12.190544628582899"><ele>350.0</ele><time>2026-05-02T11:36:29.999Z</time></trkpt><trkpt lat="43.11173444690759" lon="12.19054542093421"><ele>350.0</ele><time>2026-05-02T11:36:30.999Z</time></trkpt><trkpt lat="43.11182384102798" lon="12.190528796362653"><ele>351.83333333333337</ele><time>2026-05-02T11:36:31.999Z</time></trkpt><trkpt lat="43.111897221205325" lon="12.190514975169739"><ele>353.6666666666667</ele><time>2026-05-02T11:36:32.999Z</time></trkpt><trkpt lat="43.1119830898087" lon="12.190531764078978"><ele>355.5</ele><time>2026-05-02T11:36:34.999Z</time></trkpt><trkpt lat="43.11207540480427" lon="12.190545838618354"><ele>357.3333333333333</ele><time>2026-05-02T11:37:04.999Z</time></trkpt><trkpt lat="43.11217783689267" lon="12.190549842187863"><ele>359.16666666666663</ele><time>2026-05-02T11:37:06.999Z</time></trkpt><trkpt lat="43.1122442708693" lon="12.190530361829222"><ele>361.0</ele><time>2026-05-02T11:37:07.999Z</time></trkpt><trkpt lat="43.11236458534932" lon="12.190541246280894"><ele>361.3333333333333</ele><time>2026-05-02T11:37:09.999Z</time></trkpt><trkpt lat="43.11249021563064" lon="12.190560255416008"><ele>361.66666666666663</ele><time>2026-05-02T11:37:11.999Z</time></trkpt><trkpt lat="43.11255122566853" lon="12.190586272407574"><ele>362.0</ele><time>2026-05-02T11:37:12.999Z</time></trkpt><trkpt lat="43.1126414096963" lon="12.190633207700508"><ele>362.3333333333333</ele><time>2026-05-02T11:37:15Z</time></trkpt><trkpt lat="43.112727272473386" lon="12.190671163942824"><ele>362.6666666666667</ele><time>2026-05-02T11:37:17Z</time></trkpt><trkpt lat="43.11279543919854" lon="12.190684776377541"><ele>363.0</ele><time>2026-05-02T11:37:19Z</time></trkpt><trkpt lat="43.11287019868451" lon="12.190715903573565"><ele>364.3333333333333</ele><time>2026-05-02T11:37:21Z</time></trkpt><trkpt lat="43.11297360472918" lon="12.190787789747615"><ele>365.6666666666667</ele><time>2026-05-02T11:37:23Z</time></trkpt><trkpt lat="43.1130376864928" lon="12.190862227367662"><ele>367.0</ele><time>2026-05-02T11:37:25Z</time></trkpt><trkpt lat="43.113075657319335" lon="12.190946086796414"><ele>368.33333333333337</ele><time>2026-05-02T11:37:27Z</time></trkpt><trkpt lat="43.113155751993084" lon="12.190999012632918"><ele>369.6666666666667</ele><time>2026-05-02T11:37:30Z</time></trkpt><trkpt lat="43.1132302099351" lon="12.190965832847215"><ele>371.0</ele><time>2026-05-02T11:37:32Z</time></trkpt><trkpt lat="43.113284313629556" lon="12.19091950956846"><ele>371.8</ele><time>2026-05-02T11:37:33Z</time></trkpt><trkpt lat="43.11338449924939" lon="12.190925554703597"><ele>372.6</ele><time>2026-05-02T11:37:35Z</time></trkpt><trkpt lat="43.11345769272878" lon="12.19099735395808"><ele>373.4</ele><time>2026-05-02T11:37:36Z</time></trkpt><trkpt lat="43.113536153022416" lon="12.191106205522292"><ele>374.2</ele><time>2026-05-02T11:37:37Z</time></trkpt><trkpt lat="43.11359395480837" lon="12.19119259217883"><ele>375.0</ele><time>2026-05-02T11:37:38Z</time></trkpt><trkpt lat="43.1136750491356" lon="12.191233504811825"><ele>375.0</ele><time>2026-05-02T11:37:40Z</time></trkpt><trkpt lat="43.11373624440486" lon="12.191201973692376"><ele>375.0</ele><time>2026-05-02T11:37:42Z</time></trkpt><trkpt lat="43.11382446953141" lon="12.19118274895594"><ele>375.0</ele><time>2026-05-02T11:37:44Z</time></trkpt><trkpt lat="43.113907064041456" lon="12.191189881402657"><ele>375.0</ele><time>2026-05-02T11:37:47Z</time></trkpt><trkpt lat="43.11398143037505" lon="12.191167627179802"><ele>375.0</ele><time>2026-05-02T11:37:50Z</time></trkpt><trkpt lat="43.114062569491864" lon="12.191145896076684"><ele>375.0</ele><time>2026-05-02T11:37:53Z</time></trkpt><trkpt lat="43.114161561327386" lon="12.191137573762038"><ele>374.8333333333333</ele><time>2026-05-02T11:37:56Z</time></trkpt><trkpt lat="43.11427966515156" lon="12.191117374824"><ele>374.6666666666667</ele><time>2026-05-02T11:37:58Z</time></trkpt><trkpt lat="43.1143462826479" lon="12.191107516705678"><ele>374.5</ele><time>2026-05-02T11:37:59Z</time></trkpt><trkpt lat="43.11441747182668" lon="12.191097744384098"><ele>374.33333333333337</ele><time>2026-05-02T11:38:00Z</time></trkpt><trkpt lat="43.1144935256174" lon="12.19108842355565"><ele>374.1666666666667</ele><time>2026-05-02T11:38:01Z</time></trkpt><trkpt lat="43.114577237992926" lon="12.191082566600553"><ele>374.0</ele><time>2026-05-02T11:38:02Z</time></trkpt><trkpt lat="43.114664550491" lon="12.191078715168727"><ele>374.0</ele><time>2026-05-02T11:38:03Z</time></trkpt><trkpt lat="43.1147393341291" lon="12.191066855234013"><ele>374.0</ele><time>2026-05-02T11:38:03.999Z</time></trkpt><trkpt lat="43.114805288124394" lon="12.191058148176545"><ele>374.0</ele><time>2026-05-02T11:38:04.999Z</time></trkpt><trkpt lat="43.11491869836266" lon="12.191051801723983"><ele>374.0</ele><time>2026-05-02T11:38:06.999Z</time></trkpt><trkpt lat="43.11502669748698" lon="12.191027913861605"><ele>374.0</ele><time>2026-05-02T11:38:08.999Z</time></trkpt><trkpt lat="43.115136631407864" lon="12.19100683162508"><ele>373.4</ele><time>2026-05-02T11:38:10.999Z</time></trkpt><trkpt lat="43.11524268873091" lon="12.190979719309802"><ele>372.79999999999995</ele><time>2026-05-02T11:38:12.999Z</time></trkpt><trkpt lat="43.115343158756374" lon="12.190978785568445"><ele>372.20000000000005</ele><time>2026-05-02T11:38:14.999Z</time></trkpt><trkpt lat="43.11543050612426" lon="12.19097230660434"><ele>371.6</ele><time>2026-05-02T11:38:16.999Z</time></trkpt><trkpt lat="43.11552393986686" lon="12.190923752105398"><ele>371.0</ele><time>2026-05-02T11:38:18.999Z</time></trkpt><trkpt lat="43.11562113666177" lon="12.190868500428266"><ele>371.0</ele><time>2026-05-02T11:38:20.999Z</time></trkpt><trkpt lat="43.11573275172902" lon="12.190802656538063"><ele>371.0</ele><time>2026-05-02T11:38:22.999Z</time></trkpt><trkpt lat="43.11584714353503" lon="12.190776143625975"><ele>371.0</ele><time>2026-05-02T11:38:24.999Z</time></trkpt><trkpt lat="43.11595119602615" lon="12.190747490373427"><ele>371.0</ele><time>2026-05-02T11:38:26.999Z</time></trkpt><trkpt lat="43.116054099958575" lon="12.190742763344186"><ele>371.0</ele><time>2026-05-02T11:38:28.999Z</time></trkpt><trkpt lat="43.11615116390217" lon="12.190728418365781"><ele>369.6</ele><time>2026-05-02T11:38:30.999Z</time></trkpt><trkpt lat="43.1162429260589" lon="12.19066794874364"><ele>368.20000000000005</ele><time>2026-05-02T11:38:32.999Z</time></trkpt><trkpt lat="43.116343944350156" lon="12.190597928314412"><ele>366.79999999999995</ele><time>2026-05-02T11:38:34.999Z</time></trkpt><trkpt lat="43.116416140227535" lon="12.190521372892016"><ele>365.4</ele><time>2026-05-02T11:38:36.999Z</time></trkpt><trkpt lat="43.11649902394516" lon="12.190490826977674"><ele>364.0</ele><time>2026-05-02T11:38:38.999Z</time></trkpt><trkpt lat="43.11657303961953" lon="12.190444251253423"><ele>364.0</ele><time>2026-05-02T11:38:40.999Z</time></trkpt><trkpt lat="43.11662704516657" lon="12.190379313698239"><ele>364.0</ele><time>2026-05-02T11:38:42.999Z</time></trkpt><trkpt lat="43.11668893555273" lon="12.190307025063465"><ele>364.0</ele><time>2026-05-02T11:38:44.999Z</time></trkpt><trkpt lat="43.11673426433481" lon="12.190233318146204"><ele>364.0</ele><time>2026-05-02T11:38:46.999Z</time></trkpt><trkpt lat="43.11677972826619" lon="12.190172514416885"><ele>364.0</ele><time>2026-05-02T11:38:48.999Z</time></trkpt><trkpt lat="43.11683084428401" lon="12.190104542187296"><ele>364.0</ele><time>2026-05-02T11:38:50.999Z</time></trkpt><trkpt lat="43.116864245019904" lon="12.190023639129098"><ele>364.0</ele><time>2026-05-02T11:38:52.999Z</time></trkpt><trkpt lat="43.116879411380566" lon="12.189905782259402"><ele>363.5</ele><time>2026-05-02T11:39:21Z</time></trkpt><trkpt lat="43.11687108038493" lon="12.189791332929367"><ele>363.0</ele><time>2026-05-02T11:39:23Z</time></trkpt><trkpt lat="43.1169016991437" lon="12.189679387152829"><ele>362.5</ele><time>2026-05-02T11:39:25Z</time></trkpt><trkpt lat="43.116962849530275" lon="12.189554905953472"><ele>362.0</ele><time>2026-05-02T11:39:27Z</time></trkpt><trkpt lat="43.11698034891023" lon="12.189455557135457"><ele>361.5</ele><time>2026-05-02T11:39:30Z</time></trkpt><trkpt lat="43.117018350514385" lon="12.189371803215908"><ele>361.0</ele><time>2026-05-02T11:39:33Z</time></trkpt><trkpt lat="43.11708544388199" lon="12.189369367148835"><ele>361.0</ele><time>2026-05-02T11:39:36Z</time></trkpt><trkpt lat="43.11716173392884" lon="12.189340978246863"><ele>361.0</ele><time>2026-05-02T11:40:18.999Z</time></trkpt><trkpt lat="43.11720958923834" lon="12.189254467495058"><ele>361.0</ele><time>2026-05-02T11:40:27.999Z</time></trkpt><trkpt lat="43.11726376844066" lon="12.18919329860174"><ele>361.0</ele><time>2026-05-02T11:40:33.999Z</time></trkpt><trkpt lat="43.117344314894105" lon="12.189164640372152"><ele>361.0</ele><time>2026-05-02T11:40:35.999Z</time></trkpt><trkpt lat="43.11742558789864" lon="12.189123058029391"><ele>361.0</ele><time>2026-05-02T11:40:38.999Z</time></trkpt><trkpt lat="43.11747593372537" lon="12.189066263039392"><ele>363.8333333333333</ele><time>2026-05-02T11:40:40.999Z</time></trkpt><trkpt lat="43.11757747159691" lon="12.189051971634775"><ele>366.66666666666663</ele><time>2026-05-02T11:40:43.999Z</time></trkpt><trkpt lat="43.117654125403895" lon="12.189067303911745"><ele>369.5</ele><time>2026-05-02T11:40:45.999Z</time></trkpt><trkpt lat="43.11773901638411" lon="12.189068594714474"><ele>372.3333333333333</ele><time>2026-05-02T11:40:48.999Z</time></trkpt><trkpt lat="43.117819483218824" lon="12.189078782246977"><ele>375.1666666666667</ele><time>2026-05-02T11:40:52.999Z</time></trkpt><trkpt lat="43.117895606209714" lon="12.189079273740582"><ele>378.0</ele><time>2026-05-02T11:41:07.999Z</time></trkpt><trkpt lat="43.11795880508751" lon="12.189059287733196"><ele>378.0</ele><time>2026-05-02T11:41:09.999Z</time></trkpt><trkpt lat="43.11804324182383" lon="12.189018241818127"><ele>378.0</ele><time>2026-05-02T11:41:12.999Z</time></trkpt><trkpt lat="43.1181109776559" lon="12.189007813512813"><ele>378.0</ele><time>2026-05-02T11:41:15.999Z</time></trkpt><trkpt lat="43.11820829880937" lon="12.189012314275073"><ele>378.0</ele><time>2026-05-02T11:41:18.999Z</time></trkpt><trkpt lat="43.118271368484116" lon="12.188972046054602"><ele>378.0</ele><time>2026-05-02T11:41:20.999Z</time></trkpt><trkpt lat="43.11835709798356" lon="12.188926020914657"><ele>378.0</ele><time>2026-05-02T11:41:23.999Z</time></trkpt><trkpt lat="43.118423868544724" lon="12.188895828843277"><ele>377.0</ele><time>2026-05-02T11:41:25.999Z</time></trkpt><trkpt lat="43.118498409382" lon="12.188879452232003"><ele>376.0</ele><time>2026-05-02T11:41:27.999Z</time></trkpt><trkpt lat="43.11854364456983" lon="12.188805566873814"><ele>375.0</ele><time>2026-05-02T11:41:29.999Z</time></trkpt><trkpt lat="43.118612051003566" lon="12.188730964588425"><ele>374.0</ele><time>2026-05-02T11:41:31.999Z</time></trkpt><trkpt lat="43.118696163398745" lon="12.188657247107034"><ele>373.0</ele><time>2026-05-02T11:41:33.999Z</time></trkpt><trkpt lat="43.1187464040523" lon="12.18859984008636"><ele>372.0</ele><time>2026-05-02T11:41:44.999Z</time></trkpt><trkpt lat="43.118795626823385" lon="12.188542615419756"><ele>372.00000000000006</ele><time>2026-05-02T11:41:46.999Z</time></trkpt><trkpt lat="43.118837084828144" lon="12.188472587753466"><ele>372.0</ele><time>2026-05-02T11:41:48.999Z</time></trkpt><trkpt lat="43.11889412361014" lon="12.188394832101425"><ele>372.0</ele><time>2026-05-02T11:41:50.999Z</time></trkpt><trkpt lat="43.1189532694024" lon="12.188334732605211"><ele>372.0</ele><time>2026-05-02T11:41:52.999Z</time></trkpt><trkpt lat="43.11897371914235" lon="12.188250883121647"><ele>372.0</ele><time>2026-05-02T11:41:54.999Z</time></trkpt><trkpt lat="43.11901312631643" lon="12.188157882462821"><ele>372.00000000000006</ele><time>2026-05-02T11:41:56.999Z</time></trkpt><trkpt lat="43.119049398046705" lon="12.188086385834392"><ele>372.0</ele><time>2026-05-02T11:41:58.999Z</time></trkpt><trkpt lat="43.11912739415415" lon="12.188019641396586"><ele>373.20000000000005</ele><time>2026-05-02T11:42:01.999Z</time></trkpt><trkpt lat="43.119187759957285" lon="12.187987698242612"><ele>374.4</ele><time>2026-05-02T11:42:03.999Z</time></trkpt><trkpt lat="43.11925791028316" lon="12.187937387783853"><ele>375.6</ele><time>2026-05-02T11:42:06.999Z</time></trkpt><trkpt lat="43.11935173291888" lon="12.187850626233983"><ele>376.79999999999995</ele><time>2026-05-02T11:42:17.999Z</time></trkpt><trkpt lat="43.11942954501877" lon="12.18775157033086"><ele>378.0</ele><time>2026-05-02T11:42:19.999Z</time></trkpt><trkpt lat="43.119519337211635" lon="12.187722354200735"><ele>378.0</ele><time>2026-05-02T11:42:21.999Z</time></trkpt><trkpt lat="43.11960627394742" lon="12.187708899826871"><ele>378.0</ele><time>2026-05-02T11:42:23.999Z</time></trkpt><trkpt lat="43.119690108278746" lon="12.187640966773143"><ele>378.0</ele><time>2026-05-02T11:42:26.999Z</time></trkpt><trkpt lat="43.11975515508227" lon="12.18760296716378"><ele>378.0</ele><time>2026-05-02T11:42:29.999Z</time></trkpt><trkpt lat="43.1197957539116" lon="12.187526572927867"><ele>378.0</ele><time>2026-05-02T11:42:48.999Z</time></trkpt><trkpt lat="43.119860430830606" lon="12.187497560562033"><ele>378.0</ele><time>2026-05-02T11:42:53.999Z</time></trkpt><trkpt lat="43.11992147841694" lon="12.187449828990584"><ele>380.59999999999997</ele><time>2026-05-02T11:42:56.999Z</time></trkpt><trkpt lat="43.120000838501824" lon="12.187368974603373"><ele>383.2</ele><time>2026-05-02T11:42:59.999Z</time></trkpt><trkpt lat="43.12004118404357" lon="12.187293814691484"><ele>385.8</ele><time>2026-05-02T11:43:01.999Z</time></trkpt><trkpt lat="43.120126187962754" lon="12.187205672949341"><ele>388.4</ele><time>2026-05-02T11:43:03.999Z</time></trkpt><trkpt lat="43.12025915912576" lon="12.187151148645416"><ele>391.0</ele><time>2026-05-02T11:43:05.999Z</time></trkpt><trkpt lat="43.120333291393365" lon="12.187123578312322"><ele>391.50000000000006</ele><time>2026-05-02T11:43:06.999Z</time></trkpt><trkpt lat="43.120391934287184" lon="12.187080284442686"><ele>392.0</ele><time>2026-05-02T11:43:07.999Z</time></trkpt><trkpt lat="43.12046754167939" lon="12.18702118870042"><ele>392.5</ele><time>2026-05-02T11:43:08.999Z</time></trkpt><trkpt lat="43.12056704220638" lon="12.186945161563202"><ele>393.0</ele><time>2026-05-02T11:43:10.999Z</time></trkpt><trkpt lat="43.12063222645721" lon="12.18686596572098"><ele>393.50000000000006</ele><time>2026-05-02T11:43:12.999Z</time></trkpt><trkpt lat="43.12069959935486" lon="12.186789250250827"><ele>394.0</ele><time>2026-05-02T11:43:15.999Z</time></trkpt><trkpt lat="43.12074499672549" lon="12.186715159505926"><ele>394.33333333333337</ele><time>2026-05-02T11:43:18.999Z</time></trkpt><trkpt lat="43.120800841591354" lon="12.186634287640356"><ele>394.6666666666667</ele><time>2026-05-02T11:43:58.999Z</time></trkpt><trkpt lat="43.12084274900281" lon="12.186569754309467"><ele>395.0</ele><time>2026-05-02T11:43:59.999Z</time></trkpt><trkpt lat="43.120886919859636" lon="12.186498448298162"><ele>395.33333333333337</ele><time>2026-05-02T11:44:00.999Z</time></trkpt><trkpt lat="43.12095730102134" lon="12.18641192987858"><ele>395.6666666666667</ele><time>2026-05-02T11:44:02.999Z</time></trkpt><trkpt lat="43.12101705955405" lon="12.186341035248672"><ele>396.0</ele><time>2026-05-02T11:44:04.999Z</time></trkpt><trkpt lat="43.12103585804658" lon="12.186258079182512"><ele>396.8333333333333</ele><time>2026-05-02T11:44:06.999Z</time></trkpt><trkpt lat="43.121040824521415" lon="12.186169314077263"><ele>397.66666666666663</ele><time>2026-05-02T11:44:09.999Z</time></trkpt><trkpt lat="43.12107895954501" lon="12.186020601317011"><ele>398.5</ele><time>2026-05-02T11:44:11.999Z</time></trkpt><trkpt lat="43.121077869381885" lon="12.185907065904159"><ele>399.3333333333333</ele><time>2026-05-02T11:44:12.999Z</time></trkpt><trkpt lat="43.12110555242718" lon="12.185824755962543"><ele>400.16666666666663</ele><time>2026-05-02T11:44:13.999Z</time></trkpt><trkpt lat="43.12117096344779" lon="12.1857505945056"><ele>401.0</ele><time>2026-05-02T11:44:14.999Z</time></trkpt><trkpt lat="43.12123884532876" lon="12.185686481483392"><ele>401.0</ele><time>2026-05-02T11:44:15.999Z</time></trkpt><trkpt lat="43.12134339756277" lon="12.185595553797693"><ele>401.0</ele><time>2026-05-02T11:44:17.999Z</time></trkpt><trkpt lat="43.121429568897284" lon="12.185524767330799"><ele>401.0</ele><time>2026-05-02T11:44:19.999Z</time></trkpt><trkpt lat="43.12148571519772" lon="12.185450366544458"><ele>401.0</ele><time>2026-05-02T11:44:21.999Z</time></trkpt><trkpt lat="43.12153512236063" lon="12.185391545780258"><ele>401.0</ele><time>2026-05-02T11:44:23.999Z</time></trkpt><trkpt lat="43.12160339117461" lon="12.185325088415857"><ele>401.8</ele><time>2026-05-02T11:44:26.999Z</time></trkpt><trkpt lat="43.12168092319968" lon="12.185265762300272"><ele>402.6</ele><time>2026-05-02T11:44:29.999Z</time></trkpt><trkpt lat="43.12177007832411" lon="12.185179950682649"><ele>403.4</ele><time>2026-05-02T11:44:32.999Z</time></trkpt><trkpt lat="43.121857680157945" lon="12.185091760083964"><ele>404.2</ele><time>2026-05-02T11:44:34.999Z</time></trkpt><trkpt lat="43.1219375214091" lon="12.184976438569416"><ele>405.0</ele><time>2026-05-02T11:44:36.999Z</time></trkpt><trkpt lat="43.12197906895655" lon="12.184826721682066"><ele>405.0</ele><time>2026-05-02T11:44:38.999Z</time></trkpt><trkpt lat="43.12199917671293" lon="12.184732615851079"><ele>405.0</ele><time>2026-05-02T11:44:39.999Z</time></trkpt><trkpt lat="43.12201980096721" lon="12.184636431595035"><ele>405.0</ele><time>2026-05-02T11:44:40.999Z</time></trkpt><trkpt lat="43.12205518350158" lon="12.184495670108355"><ele>405.0</ele><time>2026-05-02T11:44:42.999Z</time></trkpt><trkpt lat="43.12211633699544" lon="12.184348159113602"><ele>405.0</ele><time>2026-05-02T11:44:44.999Z</time></trkpt><trkpt lat="43.122165990786286" lon="12.184264650018156"><ele>405.0</ele><time>2026-05-02T11:44:45.999Z</time></trkpt><trkpt lat="43.12221517439372" lon="12.184182671765596"><ele>405.0</ele><time>2026-05-02T11:44:46.999Z</time></trkpt><trkpt lat="43.122270425907594" lon="12.184114727706996"><ele>405.0</ele><time>2026-05-02T11:44:47.999Z</time></trkpt><trkpt lat="43.12233597832935" lon="12.184041036536499"><ele>405.0</ele><time>2026-05-02T11:44:48.999Z</time></trkpt><trkpt lat="43.12239731023297" lon="12.183981574650023"><ele>405.0</ele><time>2026-05-02T11:44:49.999Z</time></trkpt><trkpt lat="43.1224634774875" lon="12.183930819736954"><ele>405.0</ele><time>2026-05-02T11:44:50.999Z</time></trkpt><trkpt lat="43.122534118268725" lon="12.183902271756148"><ele>402.4</ele><time>2026-05-02T11:44:51.999Z</time></trkpt><trkpt lat="43.12261400296417" lon="12.183886662053887"><ele>399.8</ele><time>2026-05-02T11:44:52.999Z</time></trkpt><trkpt lat="43.12270754106895" lon="12.18387147564168"><ele>397.20000000000005</ele><time>2026-05-02T11:44:53.999Z</time></trkpt><trkpt lat="43.12282630409797" lon="12.183846511646598"><ele>394.6</ele><time>2026-05-02T11:44:54.999Z</time></trkpt><trkpt lat="43.12294972194623" lon="12.1838104231702"><ele>392.0</ele><time>2026-05-02T11:44:55.999Z</time></trkpt><trkpt lat="43.12303324414319" lon="12.183796314750849"><ele>392.0</ele><time>2026-05-02T11:44:56.999Z</time></trkpt><trkpt lat="43.12314717000219" lon="12.183717371154723"><ele>392.0</ele><time>2026-05-02T11:44:58.999Z</time></trkpt><trkpt lat="43.12322623235888" lon="12.183676227059781"><ele>392.0</ele><time>2026-05-02T11:44:59.999Z</time></trkpt><trkpt lat="43.123312598894266" lon="12.183669020489669"><ele>392.0</ele><time>2026-05-02T11:45:00.999Z</time></trkpt><trkpt lat="43.12338281892391" lon="12.183600848175248"><ele>392.0</ele><time>2026-05-02T11:45:02.999Z</time></trkpt><trkpt lat="43.123377864728305" lon="12.183440120780883"><ele>392.66666666666663</ele><time>2026-05-02T11:45:04.999Z</time></trkpt><trkpt lat="43.12343260377752" lon="12.183380692044853"><ele>393.3333333333333</ele><time>2026-05-02T11:45:05.999Z</time></trkpt><trkpt lat="43.123493812567425" lon="12.183310952646607"><ele>394.0</ele><time>2026-05-02T11:45:06.999Z</time></trkpt><trkpt lat="43.12354524362993" lon="12.183193095048681"><ele>394.66666666666663</ele><time>2026-05-02T11:45:07.999Z</time></trkpt><trkpt lat="43.12360236851393" lon="12.183071235884755"><ele>395.3333333333333</ele><time>2026-05-02T11:45:09.999Z</time></trkpt><trkpt lat="43.12366047682669" lon="12.18302770659406"><ele>396.0</ele><time>2026-05-02T11:45:10.999Z</time></trkpt><trkpt lat="43.12374407199954" lon="12.183013729203738"><ele>394.4</ele><time>2026-05-02T11:45:11.999Z</time></trkpt><trkpt lat="43.12385446515551" lon="12.183012472869517"><ele>392.8</ele><time>2026-05-02T11:45:12.999Z</time></trkpt><trkpt lat="43.12394017570748" lon="12.183043150333837"><ele>391.2</ele><time>2026-05-02T11:45:13.999Z</time></trkpt><trkpt lat="43.12399831093923" lon="12.183079835030089"><ele>389.59999999999997</ele><time>2026-05-02T11:45:14.999Z</time></trkpt><trkpt lat="43.12405406410194" lon="12.183015422050321"><ele>388.0</ele><time>2026-05-02T11:45:52Z</time></trkpt><trkpt lat="43.12414416365762" lon="12.182918871975131"><ele>388.00000000000006</ele><time>2026-05-02T11:45:54Z</time></trkpt><trkpt lat="43.12426322705686" lon="12.182854470112462"><ele>388.0</ele><time>2026-05-02T11:45:56Z</time></trkpt><trkpt lat="43.12435026038629" lon="12.182826735456901"><ele>388.0</ele><time>2026-05-02T11:45:57Z</time></trkpt><trkpt lat="43.12443817611146" lon="12.182800776607502"><ele>388.0</ele><time>2026-05-02T11:45:58Z</time></trkpt><trkpt lat="43.12450742516363" lon="12.18276630958096"><ele>388.00000000000006</ele><time>2026-05-02T11:45:59Z</time></trkpt><trkpt lat="43.124566586418794" lon="12.182718985604724"><ele>388.0</ele><time>2026-05-02T11:46:00Z</time></trkpt><trkpt lat="43.12462370308668" lon="12.182668607401345"><ele>388.0</ele><time>2026-05-02T11:46:01Z</time></trkpt><trkpt lat="43.12470431768401" lon="12.182532146368812"><ele>388.0</ele><time>2026-05-02T11:46:02.999Z</time></trkpt><trkpt lat="43.12474142024607" lon="12.182444180439317"><ele>388.0</ele><time>2026-05-02T11:46:03.999Z</time></trkpt><trkpt lat="43.124771238363884" lon="12.182364408053049"><ele>388.0</ele><time>2026-05-02T11:46:04.999Z</time></trkpt><trkpt lat="43.12476981560735" lon="12.182188139503138"><ele>388.0</ele><time>2026-05-02T11:46:06.999Z</time></trkpt><trkpt lat="43.12475608678782" lon="12.182072735974703"><ele>387.2</ele><time>2026-05-02T11:46:07.999Z</time></trkpt><trkpt lat="43.124747379515235" lon="12.181963550612197"><ele>386.4</ele><time>2026-05-02T11:46:08.999Z</time></trkpt><trkpt lat="43.12474455069576" lon="12.181848289210816"><ele>385.59999999999997</ele><time>2026-05-02T11:46:09.999Z</time></trkpt><trkpt lat="43.12473480727772" lon="12.181743078230914"><ele>384.79999999999995</ele><time>2026-05-02T11:46:10.999Z</time></trkpt><trkpt lat="43.12472375960895" lon="12.181598816983488"><ele>384.0</ele><time>2026-05-02T11:46:11.999Z</time></trkpt><trkpt lat="43.124732353619535" lon="12.181426705476468"><ele>384.0</ele><time>2026-05-02T11:46:12.999Z</time></trkpt><trkpt lat="43.12471487915904" lon="12.18127337970839"><ele>384.0</ele><time>2026-05-02T11:46:13.999Z</time></trkpt><trkpt lat="43.12469453908763" lon="12.181146137721138"><ele>384.0</ele><time>2026-05-02T11:46:14.999Z</time></trkpt><trkpt lat="43.124677248102756" lon="12.18104932545571"><ele>384.0</ele><time>2026-05-02T11:46:15.999Z</time></trkpt><trkpt lat="43.12464536033484" lon="12.18096613735971"><ele>384.0</ele><time>2026-05-02T11:46:16.999Z</time></trkpt><trkpt lat="43.124627420674436" lon="12.18080998538387"><ele>384.0</ele><time>2026-05-02T11:46:18.999Z</time></trkpt><trkpt lat="43.124655975022975" lon="12.180672626825041"><ele>384.0</ele><time>2026-05-02T11:46:20.999Z</time></trkpt><trkpt lat="43.12465379671801" lon="12.180545237772225"><ele>384.0</ele><time>2026-05-02T11:46:22.999Z</time></trkpt><trkpt lat="43.124669784705794" lon="12.180434971513941"><ele>384.0</ele><time>2026-05-02T11:46:24.999Z</time></trkpt><trkpt lat="43.12468247867316" lon="12.18032259610869"><ele>384.0</ele><time>2026-05-02T11:46:26.999Z</time></trkpt><trkpt lat="43.12471108486779" lon="12.180213556578725"><ele>384.0</ele><time>2026-05-02T11:46:28.999Z</time></trkpt><trkpt lat="43.12472015485206" lon="12.180106638423661"><ele>384.0</ele><time>2026-05-02T11:46:30.999Z</time></trkpt><trkpt lat="43.124728577379585" lon="12.179985072167675"><ele>384.0</ele><time>2026-05-02T11:46:32.999Z</time></trkpt><trkpt lat="43.124736400134246" lon="12.179854426905068"><ele>384.0</ele><time>2026-05-02T11:46:34.999Z</time></trkpt><trkpt lat="43.124744744691576" lon="12.179715067173616"><ele>384.0</ele><time>2026-05-02T11:46:36.999Z</time></trkpt><trkpt lat="43.124753394914954" lon="12.179570602606518"><ele>384.0</ele><time>2026-05-02T11:46:38.999Z</time></trkpt><trkpt lat="43.12475311412747" lon="12.179415221467158"><ele>383.0</ele><time>2026-05-02T11:46:40.999Z</time></trkpt><trkpt lat="43.12476988459539" lon="12.179264258612859"><ele>382.0</ele><time>2026-05-02T11:46:42.999Z</time></trkpt><trkpt lat="43.12479611585159" lon="12.1791320167203"><ele>381.0</ele><time>2026-05-02T11:46:44.999Z</time></trkpt><trkpt lat="43.124805174442784" lon="12.179017128396168"><ele>380.0</ele><time>2026-05-02T11:46:46.999Z</time></trkpt><trkpt lat="43.124827234647" lon="12.178924799795293"><ele>379.0</ele><time>2026-05-02T11:46:48.999Z</time></trkpt><trkpt lat="43.124843655534384" lon="12.178808359499412"><ele>379.0</ele><time>2026-05-02T11:46:51.999Z</time></trkpt><trkpt lat="43.124832841921645" lon="12.17868599484726"><ele>379.0</ele><time>2026-05-02T11:47:04.999Z</time></trkpt><trkpt lat="43.12469935501261" lon="12.178630685264606"><ele>379.0</ele><time>2026-05-02T11:47:05.999Z</time></trkpt><trkpt lat="43.124617362715746" lon="12.178608261368838"><ele>379.0</ele><time>2026-05-02T11:47:06.999Z</time></trkpt><trkpt lat="43.124548813452215" lon="12.178590865709632"><ele>379.0</ele><time>2026-05-02T11:47:07.999Z</time></trkpt><trkpt lat="43.124477794130215" lon="12.178573265266929"><ele>379.0</ele><time>2026-05-02T11:47:08.999Z</time></trkpt><trkpt lat="43.12439622420743" lon="12.178552698977077"><ele>379.0</ele><time>2026-05-02T11:47:09.999Z</time></trkpt><trkpt lat="43.12430431170428" lon="12.178527581534846"><ele>379.0</ele><time>2026-05-02T11:47:10.999Z</time></trkpt><trkpt lat="43.12422135186331" lon="12.178504910637384"><ele>379.0</ele><time>2026-05-02T11:47:11.999Z</time></trkpt><trkpt lat="43.12414306035883" lon="12.178483457965458"><ele>379.0</ele><time>2026-05-02T11:47:12.999Z</time></trkpt><trkpt lat="43.1240615001258" lon="12.17845879395774"><ele>379.0</ele><time>2026-05-02T11:47:13.999Z</time></trkpt><trkpt lat="43.123983354030315" lon="12.178435162393503"><ele>376.6</ele><time>2026-05-02T11:47:14.999Z</time></trkpt><trkpt lat="43.12390676335556" lon="12.178412001192216"><ele>374.2</ele><time>2026-05-02T11:47:15.999Z</time></trkpt><trkpt lat="43.12381491976618" lon="12.178384227473757"><ele>371.8</ele><time>2026-05-02T11:47:16.999Z</time></trkpt><trkpt lat="43.123714334412966" lon="12.178373058772403"><ele>369.40000000000003</ele><time>2026-05-02T11:47:17.999Z</time></trkpt><trkpt lat="43.12361739903025" lon="12.17833801252387"><ele>367.0</ele><time>2026-05-02T11:47:18.999Z</time></trkpt><trkpt lat="43.12351395471811" lon="12.178313015545454"><ele>367.0</ele><time>2026-05-02T11:47:19.999Z</time></trkpt><trkpt lat="43.12342301151869" lon="12.178263031110466"><ele>367.0</ele><time>2026-05-02T11:47:20.999Z</time></trkpt><trkpt lat="43.12333515590198" lon="12.17823439283827"><ele>367.0</ele><time>2026-05-02T11:47:21.999Z</time></trkpt><trkpt lat="43.12324927649447" lon="12.178223182590504"><ele>367.0</ele><time>2026-05-02T11:47:22.999Z</time></trkpt><trkpt lat="43.12316451038237" lon="12.178187370234614"><ele>367.0</ele><time>2026-05-02T11:47:23.999Z</time></trkpt><trkpt lat="43.1230475275433" lon="12.17814262218006"><ele>369.0</ele><time>2026-05-02T11:47:24.999Z</time></trkpt><trkpt lat="43.12292765661686" lon="12.178042082869739"><ele>371.0</ele><time>2026-05-02T11:47:25.999Z</time></trkpt><trkpt lat="43.122781936459745" lon="12.17794458839034"><ele>373.0</ele><time>2026-05-02T11:47:26.999Z</time></trkpt><trkpt lat="43.122605716236116" lon="12.17783616824455"><ele>373.0</ele><time>2026-05-02T11:47:27.999Z</time></trkpt><trkpt lat="43.12249709397668" lon="12.177738558552067"><ele>373.0</ele><time>2026-05-02T11:47:28.999Z</time></trkpt><trkpt lat="43.12233212770788" lon="12.177617066539094"><ele>373.0</ele><time>2026-05-02T11:47:29.999Z</time></trkpt><trkpt lat="43.12211995510212" lon="12.177490188228337"><ele>373.66666666666663</ele><time>2026-05-02T11:47:30.999Z</time></trkpt><trkpt lat="43.12194633959752" lon="12.177359673677701"><ele>374.3333333333333</ele><time>2026-05-02T11:47:31.999Z</time></trkpt><trkpt lat="43.12177053332338" lon="12.177229385937242"><ele>375.0</ele><time>2026-05-02T11:47:32.999Z</time></trkpt><trkpt lat="43.12162416833707" lon="12.17709699983939"><ele>368.3333333333333</ele><time>2026-05-02T11:47:33.999Z</time></trkpt><trkpt lat="43.121427226933555" lon="12.176974612389357"><ele>361.66666666666663</ele><time>2026-05-02T11:47:34.999Z</time></trkpt><trkpt lat="43.121249545517024" lon="12.176845498780626"><ele>355.0</ele><time>2026-05-02T11:47:35.999Z</time></trkpt><trkpt lat="43.12110068571068" lon="12.17671787432434"><ele>355.0</ele><time>2026-05-02T11:47:36.999Z</time></trkpt><trkpt lat="43.12095232083563" lon="12.176612232481116"><ele>355.0</ele><time>2026-05-02T11:47:37.999Z</time></trkpt><trkpt lat="43.12079161357987" lon="12.176507672017218"><ele>355.0</ele><time>2026-05-02T11:47:38.999Z</time></trkpt><trkpt lat="43.1206084972343" lon="12.176402135737467"><ele>354.0</ele><time>2026-05-02T11:47:39.999Z</time></trkpt><trkpt lat="43.12043780430846" lon="12.17635001936769"><ele>353.0</ele><time>2026-05-02T11:47:40.999Z</time></trkpt><trkpt lat="43.120277893007334" lon="12.17626000029739"><ele>352.0</ele><time>2026-05-02T11:47:41.999Z</time></trkpt><trkpt lat="43.12008760720319" lon="12.176178559699967"><ele>352.0</ele><time>2026-05-02T11:47:43Z</time></trkpt><trkpt lat="43.119915129670034" lon="12.176096951612196"><ele>352.0</ele><time>2026-05-02T11:47:44Z</time></trkpt><trkpt lat="43.11974609890502" lon="12.176012897178841"><ele>352.0</ele><time>2026-05-02T11:47:45Z</time></trkpt><trkpt lat="43.11955149493957" lon="12.175912964726388"><ele>347.0</ele><time>2026-05-02T11:47:46Z</time></trkpt><trkpt lat="43.11938880570339" lon="12.175825593308009"><ele>342.0</ele><time>2026-05-02T11:47:47Z</time></trkpt><trkpt lat="43.1192374014768" lon="12.175740228061022"><ele>337.0</ele><time>2026-05-02T11:47:48Z</time></trkpt><trkpt lat="43.1190971825493" lon="12.17565154498827"><ele>333.75</ele><time>2026-05-02T11:47:49Z</time></trkpt><trkpt lat="43.11896858812606" lon="12.175552498060684"><ele>330.5</ele><time>2026-05-02T11:47:50Z</time></trkpt><trkpt lat="43.1188425921022" lon="12.175442077384979"><ele>327.25</ele><time>2026-05-02T11:47:51Z</time></trkpt><trkpt lat="43.118714626181145" lon="12.175329415737854"><ele>324.0</ele><time>2026-05-02T11:47:52Z</time></trkpt><trkpt lat="43.11859511574627" lon="12.175224198325978"><ele>324.0</ele><time>2026-05-02T11:47:53Z</time></trkpt><trkpt lat="43.1184887558987" lon="12.175130558751716"><ele>324.0</ele><time>2026-05-02T11:47:54Z</time></trkpt><trkpt lat="43.11840182787038" lon="12.175054027005636"><ele>324.0</ele><time>2026-05-02T11:47:55Z</time></trkpt><trkpt lat="43.11832169096901" lon="12.174984319800876"><ele>324.0</ele><time>2026-05-02T11:47:56Z</time></trkpt><trkpt lat="43.118260021702284" lon="12.174934237825926"><ele>324.0</ele><time>2026-05-02T11:47:57Z</time></trkpt><trkpt lat="43.11819749771768" lon="12.174851037176012"><ele>322.3333333333333</ele><time>2026-05-02T11:47:59Z</time></trkpt><trkpt lat="43.118148262658174" lon="12.174760307724627"><ele>320.6666666666667</ele><time>2026-05-02T11:48:07Z</time></trkpt><trkpt lat="43.11809952158425" lon="12.174671802884067"><ele>319.0</ele><time>2026-05-02T11:48:09Z</time></trkpt><trkpt lat="43.118020201678206" lon="12.174629626581101"><ele>317.33333333333337</ele><time>2026-05-02T11:48:11Z</time></trkpt><trkpt lat="43.11793793627121" lon="12.174631525825529"><ele>315.6666666666667</ele><time>2026-05-02T11:48:13Z</time></trkpt><trkpt lat="43.11786860176891" lon="12.174661367706447"><ele>314.0</ele><time>2026-05-02T11:48:15.999Z</time></trkpt><trkpt lat="43.1180177745478" lon="12.17487940734457"><ele>314.0</ele><time>2026-05-02T11:48:25.999Z</time></trkpt><trkpt lat="43.11814314870265" lon="12.17493757253821"><ele>314.0</ele><time>2026-05-02T11:48:28.999Z</time></trkpt><trkpt lat="43.11820747508513" lon="12.17498240539547"><ele>314.0</ele><time>2026-05-02T11:48:29.999Z</time></trkpt><trkpt lat="43.1182880893873" lon="12.175008203937702"><ele>314.0</ele><time>2026-05-02T11:48:30.999Z</time></trkpt><trkpt lat="43.118382201131624" lon="12.175045579509954"><ele>314.0</ele><time>2026-05-02T11:48:31.999Z</time></trkpt><trkpt lat="43.11849234896697" lon="12.175134656232126"><ele>316.0</ele><time>2026-05-02T11:48:32.999Z</time></trkpt><trkpt lat="43.11860808533376" lon="12.175261232467195"><ele>318.0</ele><time>2026-05-02T11:48:33.999Z</time></trkpt><trkpt lat="43.118705357087464" lon="12.175356361435323"><ele>320.0</ele><time>2026-05-02T11:48:34.999Z</time></trkpt><trkpt lat="43.118783336563844" lon="12.175422539997943"><ele>322.0</ele><time>2026-05-02T11:48:35.999Z</time></trkpt><trkpt lat="43.11883478123013" lon="12.17547513543147"><ele>324.0</ele><time>2026-05-02T11:48:36.999Z</time></trkpt><trkpt lat="43.11871715346496" lon="12.175336808958935"><ele>324.0</ele><time>2026-05-02T11:48:44.999Z</time></trkpt><trkpt lat="43.118619598994826" lon="12.175271236310316"><ele>324.0</ele><time>2026-05-02T11:48:45.999Z</time></trkpt><trkpt lat="43.11854108358283" lon="12.175200769472557"><ele>324.0</ele><time>2026-05-02T11:48:46.999Z</time></trkpt><trkpt lat="43.118473288133806" lon="12.175129930033377"><ele>324.0</ele><time>2026-05-02T11:48:47.999Z</time></trkpt><trkpt lat="43.11841426803519" lon="12.175076886759767"><ele>324.0</ele><time>2026-05-02T11:48:48.999Z</time></trkpt><trkpt lat="43.11832925902341" lon="12.175010999047212"><ele>324.0</ele><time>2026-05-02T11:48:50.999Z</time></trkpt><trkpt lat="43.118250887533776" lon="12.17495840897989"><ele>324.0</ele><time>2026-05-02T11:48:52.999Z</time></trkpt><trkpt lat="43.11819561037258" lon="12.174871818630306"><ele>324.0</ele><time>2026-05-02T11:48:54.999Z</time></trkpt><trkpt lat="43.118160570520686" lon="12.174780918863334"><ele>324.0</ele><time>2026-05-02T11:48:56.999Z</time></trkpt><trkpt lat="43.11808656959213" lon="12.174691852189845"><ele>324.0</ele><time>2026-05-02T11:48:58.999Z</time></trkpt><trkpt lat="43.11801895539621" lon="12.174652754912293"><ele>324.0</ele><time>2026-05-02T11:48:59.999Z</time></trkpt><trkpt lat="43.117939729542584" lon="12.17464256967736"><ele>321.8333333333333</ele><time>2026-05-02T11:49:00.999Z</time></trkpt><trkpt lat="43.11784946330696" lon="12.174678616244794"><ele>319.6666666666667</ele><time>2026-05-02T11:49:01.999Z</time></trkpt><trkpt lat="43.117770526357376" lon="12.174725198601802"><ele>317.5</ele><time>2026-05-02T11:49:02.999Z</time></trkpt><trkpt lat="43.11769010812395" lon="12.174758964007193"><ele>315.33333333333337</ele><time>2026-05-02T11:49:03.999Z</time></trkpt><trkpt lat="43.11760223171756" lon="12.17475801172486"><ele>313.1666666666667</ele><time>2026-05-02T11:49:04.999Z</time></trkpt><trkpt lat="43.1175157697862" lon="12.174706605404946"><ele>311.0</ele><time>2026-05-02T11:49:05.999Z</time></trkpt><trkpt lat="43.11743347540752" lon="12.174629943437298"><ele>309.83333333333337</ele><time>2026-05-02T11:49:06.999Z</time></trkpt><trkpt lat="43.117355747253946" lon="12.174560234560817"><ele>308.6666666666667</ele><time>2026-05-02T11:49:07.999Z</time></trkpt><trkpt lat="43.11728759478733" lon="12.174502012194928"><ele>307.5</ele><time>2026-05-02T11:49:08.999Z</time></trkpt><trkpt lat="43.11722876145862" lon="12.174450375728545"><ele>306.3333333333333</ele><time>2026-05-02T11:49:09.999Z</time></trkpt><trkpt lat="43.117164169738636" lon="12.174400539772469"><ele>305.16666666666663</ele><time>2026-05-02T11:49:10.999Z</time></trkpt><trkpt lat="43.117115885562335" lon="12.17432397993651"><ele>304.0</ele><time>2026-05-02T11:49:11.999Z</time></trkpt><trkpt lat="43.1170429042862" lon="12.174256538336834"><ele>304.0</ele><time>2026-05-02T11:49:12.999Z</time></trkpt><trkpt lat="43.11698083386518" lon="12.174178026277229"><ele>304.0</ele><time>2026-05-02T11:49:13.999Z</time></trkpt><trkpt lat="43.116903102905596" lon="12.174135686747608"><ele>304.0</ele><time>2026-05-02T11:49:14.999Z</time></trkpt><trkpt lat="43.11682531899357" lon="12.17410655738993"><ele>304.0</ele><time>2026-05-02T11:49:15.999Z</time></trkpt><trkpt lat="43.11673862285355" lon="12.174080007024592"><ele>304.0</ele><time>2026-05-02T11:49:16.999Z</time></trkpt><trkpt lat="43.11665440419815" lon="12.174054299844089"><ele>304.0</ele><time>2026-05-02T11:49:17.999Z</time></trkpt><trkpt lat="43.1165739215894" lon="12.17402566466925"><ele>301.16666666666663</ele><time>2026-05-02T11:49:18.999Z</time></trkpt><trkpt lat="43.11648748108555" lon="12.174007131185258"><ele>298.3333333333333</ele><time>2026-05-02T11:49:19.999Z</time></trkpt><trkpt lat="43.11639943958431" lon="12.17399629005706"><ele>295.5</ele><time>2026-05-02T11:49:20.999Z</time></trkpt><trkpt lat="43.11631940112766" lon="12.173984291053001"><ele>292.6666666666667</ele><time>2026-05-02T11:49:21.999Z</time></trkpt><trkpt lat="43.11624597397266" lon="12.17396414583961"><ele>289.83333333333337</ele><time>2026-05-02T11:49:22.999Z</time></trkpt><trkpt lat="43.11616261259802" lon="12.173928527264046"><ele>287.0</ele><time>2026-05-02T11:49:24.999Z</time></trkpt><trkpt lat="43.11614585161721" lon="12.173812960516587"><ele>287.0</ele><time>2026-05-02T11:49:28.999Z</time></trkpt><trkpt lat="43.11618485094325" lon="12.173693224704415"><ele>287.0</ele><time>2026-05-02T11:49:45.999Z</time></trkpt><trkpt lat="43.116285524152794" lon="12.173597305056347"><ele>287.0</ele><time>2026-05-02T11:49:47.999Z</time></trkpt><trkpt lat="43.11634912920382" lon="12.173544337589506"><ele>287.0</ele><time>2026-05-02T11:49:49Z</time></trkpt><trkpt lat="43.11640777024597" lon="12.173498862800393"><ele>287.0</ele><time>2026-05-02T11:49:50Z</time></trkpt><trkpt lat="43.11646635309044" lon="12.17345501817369"><ele>287.0</ele><time>2026-05-02T11:49:51Z</time></trkpt><trkpt lat="43.11657515749719" lon="12.173375268181282"><ele>287.6</ele><time>2026-05-02T11:49:53Z</time></trkpt><trkpt lat="43.116683697591455" lon="12.173295739936458"><ele>288.2</ele><time>2026-05-02T11:49:55Z</time></trkpt><trkpt lat="43.116779389134216" lon="12.173206879796869"><ele>288.8</ele><time>2026-05-02T11:49:57Z</time></trkpt><trkpt lat="43.11684012633101" lon="12.173152574970915"><ele>289.4</ele><time>2026-05-02T11:49:59Z</time></trkpt><trkpt lat="43.11693169806237" lon="12.173106847026531"><ele>290.0</ele><time>2026-05-02T11:50:02Z</time></trkpt><trkpt lat="43.11699769909623" lon="12.173055410436543"><ele>286.75</ele><time>2026-05-02T11:50:04Z</time></trkpt><trkpt lat="43.11701859950511" lon="12.172832238274681"><ele>283.5</ele><time>2026-05-02T11:50:06Z</time></trkpt><trkpt lat="43.117111110841364" lon="12.172754355279945"><ele>280.25</ele><time>2026-05-02T11:50:08Z</time></trkpt><trkpt lat="43.11717633739122" lon="12.172666847099608"><ele>277.0</ele><time>2026-05-02T11:50:10Z</time></trkpt><trkpt lat="43.11723919643048" lon="12.172579809035003"><ele>277.0</ele><time>2026-05-02T11:50:12Z</time></trkpt><trkpt lat="43.11728546375132" lon="12.172494745600053"><ele>277.0</ele><time>2026-05-02T11:50:14Z</time></trkpt><trkpt lat="43.117299900908165" lon="12.172385888162395"><ele>277.0</ele><time>2026-05-02T11:50:18Z</time></trkpt><trkpt lat="43.11737552462796" lon="12.172251009087404"><ele>277.0</ele><time>2026-05-02T11:50:20Z</time></trkpt><trkpt lat="43.11741598052691" lon="12.17217026328403"><ele>277.0</ele><time>2026-05-02T11:50:21Z</time></trkpt><trkpt lat="43.11744532204003" lon="12.172059921639628"><ele>277.0</ele><time>2026-05-02T11:50:22Z</time></trkpt><trkpt lat="43.11745879620265" lon="12.171959758216587"><ele>276.3333333333333</ele><time>2026-05-02T11:50:23Z</time></trkpt><trkpt lat="43.11747861179505" lon="12.171845364038543"><ele>275.66666666666663</ele><time>2026-05-02T11:50:24Z</time></trkpt><trkpt lat="43.11751246064688" lon="12.171743974185338"><ele>275.0</ele><time>2026-05-02T11:50:25Z</time></trkpt><trkpt lat="43.11756328969301" lon="12.171666537048862"><ele>274.3333333333333</ele><time>2026-05-02T11:50:26Z</time></trkpt><trkpt lat="43.11759290770271" lon="12.171570874684795"><ele>273.6666666666667</ele><time>2026-05-02T11:50:27Z</time></trkpt><trkpt lat="43.117593051336414" lon="12.171464221909517"><ele>273.0</ele><time>2026-05-02T11:50:28Z</time></trkpt><trkpt lat="43.11758522747751" lon="12.171366788675465"><ele>272.0</ele><time>2026-05-02T11:50:29Z</time></trkpt><trkpt lat="43.117571263859524" lon="12.171275175979067"><ele>271.0</ele><time>2026-05-02T11:50:30Z</time></trkpt><trkpt lat="43.117529308128326" lon="12.171131973252914"><ele>270.0</ele><time>2026-05-02T11:50:32Z</time></trkpt><trkpt lat="43.1175325279426" lon="12.170991159734992"><ele>269.0</ele><time>2026-05-02T11:50:34Z</time></trkpt><trkpt lat="43.11755558173267" lon="12.17090952753198"><ele>268.0</ele><time>2026-05-02T11:50:35Z</time></trkpt><trkpt lat="43.11772416926125" lon="12.170841531648781"><ele>268.0</ele><time>2026-05-02T11:50:37Z</time></trkpt><trkpt lat="43.11774782416076" lon="12.170740495675176"><ele>268.0</ele><time>2026-05-02T11:50:39Z</time></trkpt><trkpt lat="43.11777839988239" lon="12.170594751890448"><ele>268.0</ele><time>2026-05-02T11:50:41Z</time></trkpt><trkpt lat="43.11779651325792" lon="12.170488210425868"><ele>268.0</ele><time>2026-05-02T11:50:43Z</time></trkpt><trkpt lat="43.117812159006185" lon="12.170378032527525"><ele>268.0</ele><time>2026-05-02T11:50:45Z</time></trkpt><trkpt lat="43.117826549644526" lon="12.170271235599254"><ele>268.0</ele><time>2026-05-02T11:50:46.999Z</time></trkpt><trkpt lat="43.11784227359965" lon="12.170143161165994"><ele>267.8</ele><time>2026-05-02T11:50:48.999Z</time></trkpt><trkpt lat="43.11785781512398" lon="12.17001069435041"><ele>267.6</ele><time>2026-05-02T11:50:50.999Z</time></trkpt><trkpt lat="43.117870075164845" lon="12.169906196981959"><ele>267.4</ele><time>2026-05-02T11:50:52.999Z</time></trkpt><trkpt lat="43.117880766608735" lon="12.169815069400869"><ele>267.2</ele><time>2026-05-02T11:50:59.999Z</time></trkpt><trkpt lat="43.11789843033252" lon="12.169664514257313"><ele>267.0</ele><time>2026-05-02T11:51:02.999Z</time></trkpt><trkpt lat="43.117916291846406" lon="12.16953159812798"><ele>266.6</ele><time>2026-05-02T11:51:04.999Z</time></trkpt><trkpt lat="43.11792416077527" lon="12.169432174903932"><ele>266.2</ele><time>2026-05-02T11:51:06.999Z</time></trkpt><trkpt lat="43.11789522050706" lon="12.169336640763541"><ele>265.8</ele><time>2026-05-02T11:51:09.999Z</time></trkpt><trkpt lat="43.11783580107251" lon="12.169252557732205"><ele>265.4</ele><time>2026-05-02T11:51:11.999Z</time></trkpt><trkpt lat="43.11772388005851" lon="12.169362383141303"><ele>265.0</ele><time>2026-05-02T11:51:13.999Z</time></trkpt><trkpt lat="43.11762769624328" lon="12.169419561042904"><ele>265.0</ele><time>2026-05-02T11:51:15.999Z</time></trkpt><trkpt lat="43.11754989402975" lon="12.169440676563223"><ele>265.0</ele><time>2026-05-02T11:51:17.999Z</time></trkpt><trkpt lat="43.117490126434845" lon="12.169483348125633"><ele>265.0</ele><time>2026-05-02T11:51:19.999Z</time></trkpt><trkpt lat="43.11741831466998" lon="12.169534672038523"><ele>265.0</ele><time>2026-05-02T11:51:21.999Z</time></trkpt><trkpt lat="43.11735089102829" lon="12.169555471958484"><ele>261.0</ele><time>2026-05-02T11:51:25.999Z</time></trkpt><trkpt lat="43.11728102107766" lon="12.169633341055489"><ele>261.0</ele><time>2026-05-02T11:51:29.999Z</time></trkpt></trkseg></trk></gpx>